[[{"header":{"parameterUnit":"m.s-1","parameterCategory":1,"la1":30.6,"la2":29.2853,"lo1":-89.7004,"lo2":-87.6739,"dy":0.0162,"dx":0.0183,"nx":112,"ny":82,"refTime":"2023-06-11T06:00:00:Z","depth":0,"parameterNumber":2,"parameterNumberName":"U-component_of_WINDS"},"data":[0.0,0.0,0.0,0.0,0.0,0.0,0.0,0.0,0.0,0.0,0.0,0.0,0.0,0.0,0.0,0.0,0.0,0.0,0.0,0.0,0.0,0.0,0.0,0.0,0.0,0.0,0.0,0.0,0.0,0.0,0.0,0.0,0.0,0.0,0.0,0.0,0.0,0.0,0.0,0.0,0.0,0.0,0.0,0.0,0.0,0.0,0.0,0.0,0.0,0.0,0.0,0.0,0.0,0.0,0.0,0.0,0.0,0.0,0.0,0.0,0.0,0.0,0.0,0.0,0.0,0.0,0.0,0.0,0.0,0.0,0.0,0.0,0.0,0.0,0.0,0.0,0.0,0.0,0.0,0.0,0.0,0.0,0.0,0.0,0.0,0.0,0.0,0.0,0.0,0.0,0.0,-4.9539,-4.9539,-4.9539,-4.9539,-4.9539,-4.9539,-4.9539,0.0,0.0,0.0,0.0,0.0,0.0,0.0,0.0,0.0,0.0,0.0,0.0,0.0,0.0,0.0,0.0,0.0,0.0,0.0,0.0,0.0,0.0,0.0,0.0,0.0,0.0,0.0,0.0,0.0,0.0,0.0,0.0,0.0,0.0,0.0,0.0,0.0,0.0,0.0,0.0,0.0,0.0,0.0,0.0,0.0,0.0,0.0,0.0,0.0,0.0,0.0,0.0,0.0,0.0,0.0,0.0,0.0,0.0,0.0,0.0,0.0,0.0,0.0,0.0,0.0,0.0,0.0,0.0,0.0,0.0,0.0,0.0,0.0,0.0,0.0,0.0,0.0,0.0,0.0,0.0,0.0,0.0,0.0,0.0,0.0,0.0,0.0,0.0,0.0,0.0,0.0,0.0,0.0,0.0,0.0,0.0,0.0,0.0,0.0,0.0,0.0,0.0,0.0,0.0,-5.0453,-5.1065,-5.1133,-5.1133,-5.1133,-5.1133,-5.1133,-5.1133,0.0,0.0,0.0,0.0,0.0,0.0,0.0,0.0,0.0,0.0,0.0,0.0,0.0,0.0,0.0,0.0,0.0,0.0,0.0,0.0,0.0,0.0,0.0,0.0,0.0,0.0,0.0,0.0,0.0,0.0,0.0,0.0,0.0,0.0,0.0,0.0,0.0,0.0,0.0,0.0,0.0,0.0,0.0,0.0,0.0,0.0,0.0,0.0,0.0,0.0,0.0,0.0,0.0,0.0,0.0,0.0,0.0,0.0,0.0,0.0,0.0,0.0,0.0,0.0,0.0,0.0,0.0,0.0,0.0,0.0,0.0,0.0,0.0,0.0,0.0,0.0,0.0,0.0,0.0,0.0,0.0,0.0,0.0,0.0,0.0,0.0,0.0,0.0,0.0,0.0,0.0,0.0,0.0,0.0,0.0,0.0,0.0,0.0,0.0,0.0,0.0,0.0,0.0,-5.0086,-5.0813,-5.0726,-5.1054,-5.1346,-5.1346,-5.1346,-5.1346,-5.1346,-5.0606,0.0,0.0,0.0,0.0,0.0,0.0,0.0,0.0,0.0,0.0,0.0,0.0,0.0,0.0,0.0,0.0,0.0,0.0,0.0,0.0,0.0,0.0,0.0,0.0,0.0,0.0,0.0,0.0,0.0,0.0,0.0,0.0,0.0,0.0,0.0,0.0,0.0,0.0,0.0,0.0,0.0,0.0,0.0,0.0,0.0,0.0,0.0,0.0,0.0,0.0,0.0,0.0,0.0,0.0,0.0,0.0,0.0,0.0,0.0,0.0,0.0,0.0,0.0,0.0,0.0,0.0,0.0,0.0,0.0,0.0,0.0,0.0,0.0,0.0,0.0,0.0,0.0,0.0,0.0,0.0,0.0,0.0,0.0,0.0,0.0,0.0,0.0,0.0,0.0,0.0,0.0,0.0,0.0,0.0,0.0,0.0,0.0,0.0,0.0,0.0,0.0,0.0,-5.0626,-5.0827,-5.0585,-5.1263,-5.1726,-5.1726,-5.1726,-5.1726,-5.1726,-5.1589,0.0,0.0,0.0,0.0,0.0,0.0,0.0,0.0,0.0,0.0,0.0,0.0,0.0,0.0,0.0,0.0,0.0,0.0,0.0,0.0,0.0,0.0,0.0,0.0,0.0,0.0,0.0,0.0,0.0,0.0,0.0,0.0,0.0,0.0,0.0,0.0,0.0,0.0,0.0,0.0,0.0,0.0,0.0,0.0,0.0,0.0,0.0,0.0,0.0,0.0,0.0,0.0,0.0,0.0,0.0,0.0,0.0,0.0,0.0,0.0,0.0,0.0,0.0,0.0,0.0,0.0,0.0,0.0,0.0,0.0,0.0,0.0,0.0,0.0,0.0,0.0,0.0,0.0,0.0,0.0,0.0,0.0,0.0,0.0,0.0,0.0,0.0,0.0,0.0,0.0,0.0,0.0,0.0,0.0,0.0,0.0,0.0,0.0,0.0,0.0,0.0,0.0,-5.0018,-5.0638,-5.2004,-5.2873,-5.3348,-5.3348,-5.3348,-5.3348,-5.3348,-5.2638,0.0,0.0,0.0,0.0,0.0,0.0,0.0,0.0,0.0,0.0,0.0,0.0,0.0,0.0,0.0,0.0,0.0,0.0,0.0,0.0,0.0,0.0,0.0,0.0,0.0,0.0,0.0,0.0,0.0,0.0,0.0,0.0,0.0,0.0,0.0,0.0,0.0,0.0,0.0,0.0,0.0,0.0,0.0,0.0,0.0,0.0,0.0,0.0,0.0,0.0,0.0,0.0,0.0,0.0,0.0,0.0,0.0,0.0,0.0,0.0,0.0,0.0,0.0,0.0,0.0,0.0,0.0,0.0,0.0,0.0,0.0,0.0,0.0,0.0,0.0,0.0,0.0,0.0,0.0,0.0,0.0,0.0,0.0,0.0,0.0,0.0,0.0,0.0,0.0,0.0,0.0,0.0,0.0,0.0,0.0,0.0,0.0,0.0,0.0,0.0,0.0,0.0,-5.0424,-5.0709,0.0,-5.1516,-5.2203,-5.2729,-5.2764,-5.2972,-5.3484,0.0,0.0,0.0,0.0,0.0,0.0,0.0,0.0,0.0,0.0,0.0,0.0,0.0,0.0,0.0,0.0,0.0,0.0,0.0,0.0,0.0,0.0,0.0,0.0,0.0,0.0,0.0,0.0,0.0,0.0,0.0,0.0,0.0,0.0,0.0,0.0,0.0,0.0,0.0,0.0,0.0,0.0,0.0,0.0,0.0,0.0,0.0,0.0,0.0,0.0,0.0,0.0,0.0,0.0,0.0,0.0,0.0,0.0,0.0,0.0,0.0,0.0,0.0,0.0,0.0,0.0,0.0,0.0,0.0,0.0,0.0,0.0,0.0,0.0,0.0,0.0,0.0,0.0,0.0,0.0,0.0,0.0,0.0,0.0,0.0,0.0,0.0,0.0,0.0,0.0,0.0,0.0,0.0,0.0,0.0,0.0,0.0,0.0,0.0,0.0,0.0,0.0,-4.9536,-5.0158,-5.0538,0.0,-5.0995,-5.1806,-5.259,-5.2694,-5.2903,-5.3484,0.0,0.0,0.0,0.0,0.0,0.0,0.0,0.0,0.0,0.0,0.0,0.0,0.0,0.0,0.0,0.0,0.0,0.0,0.0,0.0,0.0,0.0,0.0,0.0,0.0,0.0,0.0,0.0,0.0,0.0,0.0,0.0,0.0,0.0,0.0,0.0,0.0,0.0,0.0,0.0,0.0,0.0,0.0,0.0,0.0,0.0,0.0,0.0,0.0,0.0,0.0,0.0,0.0,0.0,0.0,0.0,0.0,0.0,0.0,0.0,0.0,0.0,0.0,0.0,0.0,0.0,0.0,0.0,0.0,0.0,0.0,0.0,0.0,0.0,0.0,0.0,0.0,0.0,0.0,0.0,0.0,0.0,0.0,0.0,0.0,0.0,0.0,0.0,0.0,0.0,0.0,0.0,0.0,0.0,0.0,0.0,0.0,0.0,0.0,0.0,0.0,0.0,-4.8563,-4.9116,-4.9923,-5.0995,-5.1806,-5.259,-5.3382,-5.3484,-5.3484,0.0,0.0,0.0,0.0,0.0,0.0,0.0,0.0,0.0,0.0,0.0,0.0,0.0,0.0,0.0,0.0,0.0,0.0,0.0,0.0,0.0,0.0,0.0,0.0,0.0,0.0,0.0,0.0,0.0,0.0,0.0,0.0,0.0,0.0,0.0,0.0,0.0,0.0,0.0,0.0,0.0,0.0,0.0,0.0,0.0,0.0,0.0,0.0,0.0,0.0,0.0,0.0,0.0,0.0,0.0,0.0,0.0,0.0,0.0,0.0,0.0,0.0,0.0,0.0,0.0,0.0,0.0,0.0,0.0,0.0,0.0,0.0,0.0,0.0,0.0,0.0,0.0,0.0,0.0,0.0,0.0,0.0,0.0,0.0,0.0,0.0,0.0,0.0,0.0,0.0,0.0,0.0,0.0,0.0,0.0,0.0,0.0,0.0,0.0,0.0,0.0,0.0,0.0,-4.8563,-4.9116,-4.9686,-5.0221,-5.0876,-5.1327,-5.1484,-5.1951,-5.2023,-5.159,0.0,0.0,0.0,0.0,0.0,0.0,0.0,0.0,0.0,0.0,0.0,0.0,0.0,0.0,0.0,0.0,0.0,0.0,0.0,0.0,0.0,0.0,0.0,0.0,0.0,0.0,0.0,0.0,0.0,0.0,0.0,0.0,0.0,0.0,0.0,0.0,0.0,0.0,0.0,0.0,0.0,0.0,0.0,0.0,0.0,0.0,0.0,0.0,0.0,0.0,0.0,0.0,0.0,0.0,0.0,0.0,0.0,0.0,0.0,0.0,0.0,0.0,0.0,0.0,0.0,0.0,0.0,0.0,0.0,0.0,0.0,0.0,0.0,0.0,0.0,0.0,0.0,0.0,0.0,0.0,0.0,0.0,0.0,0.0,0.0,0.0,0.0,0.0,0.0,0.0,0.0,0.0,0.0,0.0,0.0,0.0,0.0,0.0,0.0,0.0,0.0,0.0,-4.8438,-4.8861,-4.9357,-4.9958,-5.058,-5.1025,-5.1307,-5.1772,-5.1755,-5.1038,0.0,0.0,0.0,0.0,0.0,0.0,0.0,0.0,0.0,0.0,0.0,0.0,0.0,0.0,0.0,0.0,0.0,0.0,0.0,0.0,0.0,0.0,0.0,0.0,0.0,0.0,0.0,0.0,0.0,0.0,0.0,0.0,0.0,0.0,0.0,0.0,0.0,0.0,0.0,0.0,0.0,0.0,0.0,0.0,0.0,0.0,0.0,0.0,0.0,0.0,0.0,0.0,0.0,0.0,0.0,0.0,0.0,0.0,0.0,0.0,0.0,0.0,0.0,0.0,0.0,0.0,0.0,0.0,0.0,0.0,0.0,0.0,0.0,0.0,0.0,0.0,0.0,0.0,0.0,0.0,0.0,0.0,0.0,0.0,0.0,0.0,0.0,0.0,0.0,0.0,0.0,0.0,0.0,0.0,0.0,0.0,0.0,0.0,0.0,0.0,0.0,0.0,-4.8485,-4.8663,-4.92,-5.0154,-5.085,-5.1455,-5.2122,-5.2372,-5.2165,-5.1272,0.0,0.0,0.0,0.0,0.0,0.0,0.0,0.0,0.0,0.0,0.0,0.0,0.0,0.0,0.0,0.0,0.0,0.0,0.0,0.0,0.0,0.0,0.0,0.0,0.0,0.0,0.0,0.0,0.0,0.0,0.0,0.0,0.0,0.0,0.0,0.0,0.0,0.0,0.0,0.0,0.0,0.0,0.0,0.0,0.0,0.0,0.0,0.0,0.0,0.0,0.0,0.0,0.0,0.0,0.0,0.0,0.0,0.0,0.0,0.0,-5.3518,0.0,0.0,0.0,0.0,0.0,0.0,0.0,0.0,0.0,0.0,0.0,0.0,0.0,0.0,0.0,0.0,0.0,0.0,0.0,0.0,0.0,0.0,0.0,0.0,0.0,0.0,0.0,0.0,0.0,0.0,0.0,0.0,0.0,0.0,0.0,0.0,0.0,0.0,0.0,0.0,0.0,-4.9817,-5.0138,-5.0499,-5.088,-5.1507,-5.1653,-5.1162,-5.1651,-5.1381,-5.0087,0.0,0.0,0.0,0.0,0.0,0.0,0.0,0.0,0.0,0.0,0.0,0.0,0.0,0.0,0.0,0.0,0.0,0.0,0.0,0.0,0.0,0.0,0.0,0.0,0.0,0.0,0.0,0.0,0.0,0.0,0.0,0.0,0.0,0.0,0.0,0.0,0.0,0.0,0.0,0.0,0.0,0.0,0.0,0.0,0.0,0.0,0.0,0.0,0.0,0.0,0.0,0.0,0.0,0.0,0.0,0.0,0.0,0.0,0.0,0.0,0.0,-5.4566,0.0,0.0,0.0,0.0,0.0,0.0,0.0,0.0,0.0,0.0,0.0,0.0,0.0,0.0,0.0,0.0,0.0,0.0,0.0,0.0,0.0,0.0,0.0,0.0,0.0,0.0,0.0,0.0,0.0,0.0,0.0,0.0,0.0,0.0,0.0,0.0,0.0,0.0,0.0,0.0,-5.0144,-5.0357,-5.054,-5.0673,-5.1256,-5.1484,-5.1027,-5.1426,-5.1154,-4.993,-5.0931,0.0,0.0,0.0,0.0,0.0,0.0,0.0,0.0,0.0,0.0,0.0,0.0,0.0,0.0,0.0,0.0,0.0,0.0,0.0,0.0,0.0,0.0,0.0,0.0,0.0,0.0,0.0,0.0,0.0,0.0,0.0,0.0,0.0,0.0,0.0,0.0,0.0,0.0,0.0,0.0,0.0,0.0,0.0,0.0,0.0,0.0,0.0,0.0,0.0,0.0,0.0,0.0,0.0,-5.5681,-5.5749,-5.5919,-5.5919,-5.5987,-5.6089,-5.6089,-5.5953,-5.5681,0.0,0.0,0.0,0.0,0.0,0.0,0.0,0.0,0.0,0.0,0.0,0.0,0.0,0.0,0.0,0.0,0.0,0.0,0.0,0.0,0.0,0.0,0.0,0.0,0.0,-4.9899,-4.99,0.0,0.0,0.0,0.0,0.0,0.0,0.0,0.0,0.0,0.0,0.0,0.0,-5.0288,-5.0321,-5.0375,-5.0375,-5.0853,-5.1229,-5.1229,-5.1349,-5.1106,-5.0421,-5.0709,-5.0625,0.0,0.0,0.0,0.0,0.0,0.0,0.0,0.0,0.0,0.0,0.0,0.0,0.0,0.0,0.0,0.0,0.0,0.0,0.0,0.0,0.0,0.0,0.0,0.0,0.0,0.0,0.0,0.0,0.0,0.0,0.0,0.0,-5.2063,-5.2131,0.0,0.0,0.0,0.0,0.0,0.0,0.0,0.0,0.0,0.0,0.0,0.0,0.0,0.0,-5.5681,-5.5681,-5.5681,-5.5681,-5.5681,-5.6055,-5.6664,-5.6664,-5.7002,-5.7611,-5.7611,0.0,-5.5681,-5.5681,0.0,0.0,0.0,0.0,0.0,0.0,0.0,0.0,0.0,0.0,0.0,0.0,0.0,0.0,0.0,0.0,0.0,0.0,0.0,0.0,0.0,0.0,-5.0168,-5.0138,-5.0587,-5.1006,0.0,-5.0397,-4.9893,-4.9938,-4.9938,0.0,0.0,0.0,0.0,0.0,0.0,0.0,-5.1423,-5.1206,-5.1079,-5.1079,-5.1169,-5.1229,-5.1229,-5.1233,-5.1173,-5.1079,-5.1159,-5.1099,-5.1006,-5.0529,0.0,0.0,0.0,0.0,0.0,0.0,0.0,0.0,0.0,0.0,0.0,0.0,0.0,0.0,0.0,0.0,0.0,0.0,0.0,0.0,0.0,0.0,0.0,0.0,0.0,0.0,0.0,0.0,0.0,-5.2503,-5.2976,-5.2976,-5.3281,-5.3653,0.0,0.0,0.0,0.0,0.0,0.0,0.0,0.0,0.0,-5.6325,-5.6731,-5.6934,-5.6934,-5.6934,-5.6934,-5.6934,-5.6934,-5.7103,-5.7408,-5.7408,-5.7577,-5.7881,-5.7881,-5.7509,-5.6934,-5.6934,-5.7137,-5.7408,0.0,0.0,0.0,0.0,-5.7845,-5.7735,-5.7625,-5.7551,0.0,0.0,0.0,0.0,0.0,0.0,0.0,0.0,0.0,0.0,0.0,0.0,0.0,-5.078,-5.102,-5.1229,-5.1229,-5.0889,-5.0683,0.0,-5.0835,-5.097,-5.1375,0.0,0.0,0.0,0.0,0.0,-5.1618,-5.1369,-5.1229,-5.1229,-5.1229,-5.1229,-5.1229,-5.1229,-5.1229,-5.1229,-5.1229,-5.1229,-5.1229,-5.093,-5.0734,0.0,0.0,0.0,0.0,0.0,0.0,0.0,0.0,0.0,0.0,0.0,0.0,0.0,0.0,0.0,0.0,0.0,0.0,0.0,0.0,0.0,0.0,0.0,0.0,0.0,0.0,0.0,0.0,-5.3112,-5.3585,-5.3754,-5.3788,-5.4059,0.0,0.0,0.0,0.0,0.0,0.0,-5.6258,-5.6799,-5.707,-5.707,-5.7611,-5.7881,-5.7881,-5.7881,-5.7881,-5.7881,-5.7881,-5.7881,-5.7881,-5.7881,-5.7881,-5.7881,-5.7881,-5.7881,-5.7881,-5.7881,-5.7881,-5.7881,-5.7881,-5.7881,-5.7881,-5.7881,-5.7881,-5.7808,-5.7662,-5.7551,-5.7476,-5.7289,0.0,-5.6762,-5.61,0.0,0.0,0.0,0.0,-5.2962,-5.1803,-5.1479,-5.1433,-5.1276,-5.1229,-5.1229,-5.1229,-5.1229,-5.1276,0.0,-5.1479,-5.1618,-5.2033,0.0,0.0,0.0,0.0,-5.1572,-5.1509,-5.1323,-5.1229,-5.1229,-5.1229,-5.1229,-5.1229,-5.1229,-5.1229,-5.1229,-5.1229,-5.1229,-5.1229,-5.1229,-5.1229,-5.1229,0.0,0.0,0.0,0.0,0.0,0.0,0.0,0.0,0.0,0.0,0.0,0.0,0.0,0.0,0.0,0.0,0.0,0.0,0.0,0.0,0.0,0.0,0.0,0.0,0.0,0.0,0.0,0.0,0.0,-5.4465,-5.4532,0.0,0.0,0.0,0.0,-5.6697,-5.6731,-5.7036,-5.7746,-5.7814,-5.7814,-5.7814,-5.7881,-5.7881,-5.7881,-5.7881,-5.7881,-5.7881,-5.7881,-5.7881,-5.7881,-5.7881,-5.7881,-5.7881,-5.7881,-5.7881,-5.7881,-5.7881,-5.7881,-5.7881,-5.7881,-5.7881,-5.7881,-5.7881,-5.7772,-5.7625,-5.7588,-5.7476,-5.7289,-5.7063,-5.6486,-5.5741,-5.5701,-5.5254,0.0,0.0,-5.3007,-5.274,-5.1526,-5.1229,-5.1229,-5.1229,-5.1229,-5.1229,-5.1229,-5.1229,-5.1229,0.0,-5.1229,-5.1323,-5.1572,0.0,-5.1618,-5.1618,-5.1618,-5.1509,-5.1246,-5.1229,-5.1229,-5.1229,-5.1229,-5.1229,-5.1229,-5.1229,-5.1229,-5.1229,-5.1229,-5.1229,-5.1229,-5.1229,-5.1229,-5.1229,-5.1199,0.0,0.0,0.0,0.0,0.0,0.0,0.0,0.0,0.0,0.0,0.0,0.0,0.0,0.0,0.0,0.0,0.0,0.0,0.0,0.0,0.0,0.0,0.0,0.0,0.0,0.0,0.0,0.0,-5.4566,-5.5006,0.0,0.0,-5.6427,-5.6697,-5.7442,-5.7509,-5.7611,-5.7881,-5.7881,-5.7881,-5.7881,-5.8355,-5.8626,-5.8626,-5.9066,-5.9302,-5.9302,-5.9302,-5.9302,-5.9302,-5.9302,-5.9302,-5.9302,-5.9302,-5.9302,-5.9302,-5.9302,-5.9032,-5.866,-5.9133,-5.9302,-5.9302,-5.9302,-5.9265,-5.919,-5.919,-5.9152,-5.8972,-5.816,-5.6777,-5.5466,-5.5466,-5.4861,-5.4019,-5.3051,-5.274,-5.2516,-5.1479,-5.1229,-5.1229,-5.1229,-5.1229,-5.1229,-5.1229,-5.1229,-5.1229,-5.1229,-5.1229,-5.1323,-5.1526,-5.1463,-5.1386,-5.1572,-5.1433,-5.1323,-5.1229,-5.1229,-5.1229,-5.1229,-5.1229,-5.1229,-5.1229,-5.1229,-5.1229,-5.1229,-5.1229,-5.1229,-5.1229,-5.1229,-5.1229,-5.1229,-5.1229,-5.1229,0.0,0.0,0.0,0.0,0.0,0.0,0.0,0.0,0.0,0.0,0.0,0.0,0.0,0.0,0.0,0.0,0.0,0.0,0.0,0.0,0.0,0.0,0.0,0.0,0.0,0.0,-5.4769,-5.5277,-5.5784,-5.6359,-5.7103,-5.7171,-5.7374,-5.7848,-5.8118,-5.8254,-5.8254,-5.849,-5.8626,-5.8626,-5.9133,-5.937,-5.937,-5.9877,-6.0114,-6.0114,-6.0114,-6.0114,-6.0114,-6.0114,-6.0114,-6.0114,-6.0114,-6.0114,-6.0114,-6.0385,-6.0216,-5.981,-6.0013,-6.0114,-6.0114,-6.0114,-6.0114,-6.0114,-6.0114,-6.0076,-5.9823,-5.863,-5.727,-5.6001,-5.5403,-5.4794,-5.412,-5.2935,-5.2606,-5.2381,-5.1433,-5.1229,-5.1229,-5.1229,-5.1229,-5.1229,-5.1229,-5.1229,-5.1229,-5.1229,-5.1229,-5.1276,-5.1433,-5.1323,-5.1276,-5.1433,-5.1323,-5.1229,-5.1229,-5.1229,-5.1229,-5.1229,-5.1229,-5.1229,-5.1229,-5.1229,-5.1229,-5.1229,-5.1229,-5.1229,-5.1229,-5.1229,-5.1229,-5.1229,-5.1229,-5.1182,-5.1058,0.0,0.0,0.0,0.0,0.0,0.0,0.0,0.0,0.0,0.0,0.0,0.0,0.0,0.0,0.0,0.0,0.0,0.0,0.0,0.0,0.0,0.0,0.0,-5.46,-5.4634,-5.5175,-5.663,-5.6833,-5.7103,-5.7814,-5.7915,-5.7879,-5.7879,-5.8589,-5.8994,-5.8994,-5.9708,-6.0114,-6.0148,-6.0148,-6.0182,-6.0216,-6.0216,-6.025,-6.025,-6.025,-6.025,-6.025,-6.025,-6.025,-6.025,-6.025,-6.025,-6.0317,-6.1095,-6.14,-6.1332,-6.0486,-6.0182,-6.0182,-6.0182,-6.0182,-6.0182,-6.0182,-6.0034,-5.9655,-5.8444,-5.7919,-5.7372,-5.5589,-5.5051,-5.4706,-5.3076,-5.2622,-5.2442,-5.1493,-5.1289,-5.1289,-5.1289,-5.1289,-5.1289,-5.1289,-5.1289,-5.1289,-5.1289,-5.1289,-5.1259,-5.1229,-5.1229,-5.1229,-5.1229,-5.1229,0.0,-5.1229,-5.1229,-5.1229,-5.1259,-5.1229,-5.1229,-5.1259,-5.1229,-5.1229,-5.1229,-5.1229,-5.1229,-5.1229,-5.1229,-5.1229,-5.1229,-5.1229,-5.1058,-5.0793,0.0,0.0,0.0,0.0,0.0,0.0,0.0,0.0,0.0,0.0,0.0,0.0,0.0,0.0,0.0,0.0,0.0,0.0,0.0,0.0,0.0,0.0,-5.46,-5.46,-5.5513,-5.6359,-5.6765,-5.7273,-5.7679,-5.7881,-5.7763,-5.7681,-5.7681,-5.8347,-5.8785,-5.8785,-5.9602,-6.0385,-6.096,-6.1501,-6.2009,-6.2584,-6.3091,-6.3362,-6.3362,-6.3362,-6.3362,-6.3362,-6.3362,-6.3362,-6.3362,-6.3362,-6.3362,-6.3396,-6.3599,-6.37,-6.3565,-6.2279,-6.1772,-6.1772,-6.1772,-6.1772,-6.1772,-6.1772,-6.1283,-6.0572,-6.0071,-5.8913,-5.7511,-5.6237,-5.5822,-5.548,-5.3586,-5.3526,-5.3898,-5.2923,-5.2636,-5.2636,-5.2636,-5.2636,-5.2636,-5.2636,-5.2636,-5.2636,-5.2636,-5.2636,-5.2336,-5.1379,-5.1229,-5.1229,-5.1229,-5.1229,0.0,-5.1229,-5.1229,-5.1409,-5.1887,-5.1498,-5.1409,-5.1887,-5.1498,-5.1229,-5.1229,-5.1229,-5.1229,-5.1229,-5.1229,-5.1229,-5.1229,-5.1229,-5.1182,0.0,0.0,0.0,0.0,0.0,0.0,0.0,0.0,0.0,0.0,0.0,0.0,0.0,0.0,0.0,0.0,0.0,0.0,0.0,0.0,0.0,0.0,-5.531,-5.5513,-5.5513,-5.6258,-5.69,-5.7205,-5.7915,-5.8208,-5.7838,-5.7975,-5.8058,-5.8058,-5.9058,-5.9816,-6.0251,-6.1363,-6.2212,-6.2685,-6.3091,-6.3531,-6.3971,-6.4377,-6.4613,-6.4613,-6.4613,-6.4613,-6.4613,-6.4613,-6.4613,0.0,-6.4613,-6.4613,-6.4613,-6.4613,-6.4613,0.0,0.0,0.0,0.0,0.0,-6.2341,-6.2229,-6.2229,-6.1801,-6.1113,-6.0034,-5.8948,-5.7708,-5.5873,-5.5349,-5.5054,-5.3622,-5.3627,-5.3962,-5.3368,-5.3174,-5.3174,-5.3174,-5.3174,-5.3174,-5.3174,-5.3174,-5.3174,-5.3174,-5.3174,0.0,-5.2187,-5.2037,-5.2037,-5.2037,-5.2037,-5.2037,-5.2037,-5.2037,-5.2187,-5.2576,-5.2276,-5.2097,-5.2187,-5.1858,0.0,0.0,0.0,-5.1229,-5.1229,-5.1229,0.0,0.0,0.0,-5.1105,-5.1011,0.0,0.0,0.0,-5.0103,-5.0074,0.0,0.0,0.0,0.0,0.0,0.0,0.0,0.0,0.0,0.0,0.0,0.0,0.0,0.0,0.0,0.0,-5.6393,-5.6867,-5.7036,-5.707,-5.7306,-5.7949,-5.8518,-5.8547,-5.7806,-5.8294,-5.8675,-5.8797,-6.0225,-6.1501,-6.2419,0.0,0.0,0.0,0.0,-6.4749,-6.485,-6.485,-6.485,-6.485,-6.4918,-6.4918,-6.485,-6.4918,-6.4918,-6.485,-6.485,-6.485,-6.485,-6.485,-6.4816,-6.4647,-6.3903,-6.3632,-6.3565,-6.2888,-6.2499,-6.2272,-6.2165,0.0,0.0,-5.9423,-5.8735,-5.8233,-5.5481,-5.4726,-5.4605,-5.3661,-5.3481,-5.353,-5.3462,-5.3414,-5.3414,-5.3414,-5.3414,-5.3414,-5.3414,-5.3414,-5.3414,-5.3414,-5.3414,-5.3414,-5.3414,-5.3294,-5.3174,-5.3174,-5.3174,-5.3174,-5.3174,-5.3174,-5.3204,-5.3294,0.0,0.0,-5.2486,-5.2366,-5.2067,-5.1468,-5.1379,-5.1289,-5.1229,-5.1229,-5.1229,-5.1229,-5.1229,-5.1058,-5.087,-5.0662,-5.0405,-5.0135,-5.0357,-5.0279,0.0,0.0,0.0,0.0,0.0,0.0,0.0,0.0,0.0,0.0,0.0,0.0,0.0,0.0,0.0,-5.6461,-5.6697,-5.7239,-5.8423,-5.8592,-5.866,-5.8795,-5.8222,-5.8057,-5.8462,-5.8303,-5.855,-5.934,-6.0759,-6.2016,-6.2997,-6.4042,0.0,-6.5459,-6.5493,-6.5764,-6.6373,-6.6373,-6.6373,-6.6406,0.0,0.0,-6.6406,-6.6981,-6.6948,-6.6373,-6.6373,-6.6373,-6.6373,-6.6373,-6.6034,-6.5392,-6.4681,-6.4377,-6.4377,-6.4241,-6.4133,-6.3991,-6.3222,-6.2973,-6.2676,-6.1302,-6.082,-6.0407,-5.8064,-5.7927,0.0,-5.5535,-5.5327,-5.5786,-5.504,-5.479,-5.479,-5.479,-5.479,-5.479,-5.479,-5.479,-5.479,-5.479,-5.479,-5.479,-5.479,-5.3892,-5.3174,-5.3174,-5.3174,-5.3174,-5.3174,-5.3174,-5.3384,-5.3952,-5.3503,-5.3354,-5.3773,-5.3324,-5.2935,-5.2815,-5.2306,-5.1768,-5.1229,-5.1229,-5.1229,-5.1229,-5.1229,-5.1182,-5.1105,-5.087,-5.0632,-5.0405,-5.0038,-4.9815,0.0,0.0,0.0,0.0,0.0,0.0,0.0,0.0,0.0,0.0,0.0,-5.5378,0.0,0.0,-5.6494,-5.7239,-5.7679,-5.8186,-5.893,-5.8925,-5.8858,-5.8858,-5.88,-5.8855,-5.9133,-5.9314,-5.973,-6.0579,-6.2121,-6.3232,-6.3659,-6.4959,-6.6034,-6.6779,-6.6779,-6.7184,-6.7963,-6.7963,-6.7963,-6.7963,-6.8335,-6.8301,-6.7963,-6.8335,-6.8301,-6.7963,-6.7963,-6.7963,-6.7929,-6.7523,-6.6914,-6.6203,-6.5831,-6.5256,-6.4613,-6.4613,-6.4532,-6.4383,-6.3889,-6.359,-6.3192,-6.2127,-6.1317,-6.0489,-5.8924,-5.84,-5.8062,-5.6566,-5.6464,-5.6738,-5.629,-5.6137,-5.6047,-5.5748,-5.5688,-5.5598,-5.5269,-5.5179,-5.5179,-5.5179,-5.5179,-5.5179,-5.5179,-5.464,-5.4192,-5.4192,-5.4192,-5.4192,-5.4192,-5.4192,-5.4311,-5.467,-5.4401,-5.4192,-5.4221,-5.3593,-5.3174,-5.3174,-5.2875,-5.2546,-5.2217,-5.1887,-5.1708,-5.1708,-5.1379,-5.1229,-5.1229,-5.0917,-5.0728,-5.0662,-5.0105,-4.9815,0.0,0.0,0.0,0.0,0.0,0.0,0.0,0.0,-5.4837,-5.5006,-5.5513,-5.6156,-5.6867,-5.7002,-5.7273,-5.7983,-5.8626,-5.9133,-5.9404,-5.9298,-5.9179,-5.9078,-5.9374,-5.968,-6.0022,-6.0335,-6.0999,-6.2126,-6.3293,-6.4233,-6.4883,-6.6048,-6.7141,-6.8098,-6.7926,-6.8229,-6.9079,-6.8904,-6.8904,-6.9113,-6.9248,-6.9248,-6.9113,-6.9248,-6.9248,-6.9113,-6.9113,-6.9113,-6.9045,-6.8402,-6.7793,-6.7252,-6.7083,-6.6305,-6.5222,-6.5087,-6.4896,-6.4739,-6.4521,-6.4195,-6.3696,-6.2684,-6.1646,-6.0582,-5.9381,-5.8419,-5.7635,-5.7198,-5.7094,-5.7094,-5.7094,-5.7094,-5.6974,-5.6466,-5.6346,-5.6196,-5.5688,-5.5568,-5.5568,-5.5568,-5.5568,-5.5508,-5.5388,-5.5388,-5.5329,-5.5209,-5.5179,-5.5179,-5.5179,-5.5179,-5.5179,-5.5179,-5.5179,-5.497,-5.4431,-5.3892,-5.3503,-5.3384,-5.3384,-5.3324,-5.3174,-5.2665,-5.2396,-5.2396,-5.1858,-5.1528,-5.1409,-5.1125,-5.0894,-5.0728,-5.0327,-4.999,-5.3348,-5.345,0.0,-5.3518,-5.3991,-5.4465,0.0,0.0,-5.5784,-5.6427,-5.663,-5.69,-5.7645,-5.778,-5.8017,-5.8761,-5.8964,-5.9505,-6.0858,-6.1018,-6.0819,-6.0445,-5.9146,-5.9216,-6.1593,-6.0645,-6.1007,-6.3804,-6.3092,-6.3959,-6.729,-6.679,-6.7191,-6.89,-6.8037,-6.807,-6.9113,-6.8171,-6.8171,-6.9113,-6.9755,-6.9722,-6.9113,-6.9755,-6.9722,-6.9113,-6.9113,-6.9113,-6.9079,-6.9011,-6.891,-6.8774,-6.8064,-6.7692,-6.7455,-6.6812,-6.6534,-6.639,-6.5295,-6.489,-6.4662,-6.3557,-6.3066,-6.2595,-6.0629,-5.9931,-5.9447,-5.7635,-5.7094,-5.7094,-5.7094,-5.7094,-5.7064,-5.7004,-5.7004,-5.6974,-5.6885,-5.6885,-5.6885,-5.6885,-5.6885,-5.6705,-5.6166,-5.6128,-5.5867,-5.5269,-5.5179,-5.5179,-5.5179,-5.5179,-5.5179,-5.5179,-5.5179,-5.5149,-5.5089,-5.4999,-5.473,-5.4132,-5.4102,-5.3832,-5.3204,-5.3114,-5.3084,-5.3084,-5.2995,-5.2665,-5.2097,-5.181,-5.1272,-5.0548,-5.0231,-5.0086,-5.3212,0.0,0.0,0.0,-5.4702,-5.5243,-5.5243,-5.5818,-5.6427,-5.6731,-5.7137,-5.7509,-5.7814,-5.8254,-5.866,0.0,-5.929,-5.994,-6.112,-6.1106,-6.1258,-6.2182,-6.0883,-6.0407,-6.1533,-6.1073,-6.1337,-6.3015,-6.4071,-6.5139,-6.608,-6.7302,-6.8216,-6.8772,-6.8987,-6.9188,-6.9441,-6.9623,-6.9929,-7.0398,-7.0703,-7.0669,-7.0398,-7.0703,-7.0669,-7.0398,-7.0398,-7.0128,-6.9722,-6.9722,-6.9485,-6.9079,-6.8741,-6.8605,-6.847,-6.7252,-6.632,-6.5613,-6.5138,-6.4338,-6.3543,-6.302,-6.2362,-6.1597,-6.0764,-6.0043,-5.9408,-5.8527,-5.8261,-5.8261,-5.8261,-5.8261,-5.8171,-5.7782,-5.7693,-5.7573,-5.7184,-5.7094,-5.7094,-5.7094,-5.7094,-5.7004,-5.6765,-5.6705,-5.6615,-5.6346,-5.5658,-5.5179,-5.5179,-5.5179,-5.5179,-5.5179,-5.5179,-5.5179,-5.5179,-5.5179,-5.5059,-5.479,-5.479,-5.464,-5.4371,-5.3982,-5.3773,-5.3773,-5.3384,-5.3054,-5.2785,-5.2543,-5.2199,-5.1865,-5.1395,-5.1198,-5.3481,0.0,0.0,-5.4905,-5.548,-5.6021,-5.6021,-5.6562,-5.7103,-5.7103,-5.7509,-5.7949,-5.8152,-5.866,-5.9167,-5.9573,-5.998,-6.0692,-6.1761,-6.1625,-6.2042,-6.3549,-6.2509,-6.1678,-6.161,-6.1348,-6.1894,-6.3724,-6.4622,-6.5393,-6.5879,-6.7281,-6.836,-6.8871,-6.9356,-6.9808,-7.0123,-7.0608,-7.1007,-7.1312,-7.1312,-7.1312,-7.1312,-7.1312,-7.1312,-7.1312,-7.1312,-7.1007,-7.05,-7.05,-7.0195,-6.9688,-6.9485,-6.9417,-6.9248,-6.7843,-6.6443,-6.5165,-6.4922,-6.3858,-6.2568,-6.2551,-6.1909,-6.1082,-6.0805,-6.0158,-5.9499,-5.9207,-5.9099,-5.9099,-5.9099,-5.9099,-5.8979,-5.8501,-5.8411,-5.8261,-5.7752,-5.7663,-5.7663,-5.7663,-5.7663,-5.7603,-5.7423,-5.7393,-5.7304,-5.7124,-5.6316,-5.5658,-5.5478,-5.5299,-5.5179,-5.5179,-5.5179,-5.5179,-5.5179,-5.5179,-5.5179,-5.5179,-5.5179,-5.5179,-5.5179,-5.473,-5.4491,-5.4491,-5.3982,-5.3653,-5.3473,-5.3129,-5.2892,-5.2665,-5.2168,-5.1917,0.0,0.0,-5.5683,-5.5683,-5.6224,-5.6765,-5.6765,-5.734,-5.7848,-5.7848,-5.7881,-5.8118,-5.8829,-5.8998,-5.9505,-6.0994,-6.1226,-6.1767,-6.326,-6.3417,-6.3598,-6.4088,-6.3277,-6.2552,0.0,-6.1399,-6.2738,-6.7372,-6.4141,-6.3861,-6.8286,-6.6656,-6.6878,-6.9585,-6.8716,-6.9187,-7.1222,-7.025,-7.0296,-7.1312,-7.1312,-7.1312,-7.1312,-7.1312,-7.1312,-7.1312,-7.1312,-7.1312,-7.1278,-7.1278,-7.1278,-7.1176,-7.0432,-7.0161,-7.006,-6.9019,-6.7513,-6.5857,-6.4938,-6.375,-6.2568,-6.2355,-6.2256,-6.2058,-6.1031,-6.0701,-6.0442,-5.9392,-5.9099,-5.9099,-5.9099,-5.9099,-5.9099,-5.9069,-5.9069,-5.9069,-5.9039,-5.9039,-5.9039,-5.9039,-5.9039,-5.883,-5.8201,-5.8082,-5.7872,-5.7184,-5.7064,-5.6825,-5.6226,-5.5598,-5.5179,-5.5179,-5.5179,-5.5179,-5.5179,-5.5179,-5.5179,-5.5179,-5.5179,-5.5179,-5.5179,-5.5179,-5.5149,-5.5149,-5.5149,-5.482,-5.4192,-5.3612,-5.3036,-5.2417,-5.1866,-5.1614,-5.5209,0.0,-5.6427,-5.6427,-5.6968,-5.7509,-5.7509,-5.7712,-5.7881,-5.7881,-5.8287,-5.8727,-5.8964,-5.9844,-6.0723,-6.1231,-6.1199,-6.1676,-6.3282,-6.3381,-6.3515,-6.4133,-6.3747,0.0,0.0,0.0,0.0,-6.4738,-6.4488,-6.525,-6.7492,-6.803,-6.8389,-6.8618,-6.9651,-7.025,-7.025,-7.0608,-7.0961,-7.1312,-7.1312,-7.1312,-7.1312,-7.1312,-7.1312,-7.1312,-7.1312,-7.1312,-7.1312,-7.1312,-7.1312,-7.1278,-7.1041,-7.085,-7.0535,-6.9749,-6.8386,-6.6707,-6.4706,-6.267,-6.0866,-6.0333,-6.0211,-6.0106,-5.9736,-5.966,-5.9553,-5.9207,-5.9099,-5.9099,-5.9099,-5.9099,-5.9099,-5.9099,-5.9099,-5.9099,-5.9099,-5.9099,-5.9099,-5.9099,-5.9099,-5.9039,-5.88,-5.877,-5.856,-5.7872,-5.7393,-5.6885,-5.6308,-5.5987,-5.5658,-5.5239,-5.5179,-5.5179,-5.5179,-5.5179,-5.5179,-5.5179,-5.5179,-5.5179,-5.5179,-5.5179,-5.5179,-5.5179,-5.5179,-5.5089,-5.485,-5.4497,-5.4124,-5.3655,-5.3275,-5.3017,-5.5953,-5.663,-5.7171,-5.7171,-5.7543,-5.7881,-5.7881,-5.7881,-5.7881,-5.7881,-5.849,-5.9099,-5.9336,-6.0452,-6.125,-6.1211,-6.1291,-6.1816,-6.3206,-6.3491,-6.3802,-6.4487,-6.4106,0.0,0.0,0.0,0.0,-6.477,-6.5294,-6.6058,-6.7392,-6.8143,-6.8453,-6.8072,-6.9794,-7.0608,-7.0296,-7.0961,-7.1312,-7.1312,-7.1312,-7.1312,-7.1312,-7.1312,-7.1312,-7.1312,-7.1312,-7.1312,-7.1312,-7.1312,-7.1267,-7.1176,-7.1176,-7.0779,-7.0136,-6.998,-6.8544,-6.6383,-6.4657,-6.2602,-6.0566,-5.9741,-5.9308,-5.9099,-5.9099,-5.9099,-5.9099,-5.9099,-5.9099,-5.9099,-5.9099,-5.9099,-5.9099,-5.9099,-5.9099,-5.9099,-5.9099,-5.9099,-5.9099,-5.9099,-5.9099,-5.9099,-5.9099,-5.9099,-5.8949,-5.853,-5.8112,-5.7483,-5.6615,-5.6496,-5.6256,-5.5598,-5.5538,-5.5448,-5.5209,-5.5179,-5.5179,-5.5179,-5.5179,-5.5179,-5.5179,-5.5179,-5.5179,-5.5179,-5.5179,-5.5179,-5.5179,-5.4955,-5.4619,-5.4304,-5.3993,-5.3762,-5.6833,-5.7374,-5.7881,-5.7881,-5.7881,-5.7881,-5.7881,-5.7881,-5.7881,-5.7881,-5.8524,-5.9268,0.0,0.0,-6.1296,-6.1094,-6.1625,-6.2321,-6.3126,-6.3856,-6.4465,0.0,0.0,0.0,0.0,0.0,0.0,-6.7281,0.0,-6.6281,-6.7989,-6.7137,-6.7034,-6.8072,-6.9187,-7.0296,-7.1312,-7.1312,-7.1312,-7.1312,-7.1312,-7.1312,-7.1312,-7.1312,-7.1312,-7.1312,-7.1312,-7.1312,-7.1312,-7.1267,-7.1131,-7.087,-7.0825,-7.0016,-6.8993,-6.9765,-6.7971,-6.5087,-6.4828,-6.3432,-6.1651,-6.0609,-5.9752,-5.9159,-5.9159,-5.9129,-5.9099,-5.9099,-5.9099,-5.9099,-5.9099,-5.9099,-5.9099,-5.9099,-5.9099,-5.9099,-5.9099,-5.9099,-5.9099,-5.9099,-5.9099,-5.9099,-5.9099,-5.9099,-5.9099,-5.9099,-5.9099,-5.862,-5.7304,-5.7154,-5.6915,-5.6286,-5.6278,-5.6008,-5.5299,-5.5239,-5.5239,-5.5179,-5.5179,-5.5179,-5.5179,-5.5179,-5.5179,-5.5179,-5.5179,-5.5179,-5.5179,-5.4955,-5.4619,-5.4252,-5.3993,-5.3762,-5.7306,-5.7746,-5.7881,-5.7881,-5.7881,-5.7881,-5.7881,-5.7881,-5.7881,-5.7881,-5.893,-5.9877,0.0,0.0,0.0,-6.2037,-6.2199,0.0,-6.405,-6.4386,0.0,-6.4191,0.0,-6.3084,-6.1379,-6.3821,0.0,0.0,-6.5873,-6.6791,-6.8021,-6.782,-6.782,-6.8072,-6.9888,-7.1007,-7.1312,-7.1312,-7.1312,-7.1312,-7.1312,-7.1312,-7.1312,-7.1312,-7.1312,-7.1312,-7.1312,-7.1312,-7.1267,-7.1052,-7.0961,-7.0825,-6.9794,-6.909,-6.8519,-6.7889,-6.697,-6.5941,-6.5009,-6.3537,-6.2022,-6.2079,-6.1092,-5.9847,-5.9847,-5.9488,-5.9099,-5.9099,-5.9099,-5.9099,-5.9099,-5.9099,-5.9099,-5.9099,-5.9099,-5.9099,-5.9099,-5.9099,-5.9099,-5.9099,-5.9099,-5.9099,-5.9099,-5.9099,-5.9099,-5.9099,-5.9099,-5.88,-5.7962,-5.7872,-5.7603,-5.6944,-5.6855,-5.6615,-5.5987,-5.5927,-5.5718,-5.5209,-5.5179,-5.5179,-5.5179,-5.5179,-5.5179,-5.5179,-5.5179,-5.5078,-5.4905,-5.4854,-5.4517,-5.3993,-5.3942,-5.3762,-5.7577,-5.7881,-5.7881,-5.7881,-5.7881,-5.7881,-5.7881,-5.7881,-5.7881,-5.7881,-5.8829,0.0,0.0,0.0,0.0,0.0,0.0,0.0,-6.3802,-6.3866,-6.3771,0.0,-6.3419,0.0,-6.1551,-6.4218,-6.595,0.0,-6.6694,-6.724,-6.7395,-6.782,-6.8072,-6.8072,-7.0203,-7.1052,-7.0608,-7.1052,-7.1052,-7.0608,-7.1052,-7.1312,-7.1312,-7.1312,-7.1312,-7.1312,0.0,-7.1098,-7.1098,-7.0825,-7.0376,-6.9794,-6.9556,-6.8371,-6.6867,-6.7228,-6.6343,-6.5009,-6.5305,-6.4187,-6.2505,-6.2511,-6.1599,-6.0475,-6.0176,-5.9817,-5.9488,-5.9189,-5.9099,-5.9099,-5.9099,-5.9099,-5.9099,-5.9099,-5.9099,-5.9099,-5.9099,-5.9099,-5.9099,-5.9099,-5.9099,-5.9099,-5.9099,-5.9099,-5.9099,-5.9099,-5.9099,-5.8979,-5.859,-5.856,-5.8291,-5.7633,-5.7543,-5.7274,-5.6645,-5.6585,-5.6286,-5.5658,-5.5628,-5.5508,-5.5209,-5.5179,-5.5179,-5.5179,-5.5179,-5.5158,-5.5006,-5.4854,-5.4568,-5.4045,-5.3942,-5.3762,-5.7679,-5.7881,-5.7881,-5.7881,-5.7881,-5.7881,-5.7881,-5.7881,-5.7881,-5.7881,0.0,-5.9201,-5.9844,0.0,-6.1234,-6.1043,0.0,-6.2372,-6.3254,-6.301,-6.2983,-6.3747,-6.2923,-6.2319,-6.2319,-6.4561,-6.632,-6.7095,-6.7737,-6.7668,-6.6753,-6.7599,-6.8221,-6.8552,-7.0296,-7.0837,-6.9935,-7.087,-7.0837,-6.9935,-7.087,-7.1312,-7.1312,-7.1267,-7.1267,-7.1222,0.0,0.0,-7.0825,-7.0561,-6.9699,-6.8601,-6.9397,-6.7668,-6.4923,-6.6763,-6.5575,-6.3394,-6.5282,-6.4709,-6.3047,-6.2562,-6.1875,-6.1134,-6.0535,-6.0236,-5.9967,-5.9398,-5.9159,-5.9099,-5.9099,-5.9099,-5.9153,-5.9315,-5.9207,-5.9153,-5.9315,-5.9207,-5.9099,-5.9099,-5.9099,-5.9099,-5.9099,-5.9099,-5.9099,-5.9099,-5.9099,-5.9099,-5.9099,-5.9099,-5.889,-5.8321,-5.8261,-5.7992,-5.7304,-5.7244,-5.6974,-5.6346,-5.6226,-5.5927,-5.5359,-5.5239,-5.5179,-5.5179,-5.5179,-5.5128,-5.5078,-5.4824,-5.4568,-5.42,-5.3971,-5.371,-5.7509,-5.7881,-5.7881,-5.7881,-5.7881,-5.7881,-5.7881,-5.7881,0.0,0.0,-5.849,-5.9066,-5.9167,-6.0351,0.0,-6.1239,0.0,0.0,0.0,0.0,-6.323,0.0,0.0,0.0,0.0,0.0,0.0,0.0,0.0,0.0,-6.782,-6.7971,-6.8895,-7.0699,-7.1131,-7.1222,-7.1007,-7.1222,-7.1222,-7.1007,-7.1222,-7.1312,-7.1312,-7.1052,-7.0961,-7.0961,0.0,0.0,-7.0561,-7.0363,-6.9541,-6.8371,-6.7414,-6.611,-6.4623,-6.4183,-6.3592,-6.3137,-6.3565,-6.3451,-6.3222,-6.4031,-6.3183,-6.1912,-6.1792,-6.0984,-6.0057,-5.9937,-5.9518,-5.9099,-5.9099,-5.9099,-5.9285,-6.018,-5.9736,-5.9339,-6.0233,-5.9766,-5.9099,-5.9099,-5.9099,-5.9099,-5.9099,-5.9099,-5.9099,-5.9099,-5.9099,-5.9099,-5.9099,-5.9099,-5.9069,-5.8949,-5.8949,-5.868,-5.7992,-5.7932,-5.7663,-5.6974,-5.6466,-5.6188,-5.6017,-5.5478,-5.5179,-5.5179,-5.5179,-5.4976,-5.4458,-5.4406,-5.4126,-5.3658,-5.3605,-5.3553,-5.7476,-5.7881,-5.7881,-5.7881,-5.7881,-5.7881,-5.7881,0.0,0.0,0.0,-5.8186,-5.8558,-5.893,0.0,0.0,0.0,0.0,0.0,0.0,0.0,0.0,0.0,0.0,0.0,0.0,0.0,0.0,0.0,0.0,0.0,-6.6491,-6.7497,-6.909,-7.1222,-7.1312,-7.1007,-7.0482,-7.1007,-7.1007,-7.0482,-7.0916,-7.1098,-7.1052,-7.0825,-7.0654,-7.0654,-7.0456,0.0,-7.0316,-7.0082,-6.9301,-6.8271,-6.8204,-6.7105,-6.5575,-6.5683,-6.4954,-6.3958,-6.3958,-6.3535,-6.3194,-6.3706,-6.3324,-6.254,-6.2211,-6.1403,-6.0535,-6.0176,-5.9608,-5.9261,-5.9789,-5.9948,-6.018,-6.1286,-6.0671,-5.9895,-5.9895,-5.9446,-5.9099,-5.9099,-5.9099,-5.9099,-5.9099,-5.9099,-5.9099,-5.9099,-5.9099,-5.9099,-5.9099,-5.9099,-5.9099,-5.9099,-5.9099,-5.8979,-5.865,-5.865,-5.8351,-5.7663,-5.7363,-5.6885,-5.6248,-5.5867,-5.5538,-5.5209,-5.5179,-5.5078,-5.4743,-5.4458,-5.4149,-5.3919,-5.3605,-5.35,-5.7476,-5.7881,-5.7881,-5.7881,-5.7881,-5.7881,-5.7881,-5.7881,0.0,0.0,-5.7881,-5.8084,-5.866,0.0,0.0,0.0,0.0,0.0,0.0,0.0,0.0,0.0,0.0,0.0,0.0,0.0,0.0,0.0,0.0,0.0,0.0,-6.6826,-6.8749,-7.0916,-7.0961,-7.0654,-7.0029,-7.087,-7.087,-6.9982,-7.0608,-7.087,-7.0825,-7.0515,-7.0423,-7.0423,-7.0223,0.0,0.0,-6.9893,-6.9156,-6.8204,-6.9107,-6.8204,-6.6533,-6.7414,-6.6449,-6.4734,-6.4734,-6.4015,-6.3079,-6.3079,-6.3079,-6.2989,-6.245,-6.1762,-6.1014,-6.0446,-5.9727,-5.9369,-6.0442,-6.0701,-6.0877,-6.179,-6.1489,-6.0701,-5.9392,-5.9099,-5.9099,-5.9099,-5.9099,-5.9099,-5.9099,-5.9099,-5.9099,-5.9099,-5.9099,-5.9099,-5.9099,-5.9099,-5.9099,-5.9099,-5.9099,-5.9099,-5.9099,-5.9099,-5.889,-5.8381,-5.8201,-5.7663,-5.6645,-5.6316,-5.5927,-5.5418,-5.5218,-5.5078,-5.5027,-5.4458,-5.42,-5.4097,-5.371,-5.35,-5.7476,-5.7881,-5.7881,-5.7881,-5.7881,-5.7881,-5.7881,0.0,0.0,-5.7881,-5.7881,-5.7915,-5.7983,-5.8558,-5.9005,0.0,0.0,-6.122,0.0,0.0,0.0,0.0,0.0,0.0,0.0,0.0,0.0,0.0,0.0,0.0,0.0,-6.6544,-6.765,-6.9794,-6.9841,-7.0296,-7.1143,-7.1267,-7.1131,-7.0825,-7.087,-7.0779,-7.0515,-7.0316,-7.0223,-7.0223,0.0,0.0,0.0,-6.9798,-6.9156,-6.8072,-6.8254,-6.7516,-6.6428,-6.6533,-6.579,-6.4734,-6.4734,-6.4015,-6.3079,-6.3079,-6.3079,-6.3079,-6.3019,-6.2121,-6.1104,-6.1044,-6.0086,-5.9369,-6.0442,-6.0701,-6.0753,-6.0825,-6.1539,-6.1589,-5.9553,-5.9099,-5.9099,-5.9099,-5.9099,-5.9099,-5.9099,-5.9099,-5.9099,-5.9099,-5.9099,-5.9099,-5.9099,-5.9099,-5.9099,-5.9099,-5.9099,-5.9099,-5.9099,-5.9099,-5.9069,-5.9009,-5.8471,-5.8082,-5.7962,-5.6795,-5.6188,-5.6077,-5.5253,-5.4671,-5.4355,-5.4045,-5.3815,-5.3553,-5.35,-5.35,-5.6968,-5.7543,-5.7881,-5.7881,-5.7881,-5.7881,-5.7881,0.0,0.0,-5.7881,-5.748,-5.7293,-5.7808,-5.7268,-5.737,-5.9231,0.0,0.0,0.0,0.0,0.0,0.0,0.0,0.0,0.0,0.0,0.0,0.0,0.0,0.0,0.0,-6.7446,-6.8122,-6.9666,-7.0343,-7.0791,-7.1052,-7.1052,-7.0916,-7.0654,-7.0549,-7.041,-7.0316,-7.0082,-6.9941,-6.9941,0.0,0.0,0.0,-6.9798,-6.9526,-6.9107,-6.9107,-6.883,-6.8436,-6.8436,-6.7311,-6.5737,-6.5737,-6.4599,-6.3079,-6.3079,-6.3079,-6.3079,-6.3079,-6.2151,-6.1104,-6.1104,-6.0609,-6.0285,-6.1387,-6.26,-6.3212,-6.1959,-6.199,-6.174,-5.9553,-5.9099,-5.9099,-5.9099,-5.9099,-5.9099,-5.9099,-5.9099,-5.9099,-5.9099,-5.9099,-5.9099,-5.9099,-5.9099,-5.9099,-5.9099,-5.9099,-5.9099,-5.9099,-5.9099,-5.9099,-5.9099,-5.886,-5.853,-5.8141,-5.7244,-5.6555,-5.6248,-5.5283,-5.4722,-5.4619,-5.4126,-5.3867,-5.3762,-5.3553,-5.35,-5.6596,-5.734,-5.7881,-5.7881,-5.7881,-5.7881,0.0,0.0,0.0,-5.7881,-5.7218,-5.6768,-5.7406,-5.6309,-5.6173,-5.8852,0.0,-5.803,0.0,0.0,0.0,0.0,0.0,0.0,0.0,0.0,0.0,0.0,0.0,0.0,0.0,0.0,-6.865,-6.9057,-6.9427,-6.9666,-6.9808,-7.0156,-7.0156,-6.9921,-7.0129,-7.0129,-7.0082,-6.9893,-6.9798,0.0,0.0,0.0,0.0,-6.9798,-6.9798,-6.9798,-6.943,-6.9301,-6.9252,-6.8928,-6.7567,-6.5897,-6.5897,-6.4654,-6.3079,-6.3079,-6.3337,-6.3562,-6.3324,-6.2479,-6.1574,-6.1574,-6.162,-6.1841,-6.2583,-6.4096,-6.4864,-6.2794,-6.2306,-6.174,-5.9553,-5.9099,-5.9207,-5.9499,-5.9315,-5.9207,-5.9499,-5.9315,-5.9099,-5.9099,-5.9099,-5.9099,-5.9099,-5.9099,-5.9099,-5.9099,-5.9099,-5.9099,-5.9099,-5.9099,-5.9099,-5.9099,-5.9099,-5.88,-5.8141,-5.7453,-5.6795,-5.6248,-5.5283,-5.4751,-5.4671,-5.4126,-5.3867,-5.3762,-5.3605,-5.35,-5.6596,-5.734,-5.7881,-5.7881,-5.7881,-5.7881,0.0,0.0,0.0,-5.7881,-5.7218,-5.6614,-5.6614,-5.5876,-5.5766,-5.72,-5.7385,0.0,0.0,0.0,0.0,0.0,0.0,0.0,0.0,0.0,0.0,0.0,0.0,0.0,0.0,0.0,-6.8798,-6.7687,-6.6343,-6.6185,-6.7215,-6.8338,-6.8798,-6.8519,-6.967,-7.0035,-6.9798,-6.9798,0.0,0.0,0.0,0.0,0.0,-6.9798,-6.9798,-6.967,-6.8552,-6.8154,-6.7971,-6.6846,-6.5683,-6.4734,-6.4734,-6.4015,-6.3079,-6.3079,-6.3789,-6.4555,-6.391,-6.3233,-6.271,-6.271,-6.3243,-6.3847,-6.3894,-6.4669,-6.4864,-6.2794,-6.2306,-6.174,-5.9553,-5.9099,-5.9392,-6.0494,-5.9842,-5.9446,-6.0494,-5.9789,-5.9099,-5.9099,-5.9099,-5.9099,-5.9099,-5.9099,-5.9099,-5.9099,-5.9099,-5.9099,-5.9099,-5.9099,-5.9099,-5.9099,-5.9099,-5.88,-5.8141,-5.7453,-5.6795,-5.6248,-5.5283,-5.4619,-5.4304,-5.3993,-5.3762,-5.35,-5.35,-5.35,-5.5852,-5.6596,-5.7273,-5.7746,-5.7881,-5.7881,-5.7881,0.0,0.0,-5.7881,-5.6729,-5.5876,-5.6498,-5.4902,-5.4206,-5.6344,-5.6054,0.0,0.0,0.0,0.0,0.0,0.0,0.0,0.0,0.0,0.0,0.0,0.0,0.0,0.0,0.0,-6.8699,-6.8502,-6.8798,-6.9041,-6.9268,-6.9589,-6.9637,-6.9397,-6.9717,-6.9893,-6.9798,-6.9798,0.0,0.0,0.0,0.0,0.0,-6.9798,-6.9798,-6.9751,-6.943,-6.8781,-6.8072,-6.7668,-6.6846,-6.5844,-6.5844,-6.5629,-6.5336,-6.5336,-6.5263,-6.5092,-6.4873,-6.4372,-6.3775,-6.3585,-6.3694,-6.4035,-6.4761,-6.5168,-6.4864,-6.2794,-6.2875,-6.2778,-6.065,-6.0774,-6.1387,-6.174,-6.0928,-6.0285,-6.065,-5.9789,-5.9099,-5.9099,-5.9099,-5.9099,-5.9099,-5.9099,-5.9099,-5.9099,-5.9099,-5.9099,-5.9099,-5.9099,-5.9099,-5.9099,-5.868,-5.8351,-5.8141,-5.7064,-5.6428,-5.6218,-5.5019,-5.4436,-5.4304,-5.3867,-5.3553,-5.35,-5.35,-5.35,0.0,-5.6021,-5.69,-5.7374,-5.7679,0.0,0.0,0.0,0.0,0.0,0.0,0.0,-5.5595,-5.4008,-5.3419,-5.5581,0.0,0.0,0.0,0.0,0.0,0.0,0.0,0.0,0.0,0.0,0.0,0.0,0.0,0.0,0.0,0.0,-6.8777,-6.8825,-6.891,-6.8895,-6.8781,-6.9204,-6.9301,-6.9156,-6.9574,-6.9798,-6.9798,0.0,0.0,0.0,0.0,0.0,0.0,-6.9798,-6.9798,-6.9751,-6.9301,-6.8732,-6.8021,-6.7618,-6.7002,-6.6375,-6.6375,-6.6186,-6.5965,-6.5965,-6.5592,-6.5204,-6.5603,-6.5166,-6.4473,-6.4028,-6.3894,-6.4035,-6.4669,-6.4852,-6.4499,-6.3212,-6.3388,-6.3436,-6.169,-6.1841,-6.2306,-6.2306,-6.1438,-6.0701,-6.0701,-5.9789,-5.9099,-5.9099,-5.9099,-5.9099,-5.9099,-5.9099,-5.9099,-5.9099,-5.9099,-5.9099,-5.9099,-5.9099,-5.9009,-5.874,-5.8351,-5.7902,-5.7393,-5.6615,-5.6047,-5.5654,-5.49,-5.4385,-5.4149,-5.371,-5.35,-5.35,-5.35,-5.35,0.0,-5.5477,0.0,0.0,0.0,0.0,0.0,0.0,0.0,0.0,0.0,0.0,0.0,0.0,0.0,0.0,0.0,0.0,0.0,0.0,0.0,0.0,0.0,0.0,0.0,0.0,0.0,0.0,0.0,0.0,0.0,0.0,0.0,-6.8606,-6.7236,-6.6543,-6.6638,-6.7668,-6.8254,-6.8254,-6.9301,-6.9798,-6.9798,0.0,0.0,0.0,0.0,0.0,0.0,-6.9798,-6.9798,-6.967,-6.8601,-6.8172,-6.7907,-6.6835,-6.6438,-6.6375,-6.6375,-6.5963,-6.5445,-6.5382,-6.5148,-6.5088,-6.6009,-6.5619,-6.4751,-6.415,-6.3988,-6.3988,-6.3988,-6.3988,-6.3988,-6.3894,-6.3941,-6.3673,-6.2632,-6.2404,-6.2404,-6.2404,-6.1489,-6.0701,-6.0701,-5.9789,-5.9153,-5.9207,-5.9207,-5.9261,-5.9315,-5.9261,-5.9207,-5.9207,-5.9123,-5.9039,-5.9039,-5.9039,-5.877,-5.8171,-5.8022,-5.7423,-5.6278,-5.6137,-5.5654,-5.4803,-5.4751,-5.4466,-5.3867,-5.3605,-5.35,-5.35,-5.35,-5.35,-5.2221,0.0,-5.5238,-5.5773,-5.6502,-5.6954,0.0,0.0,0.0,0.0,0.0,0.0,0.0,0.0,0.0,0.0,0.0,0.0,0.0,0.0,0.0,0.0,0.0,0.0,0.0,0.0,0.0,0.0,0.0,0.0,0.0,0.0,0.0,-6.7877,-6.7495,-6.7847,-6.8977,-6.9252,-6.943,-6.943,-6.967,-6.9798,-6.9798,0.0,0.0,0.0,0.0,0.0,-6.9798,-6.9798,-6.9798,-6.9798,-6.9526,-6.8503,-6.7245,-6.6946,-6.6492,-6.6009,-6.6009,-6.6485,-6.6962,-6.6406,-6.6152,-6.593,-6.4831,-6.4853,-6.5231,-6.5066,-6.5033,-6.5033,-6.5033,-6.5033,-6.4852,-6.4081,-6.4485,-6.4761,-6.372,-6.3531,-6.3531,-6.3531,-6.199,-6.0701,-6.0701,-5.9789,-5.9392,-6.018,-6.0337,-6.065,-6.1438,-6.0825,-6.0337,-6.0337,-5.9153,-5.8351,-5.8351,-5.8351,-5.8291,-5.8141,-5.7184,-5.6496,-5.6248,-5.5483,-5.5002,-5.4803,-5.4363,-5.3919,-5.3605,-5.35,-5.35,-5.35,-5.35,-5.35,-5.0461,-5.2224,-5.4594,-5.4533,-5.5658,-5.6569,-5.5632,0.0,0.0,0.0,0.0,0.0,0.0,0.0,0.0,0.0,0.0,0.0,0.0,0.0,0.0,0.0,0.0,0.0,0.0,0.0,0.0,0.0,0.0,0.0,0.0,0.0,0.0,0.0,-6.74,-6.8009,-6.8804,-6.8804,-6.8804,-6.8804,-6.8804,-6.8804,-6.8804,-6.8804,0.0,0.0,0.0,0.0,-6.8804,-6.8804,-6.8804,-6.8804,-6.8804,-6.8163,-6.7293,-6.7293,-6.7031,-6.6704,-6.6704,-6.6837,-6.6937,-6.6254,-6.6022,-6.5787,-6.4859,-6.4988,-6.5213,-6.4235,-6.436,-6.4715,-6.4715,-6.4715,-6.4715,-6.4623,-6.4988,-6.5213,-6.4715,-6.4623,-6.4453,-6.3988,-6.2955,-6.199,-6.1539,-6.0928,-6.0805,-6.1337,-6.1438,-6.1609,-6.2207,-6.179,-6.1313,-6.0951,-5.9645,-5.8668,-5.8365,-5.7625,-5.7244,-5.7244,-5.6555,-5.6047,-5.5718,-5.5236,-5.4824,-5.4568,-5.4023,-5.3658,-5.35,-5.35,-5.35,-5.35,-5.35,-5.35,-4.9147,-5.1301,-5.3939,-5.3045,-5.4491,-5.578,-5.4093,0.0,0.0,0.0,0.0,0.0,0.0,0.0,0.0,0.0,0.0,0.0,0.0,0.0,0.0,0.0,0.0,0.0,0.0,0.0,0.0,0.0,0.0,0.0,0.0,0.0,0.0,0.0,-6.6904,-6.7235,-6.7235,-6.7466,-6.7566,-6.7566,-6.7566,-6.7566,-6.7566,-6.7566,0.0,0.0,0.0,0.0,-6.7566,-6.7566,-6.7566,-6.7566,-6.7566,-6.7499,-6.74,-6.74,-6.7334,-6.7235,-6.7235,-6.6837,-6.6254,-6.5624,-6.5425,-6.5381,-6.5213,-6.5291,-6.4988,-6.3068,-6.334,-6.4128,-6.4128,-6.4128,-6.4314,-6.5168,-6.5425,-6.5425,-6.5425,-6.5291,-6.4897,-6.4081,-6.3753,-6.3388,-6.2485,-6.2306,-6.2386,-6.2534,-6.2534,-6.2568,-6.2619,-6.2441,-6.2041,-6.1133,-6.0061,-5.9081,-5.8327,-5.6909,-5.6017,-5.6017,-5.6017,-5.5777,-5.5158,-5.5158,-5.4875,-5.4252,-5.3815,-5.3553,-5.35,-5.35,-5.35,-5.35,-5.35,-5.35,-4.8738,-5.0026,-5.1884,-5.1176,-5.2236,-5.3269,-5.2692,0.0,0.0,0.0,0.0,0.0,0.0,0.0,0.0,0.0,0.0,0.0,0.0,0.0,0.0,0.0,0.0,0.0,0.0,0.0,0.0,0.0,0.0,0.0,0.0,0.0,0.0,0.0,0.0,-6.5757,-6.5757,-6.7016,-6.7566,-6.7566,-6.7566,-6.7566,-6.7566,-6.7566,-6.7566,0.0,0.0,-6.7566,-6.7566,-6.7566,-6.7566,-6.7566,-6.7566,-6.7202,-6.6684,-6.6684,-6.6287,-6.5757,-6.5757,-6.569,-6.5558,-6.5459,-6.5425,-6.5213,-6.436,-6.4715,-6.5168,-6.3988,-6.436,-6.5168,-6.5168,-6.5168,-6.5213,-6.5348,-6.5425,-6.5425,-6.5425,-6.4761,-6.4081,-6.3941,-6.3196,-6.2485,-6.2306,-6.2306,-6.2632,-6.3531,-6.3626,-6.3761,-6.3965,-6.3264,-6.2105,-6.0519,-5.8909,-5.7534,-5.6675,-5.582,-5.5329,-5.5329,-5.5329,-5.5197,-5.4905,-5.4854,-5.4568,-5.3942,-5.3919,-5.371,-5.35,-5.35,-5.35,-5.35,-5.35,-5.35,-4.8396,-4.879,-4.9764,-5.0163,-5.1797,-5.3355,0.0,0.0,0.0,0.0,0.0,0.0,0.0,0.0,0.0,0.0,0.0,0.0,0.0,0.0,0.0,0.0,0.0,0.0,0.0,0.0,0.0,0.0,0.0,0.0,0.0,0.0,0.0,0.0,0.0,0.0,-6.5425,-6.6088,-6.6419,-6.6419,-6.6419,-6.6419,-6.6419,-6.6419,-6.6419,-6.6419,0.0,-6.6419,-6.6419,-6.6419,-6.6419,-6.6419,-6.6419,-6.622,-6.5922,-6.5922,-6.5724,-6.5425,-6.5425,-6.5425,-6.5425,-6.5425,-6.5425,-6.5303,-6.4852,-6.5033,-6.5303,-6.4852,-6.5033,-6.5425,-6.5425,-6.5425,-6.5425,-6.5425,-6.5425,-6.5425,-6.5425,-6.5033,-6.4715,-6.4715,-6.4281,-6.4002,-6.4002,-6.4002,-6.4142,-6.4669,-6.4387,-6.4207,-6.4321,-6.3572,-6.2391,-6.0661,-5.9255,-5.7938,-5.6553,-5.5682,-5.5179,-5.5179,-5.5179,-5.5108,-5.4803,-5.4619,-5.4333,-5.3919,-5.3762,-5.3605,-5.35,-5.35,-5.35,-5.35,-5.35,-5.35,-4.8049,-4.8007,-4.8485,-4.9831,0.0,0.0,0.0,0.0,0.0,0.0,0.0,0.0,0.0,0.0,0.0,0.0,0.0,0.0,0.0,0.0,0.0,0.0,0.0,0.0,0.0,0.0,0.0,0.0,0.0,0.0,0.0,0.0,0.0,0.0,0.0,0.0,-6.5425,-6.5425,-6.5425,-6.5425,-6.5425,-6.5425,-6.5425,-6.5425,-6.5425,-6.5425,-6.5425,-6.5425,-6.5425,-6.5425,-6.5425,-6.5425,-6.5425,-6.5425,-6.5425,-6.5425,-6.5425,-6.5425,-6.5425,-6.5425,-6.5425,-6.5425,-6.5425,-6.5425,-6.5425,-6.5425,-6.5425,-6.5425,-6.5425,-6.5425,-6.5425,-6.5425,-6.5425,-6.5425,-6.5425,-6.5425,-6.5425,-6.5425,-6.5425,-6.5425,-6.5425,-6.5425,-6.5425,-6.5425,-6.5359,-6.5194,-6.473,-6.4233,-6.3868,-6.3338,-6.2288,-6.0315,-5.9416,-5.8217,-5.6409,-5.5601,-5.5179,-5.5179,-5.5128,-5.4976,-5.4803,-5.4487,-5.4149,-5.3919,-5.371,-5.3553,-5.35,-5.35,-5.35,-5.35,-5.35,-5.35,-4.7581,-4.7934,-4.8881,-5.0229,-5.024,0.0,-5.266,-5.2188,0.0,-5.2471,0.0,0.0,0.0,0.0,0.0,0.0,0.0,0.0,0.0,0.0,0.0,0.0,0.0,0.0,0.0,0.0,0.0,0.0,0.0,0.0,0.0,0.0,0.0,0.0,0.0,0.0,-6.5425,-6.5425,-6.5425,-6.5425,-6.5425,-6.5425,-6.5425,-6.5425,-6.5425,-6.5425,-6.5425,-6.5425,-6.5425,-6.5425,-6.5425,-6.5425,-6.5425,-6.5425,-6.5425,-6.5425,-6.5425,-6.5425,-6.5425,-6.5425,-6.5425,-6.5425,-6.5425,-6.5425,-6.5425,-6.5425,-6.5425,-6.5425,-6.5425,-6.5425,-6.5425,-6.5425,-6.5425,-6.5425,-6.5425,-6.5425,-6.5425,-6.5425,-6.5425,-6.5425,-6.5425,-6.5425,-6.5425,-6.5425,-6.5194,-6.4564,-6.4399,-6.3868,-6.2553,-6.2321,-6.124,-5.8564,-5.8226,-5.7386,-5.5451,-5.5229,-5.5179,-5.5179,-5.4955,-5.4803,-5.4803,-5.4487,-5.4149,-5.3919,-5.3919,-5.3762,-5.35,-5.35,-5.35,-5.35,-5.35,-5.35,-4.7396,-4.7934,-4.8923,-5.0248,-5.0401,0.0,0.0,-5.2821,-5.2154,-5.2516,-5.229,0.0,0.0,0.0,0.0,0.0,0.0,0.0,0.0,0.0,0.0,0.0,0.0,0.0,0.0,0.0,0.0,0.0,0.0,0.0,0.0,0.0,0.0,0.0,0.0,0.0,0.0,-6.5425,-6.5425,-6.5425,-6.5425,-6.5425,-6.5425,-6.5425,-6.5425,-6.5425,-6.5425,-6.5425,-6.5425,-6.5425,-6.5425,-6.5425,-6.5425,-6.5425,-6.5425,-6.5425,-6.5425,-6.5425,-6.5425,-6.5425,-6.5425,-6.5425,-6.5425,-6.5425,-6.5425,-6.5425,-6.5425,-6.5425,-6.5425,-6.5425,-6.5425,-6.5425,-6.5425,-6.5425,-6.5425,-6.5425,-6.5425,-6.5425,-6.5425,-6.5425,-6.5425,-6.5425,-6.5425,-6.5061,-6.4664,-6.4432,-6.3647,-6.2851,-6.2288,-6.1781,-6.0886,-5.9222,-5.7932,-5.6879,-5.6134,-5.5551,-5.5179,-5.5179,-5.5078,-5.5006,-5.4803,-5.4487,-5.4149,-5.3919,-5.3762,-5.3605,-5.35,-5.35,-5.35,-5.35,-5.35,-5.35,-4.7396,-4.8086,-4.9116,-4.9996,0.0,0.0,-5.2683,-5.2874,-5.2606,-5.2606,-5.2336,0.0,0.0,0.0,0.0,0.0,0.0,0.0,0.0,0.0,0.0,0.0,0.0,0.0,0.0,0.0,0.0,0.0,0.0,0.0,0.0,0.0,0.0,0.0,0.0,0.0,0.0,-6.5094,-6.5194,-6.5425,-6.5425,-6.5425,-6.5425,-6.5425,-6.5425,-6.5425,-6.5425,-6.5425,-6.5425,-6.5425,-6.5425,-6.5425,-6.5425,-6.5425,-6.5425,-6.5425,-6.5425,-6.5425,-6.5425,-6.5425,-6.5425,-6.5425,-6.5425,-6.5425,-6.5425,-6.5425,-6.5425,-6.5425,-6.5425,-6.5425,-6.5425,-6.5425,-6.5425,-6.5425,-6.5425,-6.5425,-6.5425,-6.5425,-6.5425,-6.5425,-6.5227,-6.5094,-6.5094,-6.4498,-6.3935,-6.3746,-6.2851,-6.2122,-6.1848,-6.1417,-6.0591,-5.9278,-5.7606,-5.6493,-5.6183,-5.5551,-5.5179,-5.5179,-5.5179,-5.5027,-5.4671,-5.4333,-5.4045,-5.3762,-5.3605,-5.35,-5.35,-5.35,-5.35,-5.35,-5.35,-5.35,-4.7538,-4.8377,-4.9488,0.0,0.0,0.0,-5.1079,-5.1911,-5.2606,-5.2606,0.0,-5.1229,0.0,0.0,0.0,0.0,0.0,0.0,0.0,0.0,0.0,0.0,0.0,0.0,0.0,0.0,0.0,0.0,0.0,0.0,0.0,0.0,0.0,0.0,0.0,0.0,0.0,-6.4365,-6.473,-6.5392,-6.5392,-6.5392,-6.5425,-6.5425,-6.5425,-6.5425,-6.5425,-6.5425,-6.5425,-6.5425,-6.5425,-6.5425,-6.5425,-6.5425,-6.5425,-6.5425,-6.5425,-6.5425,-6.5425,-6.5425,-6.5425,-6.5425,-6.5425,-6.5425,-6.5425,-6.5425,-6.5425,-6.5425,-6.5425,-6.5425,-6.5425,-6.5425,-6.5425,-6.5425,-6.5425,-6.5425,-6.5425,-6.5392,-6.5392,-6.5392,-6.4829,-6.4365,-6.4365,-6.3813,-6.305,-6.2321,-6.2221,-6.1956,-6.1185,-6.1119,-6.0302,-5.8346,-5.7229,-5.6232,-5.528,-5.5179,-5.5179,-5.5179,-5.5179,-5.4926,-5.4355,-5.4045,-5.3762,-5.35,-5.35,-5.35,-5.35,-5.35,-5.35,-5.35,-5.35,-5.35,-4.7396,-4.8856,0.0,0.0,0.0,0.0,0.0,-5.1911,0.0,0.0,0.0,0.0,0.0,0.0,0.0,0.0,0.0,0.0,0.0,0.0,0.0,0.0,0.0,0.0,0.0,0.0,0.0,0.0,0.0,0.0,0.0,0.0,0.0,0.0,0.0,0.0,0.0,0.0,-6.3703,-6.3902,-6.3902,-6.4432,-6.5425,-6.5425,-6.5425,-6.5425,-6.5425,-6.5425,-6.5425,-6.5425,-6.5425,-6.5425,-6.5425,-6.5425,-6.5425,-6.5425,-6.5425,-6.5425,-6.5425,-6.5425,-6.5425,-6.5425,-6.5425,-6.5425,-6.5425,-6.5425,-6.5425,-6.5425,-6.5425,-6.5425,-6.5425,-6.5425,-6.5425,-6.5425,-6.5425,-6.5425,-6.5425,-6.5028,-6.4664,-6.4664,-6.4067,-6.3647,-6.3647,-6.3017,-6.2453,-6.2255,-6.1748,-6.1351,-6.1152,-6.0506,-5.9838,-5.9234,-5.7606,-5.6493,-5.6232,-5.5601,-5.5179,-5.5179,-5.5027,-5.4926,-5.4926,-5.4487,-5.4149,-5.4045,-5.371,-5.35,-5.35,-5.35,-5.35,-5.35,-5.35,-5.35,-4.8282,0.0,0.0,0.0,0.0,0.0,0.0,0.0,0.0,0.0,0.0,0.0,0.0,0.0,0.0,0.0,0.0,0.0,0.0,0.0,0.0,0.0,0.0,0.0,0.0,0.0,0.0,0.0,0.0,0.0,0.0,0.0,0.0,0.0,0.0,0.0,0.0,-6.2884,-6.3017,-6.3315,-6.3315,-6.3736,-6.4564,-6.4564,-6.4564,-6.4564,-6.4564,-6.4564,-6.4564,-6.4564,-6.473,-6.4995,-6.4995,-6.516,-6.5425,-6.5425,-6.5425,-6.5425,-6.5425,-6.5425,-6.5425,-6.5425,-6.5425,-6.5425,-6.5425,-6.5425,-6.5425,-6.5425,-6.5425,-6.5359,-6.5061,-6.4995,-6.5061,-6.5359,-6.5194,-6.4962,-6.4962,-6.4432,-6.3935,-6.3902,-6.3338,-6.2884,-6.2884,-6.2255,-6.1748,-6.1748,-6.1384,-6.1119,-6.1119,-6.0591,-5.9881,-5.9068,-5.7932,-5.6879,-5.6085,-5.5501,-5.5179,-5.5179,-5.5057,-5.5057,-5.5179,-5.4539,-5.4149,-5.4149,-5.371,-5.35,-5.35,-5.35,-5.35,-5.35,-5.35,-5.35,0.0,0.0,0.0,0.0,0.0,0.0,0.0,0.0,0.0,0.0,0.0,0.0,0.0,0.0,0.0,0.0,0.0,0.0,0.0,0.0,0.0,0.0,0.0,0.0,0.0,0.0,0.0,0.0,0.0,0.0,0.0,0.0,0.0,0.0,0.0,0.0,0.0,-6.2122,-6.2453,0.0,-6.3116,-6.3116,-6.3116,-6.3249,-6.3315,-6.3315,-6.3315,-6.3315,-6.3315,-6.3315,-6.3713,-6.4266,-6.4233,-6.463,-6.5227,-6.5227,-6.5227,-6.5227,-6.5227,-6.5227,-6.5227,-6.5227,-6.5227,-6.5227,-6.5227,-6.5227,-6.5227,-6.5227,-6.5227,-6.5061,-6.4432,-6.4266,-6.4432,-6.5061,-6.4697,-6.4233,-6.4233,-6.367,-6.3216,-6.3216,-6.2619,-6.2122,-6.2122,-6.155,-6.1119,-6.1119,-6.1119,-6.1119,-6.1119,-6.1002,-6.0259,-5.8437,-5.8039,-5.7229,-5.5481,-5.5229,-5.5179,-5.5179,-5.5179,-5.5179,-5.5179,-5.4436,-5.3971,-5.3971,-5.371,-5.3553,-5.3553,-5.35,-5.35,-5.35,-5.35,-5.35,0.0,0.0,0.0,0.0,0.0,0.0,0.0,0.0,0.0,0.0,0.0,0.0,0.0,0.0,0.0,0.0,0.0,0.0,0.0,0.0,0.0,0.0,0.0,0.0,0.0,0.0,0.0,0.0,0.0,0.0,0.0,0.0,0.0,0.0,0.0,0.0,-6.1351,-6.1351,-6.1417,0.0,-6.1583,-6.1583,-6.1616,-6.2742,-6.3315,-6.3315,-6.3315,-6.3315,-6.3315,-6.3315,-6.3415,-6.3547,-6.3504,-6.3603,-6.3736,-6.3736,-6.3736,-6.3736,-6.3736,-6.3736,-6.3736,-6.3736,-6.3736,-6.3736,-6.3736,-6.3736,-6.3736,-6.3736,-6.3736,-6.3703,-6.3537,-6.3547,-6.3537,-6.3703,-6.3603,-6.3504,-6.3504,-6.2984,-6.2453,-6.2453,-6.1815,-6.1351,-6.1351,-6.1218,-6.1119,-6.1119,-6.1119,-6.1119,-6.1119,-6.0388,-5.9751,-5.9323,-5.7885,-5.6735,-5.6329,-5.5651,-5.5179,-5.5179,-5.5006,-5.5006,-5.5179,-5.4824,-5.4619,-5.4619,-5.4075,-5.3815,-5.3815,-5.3605,-5.35,-5.35,-5.35,-5.35,0.0,0.0,0.0,0.0,0.0,0.0,0.0,0.0,0.0,0.0,0.0,0.0,0.0,0.0,0.0,0.0,0.0,0.0,0.0,0.0,0.0,0.0,0.0,0.0,0.0,0.0,0.0,0.0,0.0,0.0,0.0,0.0,0.0,0.0,0.0,-6.1119,-6.1119,-6.1119,-6.1119,-6.1119,-6.1119,-6.1119,-6.1152,-6.1881,-6.2245,-6.2245,-6.2245,-6.2245,-6.2245,-6.2245,-6.2444,-6.2785,-6.2785,-6.3017,-6.3315,-6.3315,-6.3315,-6.3315,-6.3315,-6.3315,-6.3315,-6.3315,-6.3315,-6.3315,-6.3315,-6.3315,-6.3315,-6.3315,-6.3315,-6.3249,-6.2884,-6.2785,-6.2643,-6.2312,-6.251,-6.2785,-6.2785,-6.2179,-6.1649,-6.1649,-6.1351,-6.1119,-6.1119,-6.1119,-6.1119,-6.1119,-6.1119,-6.0919,-6.043,-5.9925,-5.9234,-5.8254,-5.7229,-5.6396,-5.5967,-5.5451,-5.5179,-5.5179,-5.5078,-5.5006,-5.5006,-5.4854,-5.4722,-5.4539,-5.3971,-5.371,-5.371,-5.3553,-5.35,-5.35,-5.35,-5.35,0.0,0.0,0.0,0.0,0.0,0.0,0.0,0.0,0.0,0.0,0.0,0.0,0.0,0.0,0.0,0.0,0.0,0.0,0.0,0.0,0.0,0.0,0.0,0.0,0.0,0.0,0.0,0.0,0.0,0.0,0.0,0.0,0.0,0.0,0.0,-6.1119,-6.1119,-6.1119,-6.1119,-6.1119,-6.1119,-6.1119,-6.1119,-6.1119,-6.1119,-6.1119,-6.1119,-6.1119,-6.1119,-6.1119,-6.145,-6.2022,-6.2022,-6.2387,-6.2908,-6.2908,-6.2908,-6.2908,-6.2908,-6.2908,-6.2908,-6.2908,-6.2908,-6.2908,-6.2908,-6.2908,-6.2908,-6.2908,-6.2908,-6.2775,-6.2188,-6.2022,-6.1848,-6.1251,-6.155,-6.2022,-6.2022,-6.1516,-6.1119,-6.1119,-6.1119,-6.1119,-6.1119,-6.1119,-6.1119,-6.1119,-6.0961,-6.0548,-5.9707,-5.9455,-5.8709,-5.7039,-5.6686,-5.628,-5.5501,-5.528,-5.5179,-5.5179,-5.5179,-5.5108,-5.4803,-5.4722,-5.4568,-5.4252,-5.3815,-5.3553,-5.3553,-5.35,-5.35,-5.35,-5.35,-5.35,0.0,0.0,0.0,0.0,0.0,0.0,0.0,0.0,0.0,0.0,0.0,0.0,0.0,0.0,0.0,0.0,0.0,0.0,0.0,0.0,0.0,0.0,0.0,0.0,0.0,0.0,0.0,0.0,0.0,0.0,0.0,0.0,-6.1119,-6.1119,-6.1119,-6.1119,-6.1119,-6.1119,-6.1119,-6.1119,-6.1119,-6.1119,-6.1119,-6.1119,-6.1119,-6.1119,-6.1119,-6.1119,-6.1119,-6.1119,-6.1152,-6.1251,-6.1251,-6.1318,-6.1384,-6.1384,-6.1384,-6.1384,-6.1384,-6.1384,-6.1384,-6.1384,-6.1384,-6.1384,-6.1384,-6.1384,-6.1384,-6.1384,-6.1384,-6.1384,-6.1285,-6.1251,-6.1218,-6.1119,-6.1185,-6.1251,-6.1251,-6.1185,-6.1119,-6.1119,-6.1119,-6.1119,-6.1119,-6.1119,-6.1119,-6.1119,-6.0345,-5.9751,-5.9619,-5.8844,-5.8177,-5.79,-5.7134,-5.6541,-5.6396,-5.57,-5.5179,-5.5179,-5.5179,-5.5108,-5.4803,-5.4539,-5.4252,-5.3971,-5.3919,-5.3867,-5.3867,-5.3605,-5.35,-5.35,-5.35,-5.35,0.0,0.0,0.0,0.0,0.0,0.0,0.0,0.0,0.0,0.0,0.0,0.0,0.0,0.0,0.0,0.0,0.0,0.0,0.0,0.0,0.0,0.0,0.0,0.0,0.0,0.0,0.0,0.0,0.0,0.0,0.0,-6.0887,-6.1119,-6.1119,-6.1119,0.0,-6.1119,-6.1119,-6.1119,-6.1119,-6.1119,-6.1119,-6.1119,-6.1119,-6.1119,-6.1119,-6.1119,-6.1119,-6.1119,-6.1119,-6.1119,-6.1119,-6.1119,-6.1119,-6.1119,-6.1119,-6.1119,-6.1119,-6.1119,-6.1119,-6.1119,-6.1119,-6.1119,-6.1119,-6.1119,-6.1119,-6.1119,-6.1119,-6.1119,-6.1119,-6.1119,-6.1119,-6.1119,-6.1119,-6.1119,-6.1119,-6.1119,-6.1119,-6.1119,-6.1119,-6.1119,-6.1119,-6.1119,-6.1119,-6.1119,-6.1119,-6.0717,-6.0011,-5.8889,-5.8391,-5.7854,-5.7323,-5.6427,-5.6017,-5.6541,-5.572,-5.5179,-5.5179,-5.5179,-5.5108,-5.4803,-5.4487,-5.4149,-5.3919,-5.3762,-5.3658,-5.3658,-5.3553,-5.35,-5.35,-5.35,-5.35,0.0,0.0,0.0,0.0,0.0,0.0,0.0,0.0,0.0,0.0,0.0,0.0,0.0,0.0,0.0,0.0,0.0,0.0,0.0,0.0,0.0,0.0,0.0,0.0,0.0,0.0,0.0,0.0,0.0,0.0,-5.9728,-6.0258,-6.0556,-6.0556,-6.0556,-6.0622,-6.0821,-6.102,-6.1119,-6.1119,-6.1119,-6.1119,-6.1119,-6.1119,-6.1119,-6.1119,-6.1119,-6.1119,-6.1119,-6.1119,-6.1119,-6.1119,-6.1119,-6.1119,-6.1119,-6.1119,-6.1119,-6.1119,-6.1119,-6.1119,-6.1119,-6.1119,-6.1119,-6.1119,-6.1119,-6.1119,-6.1119,-6.1119,-6.1119,-6.1119,-6.1119,-6.1119,-6.1119,-6.1119,-6.1119,-6.1119,-6.1119,-6.1119,-6.1119,-6.1119,-6.1119,-6.1119,-6.1119,-6.1119,-6.1119,-6.1119,-6.0877,-6.0173,-5.8664,-5.8223,-5.7807,-5.7039,-5.6378,-5.6232,-5.6896,-5.6329,-5.5918,-5.5918,-5.5918,-5.567,-5.52,-5.4917,-5.4531,-5.3993,-5.3762,-5.3553,-5.35,-5.35,-5.35,-5.35,-5.35,-5.35,0.0,0.0,0.0,0.0,0.0,0.0,0.0,0.0,0.0,0.0,0.0,0.0,0.0,0.0,0.0,0.0,0.0,0.0,0.0,0.0,0.0,0.0,0.0,0.0,0.0,0.0,0.0,0.0,0.0,0.0,-5.8966,-5.8999,-5.8999,-5.8999,-5.8999,-5.9363,-6.0059,-6.0755,-6.1119,-6.1119,-6.1119,-6.1119,-6.1119,-6.1119,-6.1119,-6.1119,-6.1119,-6.1119,-6.1119,-6.1119,-6.1119,-6.1119,-6.1119,-6.1119,-6.1119,-6.1119,-6.1119,-6.1119,-6.1119,-6.1119,-6.1119,-6.1119,-6.1119,-6.1119,-6.1119,-6.1119,-6.1119,-6.1119,-6.1119,-6.1119,-6.1119,-6.1119,-6.1119,-6.1119,-6.1119,-6.1119,-6.1119,-6.1119,-6.1119,-6.1119,-6.1119,-6.1119,-6.1119,-6.1119,-6.1119,-6.1119,-6.0302,-5.9663,-5.9543,-5.8709,-5.8085,-5.8039,-5.7946,-5.7946,-5.7993,-5.7946,-5.7946,-5.7946,-5.7946,-5.7386,-5.617,-5.6091,-5.553,-5.4304,-5.4023,-5.3762,-5.35,-5.35,-5.35,-5.35,-5.35,-5.35,0.0,0.0,0.0,0.0,0.0,0.0,0.0,0.0,0.0,0.0,0.0,0.0,0.0,0.0,0.0,0.0,0.0,0.0,0.0,0.0,0.0,0.0,0.0,0.0,0.0,0.0,0.0,0.0,0.0,0.0,-5.8171,-5.8634,-5.8899,-5.8899,-5.8899,-5.9032,-5.9297,-5.9562,-5.9694,-5.9694,-5.9694,-5.9694,-5.9694,-6.0191,-6.039,-6.0423,-6.0887,-6.1119,-6.1119,-6.1119,-6.1119,-6.1119,-6.1119,-6.1119,-6.1119,-6.1119,-6.1119,-6.1119,-6.1119,-6.1119,-6.1119,-6.1119,-6.1119,-6.1119,-6.1119,-6.1119,-6.1119,-6.1119,-6.1119,-6.1119,-6.1119,-6.1119,-6.1119,-6.1119,-6.1119,-6.1119,-6.1119,-6.1119,-6.1119,-6.1119,-6.1119,-6.1119,-6.1119,-6.1119,-6.1119,-6.1119,-6.0793,-6.0302,-5.9707,-5.9278,-5.9068,-5.9068,-5.8483,-5.836,-5.8979,-5.8483,-5.7807,-5.7181,-5.7134,-5.659,-5.5371,-5.5089,-5.4684,-5.4045,-5.3762,-5.3658,-5.3762,-5.3553,-5.35,-5.35,-5.35,-5.35,-4.9404,0.0,0.0,0.0,0.0,0.0,0.0,0.0,0.0,0.0,0.0,0.0,0.0,0.0,0.0,0.0,0.0,0.0,0.0,0.0,0.0,0.0,0.0,0.0,0.0,0.0,0.0,0.0,0.0,0.0,-5.7409,-5.7906,-5.8171,-5.8171,-5.8403,-5.8535,-5.8535,-5.8767,-5.8899,-5.8899,-5.8899,-5.8899,-5.8933,-5.9396,-5.9628,-5.9661,-6.0158,-6.0655,-6.1119,-6.1119,-6.1119,-6.1119,-6.1119,-6.1119,-6.1119,-6.1119,-6.1119,-6.1119,-6.1119,-6.1119,-6.1119,-6.1119,-6.1119,-6.1119,-6.1119,-6.1119,-6.1119,-6.1119,-6.1119,-6.1119,-6.1119,-6.1119,-6.1119,-6.1119,-6.1119,-6.1119,-6.1119,-6.1119,-6.1119,-6.1119,-6.1119,-6.1119,-6.1119,-6.1119,-6.1119,-6.1119,-6.1119,-6.0877,-6.0216,-6.013,-6.013,-6.013,-5.9499,-5.9367,-6.0054,-5.9189,-5.8346,-5.7652,-5.7229,-5.6445,-5.532,-5.4988,-5.4582,-5.4045,-5.3762,-5.371,-5.3919,-5.3605,-5.35,-5.35,-5.35,-5.3384,0.0,0.0,0.0,0.0,0.0,0.0,0.0,0.0,0.0,0.0,0.0,0.0,0.0,0.0,0.0,0.0,0.0,0.0,0.0,0.0,0.0,0.0,0.0,0.0,0.0,0.0,0.0,0.0,0.0,-5.668,-5.668,-5.668,-5.668,-5.668,-5.7376,-5.7773,-5.7773,-5.8469,-5.8833,-5.8833,-5.8833,-5.8833,-5.8833,-5.8866,-5.8866,-5.8866,-5.8899,-5.9728,-6.1053,-6.1053,-6.1053,-6.1086,-6.1086,-6.1086,-6.1119,-6.1119,-6.1119,-6.1119,-6.1119,-6.1119,-6.1119,-6.1119,-6.1119,-6.1119,-6.1119,-6.1119,-6.1119,-6.1119,-6.1119,-6.1119,-6.1119,-6.1119,-6.1119,-6.1119,-6.1119,-6.1119,-6.1119,-6.1119,-6.1119,-6.1119,-6.1119,-6.1119,-6.1119,-6.1119,-6.1119,-6.1119,-6.1119,-6.1119,-6.1119,-6.1119,-6.1119,-6.1119,-6.1077,-6.1077,-6.1119,-6.0173,-5.9587,-5.9543,-5.8405,-5.7245,-5.6189,-5.5895,-5.528,-5.4304,-5.4045,-5.389,-5.389,-5.3605,-5.35,-5.35,-5.35,-5.3152,-5.0136,0.0,0.0,0.0,0.0,0.0,0.0,0.0,0.0,0.0,0.0,0.0,0.0,0.0,0.0,0.0,0.0,0.0,0.0,0.0,0.0,0.0,0.0,0.0,0.0,0.0,0.0,0.0,0.0,-5.668,-5.668,-5.668,-5.668,-5.668,-5.6879,-5.6978,-5.6978,-5.721,-5.7309,-5.7309,-5.7309,-5.7309,-5.7309,-5.7839,-5.8104,-5.8138,-5.8668,-5.9131,-5.9496,-5.9496,-5.9827,-6.0291,-6.0291,-6.0622,-6.1119,-6.1119,-6.1119,-6.1119,-6.1119,-6.1119,-6.1119,-6.1119,-6.1119,-6.1119,-6.1119,-6.1119,-6.1119,-6.1119,-6.1119,-6.1119,-6.1119,-6.1119,-6.1119,-6.1119,-6.1119,-6.1119,-6.1119,-6.1119,-6.1119,-6.1119,-6.1119,-6.1119,-6.1119,-6.1119,-6.1119,-6.1119,-6.1119,-6.1119,-6.1119,-6.1119,-6.1119,-6.1119,-6.0463,-6.0302,-6.1044,-6.0173,-5.9278,-5.8573,-5.8177,-5.7134,-5.53,-5.5099,-5.4743,-5.3993,-5.3942,-5.3581,-5.2988,-5.335,-5.35,-5.35,-5.3036,-5.2484,-5.0614,-5.0883,-5.1229,0.0,0.0,0.0,0.0,0.0,0.0,0.0,0.0,0.0,0.0,0.0,0.0,0.0,0.0,0.0,0.0,0.0,0.0,0.0,0.0,0.0,0.0,0.0,0.0,0.0,-5.668,-5.668,-5.668,-5.668,-5.668,-5.668,-5.668,-5.668,-5.668,-5.668,-5.668,-5.668,-5.668,-5.668,-5.6713,-5.7144,-5.7342,-5.7342,-5.7806,-5.7972,-5.7972,-5.7972,-5.8601,-5.9529,-5.9529,-5.9794,-6.0191,-6.0191,-6.039,-6.0655,-6.0655,-6.0854,-6.1119,-6.1119,-6.1119,-6.1119,-6.1119,-6.1119,-6.1119,-6.1119,-6.1119,-6.1119,-6.1119,-6.1119,-6.1119,-6.1119,-6.1119,-6.1119,-6.1119,-6.1119,-6.1119,-6.1119,-6.1119,-6.1119,-6.1119,-6.1119,-6.1119,-6.1119,-6.1119,-6.1119,-6.1119,-6.1119,-6.1119,-6.1119,-6.0591,-6.0463,-6.1077,-6.0173,-5.9189,-5.8131,-5.7621,-5.6559,-5.4905,-5.4671,-5.4318,-5.3693,-5.3561,-5.3062,-5.2165,-5.2804,-5.2978,-5.2717,-5.2339,-5.1846,-5.1229,-5.1229,-5.1229,-5.1229,0.0,0.0,-5.2245,-5.2426,0.0,0.0,0.0,0.0,0.0,0.0,0.0,0.0,0.0,0.0,0.0,0.0,0.0,0.0,0.0,0.0,0.0,0.0,0.0,-5.668,-5.668,-5.668,-5.668,-5.668,-5.668,-5.668,-5.668,-5.668,-5.668,-5.668,-5.668,-5.668,-5.668,-5.668,-5.668,-5.668,-5.668,-5.668,-5.668,-5.668,-5.668,-5.668,-5.7508,-5.8767,-5.8767,-5.8833,-5.8899,-5.8899,-5.9297,-5.9893,-5.9893,-6.0324,-6.0854,-6.0854,-6.092,-6.0986,-6.0986,-6.1053,-6.1119,-6.1119,-6.1119,-6.1119,-6.1119,-6.1119,-6.1119,-6.1119,-6.1119,-6.1119,-6.1119,-6.1119,-6.1119,-6.1119,-6.1119,-6.1119,-6.1119,-6.1119,-6.1119,-6.1119,-6.1119,-6.1119,-6.1119,-6.1119,-6.1119,-6.1119,-6.1002,-6.0961,-6.1119,-6.0087,-5.8992,-5.8036,-5.6836,-5.5687,-5.4666,-5.4331,-5.3934,-5.3352,-5.296,-5.2362,-5.1527,-5.2165,-5.2136,-5.1527,-5.1527,-5.1178,-5.1229,-5.1229,-5.1229,0.0,0.0,0.0,-5.1433,-5.1479,0.0,0.0,0.0,0.0,0.0,0.0,0.0,0.0,0.0,0.0,0.0,0.0,0.0,0.0,0.0,0.0,0.0,0.0,-5.668,-5.668,-5.668,-5.668,-5.668,-5.668,-5.668,-5.668,-5.668,-5.668,-5.668,-5.668,-5.668,-5.668,-5.668,-5.668,-5.668,-5.668,-5.668,-5.668,-5.668,-5.668,-5.668,-5.668,-5.721,-5.8005,-5.8005,-5.8369,-5.8899,-5.8899,-5.8999,-5.9098,-5.9098,-5.9198,-5.933,-5.933,-5.9728,-6.0225,-6.0225,-6.0622,-6.1119,-6.1119,-6.1119,-6.1119,-6.1119,-6.1119,-6.1119,-6.1119,-6.1119,-6.1119,-6.1119,-6.1119,-6.1119,-6.1119,-6.1119,-6.1119,-6.1119,-6.1119,-6.1119,-6.1119,-6.1119,-6.1119,-6.1119,-6.1119,-6.1119,-6.1119,-6.0345,-6.0216,-6.1002,-5.9455,-5.8092,-5.734,-5.6373,-5.5114,-5.3593,-5.3465,-5.3258,-5.2892,-5.1944,-5.1225,-5.0859,-5.1497,-5.1468,-5.0859,-5.0859,-5.0511,0.0,0.0,0.0,-5.1229,0.0,0.0,0.0,-5.1911,0.0,0.0,0.0,0.0,0.0,0.0,0.0,0.0,0.0,0.0,0.0,0.0,0.0,0.0,0.0,0.0,0.0,0.0,-5.668,-5.668,-5.668,-5.668,-5.668,-5.668,-5.668,-5.668,-5.668,-5.668,-5.668,-5.668,-5.668,-5.668,-5.668,-5.668,-5.668,-5.668,-5.668,-5.668,-5.668,-5.668,-5.668,-5.668,-5.6912,-5.7243,-5.7243,-5.7475,-5.7806,-5.7806,-5.8038,-5.8336,-5.8336,-5.8601,-5.8899,-5.8899,-5.9164,-5.9463,-5.9463,-5.9728,-5.9993,-5.9993,-5.9993,-5.9993,-5.9993,-6.0291,-6.0556,-6.0556,-6.0854,-6.1119,-6.1119,-6.1119,-6.1119,-6.1119,-6.0821,-6.0688,-6.1053,-6.1119,-6.1119,-6.1119,-6.1119,-6.1119,-6.1119,-6.1119,-6.0787,-5.9938,-5.9404,-5.8983,-5.8702,-5.7732,-5.6811,-5.5965,-5.5457,-5.4582,-5.3253,-5.3174,-5.2927,-5.2307,-5.1297,-5.0632,-5.0388,-5.056,-5.0481,-5.0211,-5.0211,-4.9988,0.0,0.0,0.0,0.0,0.0,-5.1386,0.0,0.0,0.0,0.0,0.0,0.0,0.0,0.0,0.0,0.0,0.0,0.0,0.0,0.0,0.0,0.0,0.0,0.0,0.0,0.0,-5.668,-5.668,-5.668,-5.668,-5.668,-5.668,-5.668,-5.668,-5.668,-5.668,-5.668,-5.668,-5.668,-5.668,-5.668,-5.668,-5.668,-5.668,-5.668,-5.668,-5.668,-5.668,-5.668,-5.668,-5.668,-5.668,-5.668,-5.668,-5.668,-5.668,-5.7077,-5.7574,-5.7574,-5.7972,-5.8469,-5.8469,-5.8568,-5.8701,-5.8866,-5.8899,-5.8899,-5.8899,-5.8899,-5.8899,-5.8899,-5.933,-5.9794,-5.9794,-6.0258,-6.0688,-6.0688,-6.0688,-6.0688,-6.0688,-6.0191,-6.0026,-6.0755,-6.0788,-6.0688,-6.0688,-6.0489,-6.0448,-6.0647,-6.0489,-5.9933,-5.8763,-5.8528,-5.7883,-5.6567,-5.6138,-5.5538,-5.4592,-5.4313,-5.3783,-5.2863,-5.2785,-5.2401,-5.1654,-5.091,-5.0357,-5.0086,-4.9815,-4.9717,-4.9717,-4.9717,-4.9717,0.0,0.0,0.0,0.0,-5.1229,0.0,0.0,0.0,0.0,0.0,0.0,0.0,0.0,0.0,0.0,0.0,0.0,0.0,0.0,0.0,0.0,0.0,0.0,0.0,0.0,0.0,0.0,-5.668,-5.668,-5.668,-5.668,-5.668,-5.668,-5.668,-5.668,-5.668,-5.668,-5.668,-5.668,-5.668,-5.668,-5.668,-5.668,-5.668,-5.668,-5.668,-5.668,-5.668,-5.668,-5.668,-5.668,-5.668,-5.668,-5.668,-5.668,-5.668,-5.6746,-5.6812,-5.6812,-5.6879,-5.6945,-5.6945,-5.7376,-5.8038,-5.8701,-5.8899,-5.8899,-5.8899,-5.8899,-5.8899,-5.8899,-5.8966,-5.9032,-5.9032,-5.9098,-5.9164,-5.9164,-5.9164,-5.9164,-5.9164,-5.9065,-5.9264,-5.9993,-5.9595,-5.9164,-5.9164,-5.8412,-5.8204,-5.9051,-5.8412,-5.8172,-5.8797,-5.8115,-5.7547,-5.7397,-5.5839,-5.4545,-5.3867,-5.2987,-5.218,-5.1468,-5.1439,-5.1267,-5.0911,-5.0644,-5.0357,-5.0086,-4.9815,-4.9717,-4.9717,-4.9717,-4.9717,0.0,0.0,0.0,0.0,0.0,0.0,-5.1229,0.0,-5.1229,0.0,0.0,0.0,0.0,0.0,0.0,0.0,0.0,0.0,0.0,0.0,0.0,0.0,0.0,0.0,0.0,0.0,0.0,0.0,0.0,-5.668,-5.668,-5.668,-5.668,-5.668,-5.668,-5.668,-5.668,-5.668,-5.668,-5.668,-5.668,-5.668,-5.668,-5.668,-5.668,-5.668,-5.668,-5.668,-5.668,-5.668,-5.668,-5.668,-5.668,-5.668,-5.668,-5.668,-5.668,-5.668,-5.668,-5.668,-5.668,-5.668,-5.6912,-5.721,-5.7508,-5.7608,-5.7608,-5.7608,-5.7608,-5.7608,-5.7608,-5.7939,-5.8237,-5.8237,-5.8601,-5.8899,-5.8899,-5.8899,-5.8899,-5.8899,-5.8535,-5.8369,-5.8668,-5.8833,-5.8899,-5.8899,-5.8584,-5.8429,-5.8859,-5.8543,-5.8101,-5.7511,-5.6624,-5.5739,-5.4731,-5.3468,-5.2546,-5.2274,-5.1854,-5.1498,-5.1229,-5.1229,-5.1152,-5.1011,-5.0662,-5.0453,-5.0357,-4.9941,-4.9717,-4.9717,-4.9717,-4.9717,-5.1229,0.0,0.0,0.0,0.0,0.0,0.0,0.0,0.0,0.0,0.0,0.0,0.0,0.0,-5.1229,-5.1229,0.0,0.0,0.0,0.0,0.0,0.0,0.0,0.0,0.0,0.0,0.0,0.0,-5.668,0.0,-5.668,-5.668,-5.668,-5.668,-5.668,-5.668,-5.668,-5.668,-5.668,-5.668,-5.668,-5.668,-5.668,-5.668,-5.668,-5.668,-5.668,-5.668,-5.668,-5.668,-5.668,-5.668,-5.668,-5.668,-5.668,-5.668,-5.668,-5.668,-5.668,-5.668,-5.668,-5.668,-5.668,-5.668,-5.668,-5.668,-5.668,-5.668,-5.668,-5.668,-5.668,-5.7077,-5.7475,-5.7475,-5.7906,-5.8303,-5.8303,-5.8303,-5.8303,-5.8303,-5.7839,-5.7475,-5.7475,-5.7939,-5.8303,-5.8303,-5.8071,-5.803,-5.823,-5.8071,-5.7558,-5.6564,-5.5673,-5.4643,-5.3446,-5.2245,-5.1479,-5.1229,-5.1229,-5.1229,-5.1229,-5.1229,-5.1229,-5.1229,-5.071,-5.0548,-5.0567,-4.996,-4.9717,-4.9815,-4.9717,-4.9717,0.0,0.0,0.0,-5.1229,0.0,0.0,0.0,0.0,-5.1229,0.0,0.0,0.0,0.0,-5.1229,-5.1229,-5.1229,-5.1229,0.0,0.0,0.0,0.0,0.0,0.0,0.0,0.0,0.0,0.0,0.0,-5.668,0.0,-5.668,-5.668,-5.668,-5.668,-5.668,-5.668,-5.668,-5.668,-5.668,-5.668,-5.668,-5.668,-5.668,-5.668,-5.668,-5.668,-5.668,-5.668,-5.668,-5.668,-5.668,-5.668,-5.668,-5.668,-5.668,-5.668,-5.668,-5.668,-5.668,-5.668,-5.668,-5.668,-5.668,-5.668,-5.668,-5.668,-5.668,-5.668,-5.668,-5.668,-5.668,-5.6713,-5.6713,-5.6713,-5.6746,-5.6746,-5.6746,-5.6746,-5.6746,-5.6746,-5.6746,-5.6713,-5.6713,-5.6746,-5.6746,-5.6746,-5.6013,-5.5741,-5.6669,-5.5974,-5.5741,-5.6597,-5.5861,-5.5271,-5.5231,-5.3558,-5.2185,-5.1276,-5.1229,-5.1229,-5.1229,-5.1229,-5.1229,-5.1229,-5.071,-5.0614,-5.0822,-5.0057,-4.9815,-5.0086,-4.9815,-4.9717,0.0,0.0,-5.2002,-5.1339,0.0,0.0,0.0,0.0,0.0,0.0,0.0,0.0,0.0,-5.1229,-5.1229,-5.1229,-5.1229,-5.1229,0.0,0.0,0.0,0.0,0.0,0.0,0.0,0.0,0.0,-5.668,-5.668,-5.668,0.0,-5.668,-5.668,-5.668,-5.668,-5.668,-5.668,-5.668,-5.668,-5.668,-5.668,-5.668,-5.668,-5.668,-5.668,-5.668,-5.668,-5.668,-5.668,-5.668,-5.668,-5.668,-5.668,-5.668,-5.668,-5.668,-5.668,-5.668,-5.668,-5.668,-5.668,-5.668,-5.668,-5.668,-5.668,-5.668,-5.668,-5.668,-5.668,-5.668,-5.668,-5.668,-5.668,-5.668,-5.668,-5.668,-5.668,-5.668,-5.668,-5.668,-5.668,-5.668,-5.668,-5.668,-5.668,-5.668,-5.6414,-5.6336,-5.6641,-5.6414,-5.6336,-5.668,-5.5868,-5.5312,-5.5312,-5.4232,-5.3371,-5.3064,-5.302,-5.2785,-5.2185,-5.2139,-5.2139,-5.2139,-5.1199,-5.1028,-5.1712,-5.0728,-5.0279,-5.0357,-5.0279,-5.0038,-5.324,-5.3108,0.0,-5.1911,-5.1681,0.0,-5.1276,0.0,0.0,0.0,0.0,0.0,0.0,-5.1229,-5.1229,-5.1229,-5.1229,-5.1229,0.0,-5.1229,0.0,0.0,0.0,0.0,0.0,0.0,-5.668,-5.668,-5.668,-5.668,0.0,0.0,-5.668,-5.668,-5.668,-5.668,-5.668,-5.668,-5.668,-5.668,-5.668,-5.668,-5.668,-5.668,-5.668,-5.668,-5.668,-5.668,-5.668,-5.668,-5.668,-5.668,-5.668,-5.668,-5.668,-5.668,-5.668,-5.668,-5.668,-5.668,-5.668,-5.668,-5.668,-5.668,-5.668,-5.668,-5.6746,-5.7011,-5.6879,-5.6746,-5.7011,-5.6879,-5.668,-5.668,-5.668,-5.668,-5.668,-5.668,-5.668,-5.668,-5.668,-5.668,-5.668,-5.668,-5.668,-5.668,-5.668,-5.668,-5.668,-5.668,-5.668,-5.668,-5.6179,-5.5636,-5.5353,-5.4819,-5.4317,-5.4019,-5.3675,-5.324,-5.2651,-5.2245,-5.2094,-5.2094,-5.1263,-5.1169,-5.1835,-5.0917,-5.0548,-5.0614,-5.0453,-5.0183]},{"header":{"parameterUnit":"m.s-1","parameterCategory":1,"la1":30.6,"la2":29.2853,"lo1":-89.7004,"lo2":-87.6739,"dy":0.0162,"dx":0.0183,"nx":112,"ny":82,"refTime":"2023-06-11T06:00:00:Z","depth":0,"parameterNumber":3,"parameterNumberName":"V-component_of_WINDS"},"data":[0.0,0.0,0.0,0.0,0.0,0.0,0.0,0.0,0.0,0.0,0.0,0.0,0.0,0.0,0.0,0.0,0.0,0.0,0.0,0.0,0.0,0.0,0.0,0.0,0.0,0.0,0.0,0.0,0.0,0.0,0.0,0.0,0.0,0.0,0.0,0.0,0.0,0.0,0.0,0.0,0.0,0.0,0.0,0.0,0.0,0.0,0.0,0.0,0.0,0.0,0.0,0.0,0.0,0.0,0.0,0.0,0.0,0.0,0.0,0.0,0.0,0.0,0.0,0.0,0.0,0.0,0.0,0.0,0.0,0.0,0.0,0.0,0.0,0.0,0.0,0.0,0.0,0.0,0.0,0.0,0.0,0.0,0.0,0.0,0.0,0.0,0.0,0.0,0.0,0.0,0.0,-2.8099,-2.8099,-2.8099,-2.8099,-2.8099,-2.8099,-2.8099,0.0,0.0,0.0,0.0,0.0,0.0,0.0,0.0,0.0,0.0,0.0,0.0,0.0,0.0,0.0,0.0,0.0,0.0,0.0,0.0,0.0,0.0,0.0,0.0,0.0,0.0,0.0,0.0,0.0,0.0,0.0,0.0,0.0,0.0,0.0,0.0,0.0,0.0,0.0,0.0,0.0,0.0,0.0,0.0,0.0,0.0,0.0,0.0,0.0,0.0,0.0,0.0,0.0,0.0,0.0,0.0,0.0,0.0,0.0,0.0,0.0,0.0,0.0,0.0,0.0,0.0,0.0,0.0,0.0,0.0,0.0,0.0,0.0,0.0,0.0,0.0,0.0,0.0,0.0,0.0,0.0,0.0,0.0,0.0,0.0,0.0,0.0,0.0,0.0,0.0,0.0,0.0,0.0,0.0,0.0,0.0,0.0,0.0,0.0,0.0,0.0,0.0,0.0,0.0,-2.8545,-2.8891,-2.893,-2.893,-2.893,-2.893,-2.893,-2.893,0.0,0.0,0.0,0.0,0.0,0.0,0.0,0.0,0.0,0.0,0.0,0.0,0.0,0.0,0.0,0.0,0.0,0.0,0.0,0.0,0.0,0.0,0.0,0.0,0.0,0.0,0.0,0.0,0.0,0.0,0.0,0.0,0.0,0.0,0.0,0.0,0.0,0.0,0.0,0.0,0.0,0.0,0.0,0.0,0.0,0.0,0.0,0.0,0.0,0.0,0.0,0.0,0.0,0.0,0.0,0.0,0.0,0.0,0.0,0.0,0.0,0.0,0.0,0.0,0.0,0.0,0.0,0.0,0.0,0.0,0.0,0.0,0.0,0.0,0.0,0.0,0.0,0.0,0.0,0.0,0.0,0.0,0.0,0.0,0.0,0.0,0.0,0.0,0.0,0.0,0.0,0.0,0.0,0.0,0.0,0.0,0.0,0.0,0.0,0.0,0.0,0.0,0.0,-2.9724,-2.9411,-3.0254,-2.9774,-2.9346,-2.9346,-2.9346,-2.9346,-2.9346,-2.9144,0.0,0.0,0.0,0.0,0.0,0.0,0.0,0.0,0.0,0.0,0.0,0.0,0.0,0.0,0.0,0.0,0.0,0.0,0.0,0.0,0.0,0.0,0.0,0.0,0.0,0.0,0.0,0.0,0.0,0.0,0.0,0.0,0.0,0.0,0.0,0.0,0.0,0.0,0.0,0.0,0.0,0.0,0.0,0.0,0.0,0.0,0.0,0.0,0.0,0.0,0.0,0.0,0.0,0.0,0.0,0.0,0.0,0.0,0.0,0.0,0.0,0.0,0.0,0.0,0.0,0.0,0.0,0.0,0.0,0.0,0.0,0.0,0.0,0.0,0.0,0.0,0.0,0.0,0.0,0.0,0.0,0.0,0.0,0.0,0.0,0.0,0.0,0.0,0.0,0.0,0.0,0.0,0.0,0.0,0.0,0.0,0.0,0.0,0.0,0.0,0.0,0.0,-3.0948,-3.0843,-3.1609,-3.065,-2.9939,-2.9939,-2.9939,-2.9939,-2.9939,-2.9785,0.0,0.0,0.0,0.0,0.0,0.0,0.0,0.0,0.0,0.0,0.0,0.0,0.0,0.0,0.0,0.0,0.0,0.0,0.0,0.0,0.0,0.0,0.0,0.0,0.0,0.0,0.0,0.0,0.0,0.0,0.0,0.0,0.0,0.0,0.0,0.0,0.0,0.0,0.0,0.0,0.0,0.0,0.0,0.0,0.0,0.0,0.0,0.0,0.0,0.0,0.0,0.0,0.0,0.0,0.0,0.0,0.0,0.0,0.0,0.0,0.0,0.0,0.0,0.0,0.0,0.0,0.0,0.0,0.0,0.0,0.0,0.0,0.0,0.0,0.0,0.0,0.0,0.0,0.0,0.0,0.0,0.0,0.0,0.0,0.0,0.0,0.0,0.0,0.0,0.0,0.0,0.0,0.0,0.0,0.0,0.0,0.0,0.0,0.0,0.0,0.0,0.0,-3.3421,-3.3121,-3.2654,-3.1534,-3.0801,-3.0801,-3.0801,-3.0801,-3.0801,-3.0391,0.0,0.0,0.0,0.0,0.0,0.0,0.0,0.0,0.0,0.0,0.0,0.0,0.0,0.0,0.0,0.0,0.0,0.0,0.0,0.0,0.0,0.0,0.0,0.0,0.0,0.0,0.0,0.0,0.0,0.0,0.0,0.0,0.0,0.0,0.0,0.0,0.0,0.0,0.0,0.0,0.0,0.0,0.0,0.0,0.0,0.0,0.0,0.0,0.0,0.0,0.0,0.0,0.0,0.0,0.0,0.0,0.0,0.0,0.0,0.0,0.0,0.0,0.0,0.0,0.0,0.0,0.0,0.0,0.0,0.0,0.0,0.0,0.0,0.0,0.0,0.0,0.0,0.0,0.0,0.0,0.0,0.0,0.0,0.0,0.0,0.0,0.0,0.0,0.0,0.0,0.0,0.0,0.0,0.0,0.0,0.0,0.0,0.0,0.0,0.0,0.0,0.0,-3.4494,-3.4284,0.0,-3.3776,-3.2778,-3.2076,-3.2018,-3.1672,-3.0957,0.0,0.0,0.0,0.0,0.0,0.0,0.0,0.0,0.0,0.0,0.0,0.0,0.0,0.0,0.0,0.0,0.0,0.0,0.0,0.0,0.0,0.0,0.0,0.0,0.0,0.0,0.0,0.0,0.0,0.0,0.0,0.0,0.0,0.0,0.0,0.0,0.0,0.0,0.0,0.0,0.0,0.0,0.0,0.0,0.0,0.0,0.0,0.0,0.0,0.0,0.0,0.0,0.0,0.0,0.0,0.0,0.0,0.0,0.0,0.0,0.0,0.0,0.0,0.0,0.0,0.0,0.0,0.0,0.0,0.0,0.0,0.0,0.0,0.0,0.0,0.0,0.0,0.0,0.0,0.0,0.0,0.0,0.0,0.0,0.0,0.0,0.0,0.0,0.0,0.0,0.0,0.0,0.0,0.0,0.0,0.0,0.0,0.0,0.0,0.0,0.0,0.0,-3.6487,-3.5695,-3.5223,0.0,-3.4558,-3.3402,-3.2227,-3.2133,-3.1787,-3.0957,0.0,0.0,0.0,0.0,0.0,0.0,0.0,0.0,0.0,0.0,0.0,0.0,0.0,0.0,0.0,0.0,0.0,0.0,0.0,0.0,0.0,0.0,0.0,0.0,0.0,0.0,0.0,0.0,0.0,0.0,0.0,0.0,0.0,0.0,0.0,0.0,0.0,0.0,0.0,0.0,0.0,0.0,0.0,0.0,0.0,0.0,0.0,0.0,0.0,0.0,0.0,0.0,0.0,0.0,0.0,0.0,0.0,0.0,0.0,0.0,0.0,0.0,0.0,0.0,0.0,0.0,0.0,0.0,0.0,0.0,0.0,0.0,0.0,0.0,0.0,0.0,0.0,0.0,0.0,0.0,0.0,0.0,0.0,0.0,0.0,0.0,0.0,0.0,0.0,0.0,0.0,0.0,0.0,0.0,0.0,0.0,0.0,0.0,0.0,0.0,0.0,0.0,-3.8027,-3.718,-3.6022,-3.4558,-3.3402,-3.2227,-3.1054,-3.0957,-3.0957,0.0,0.0,0.0,0.0,0.0,0.0,0.0,0.0,0.0,0.0,0.0,0.0,0.0,0.0,0.0,0.0,0.0,0.0,0.0,0.0,0.0,0.0,0.0,0.0,0.0,0.0,0.0,0.0,0.0,0.0,0.0,0.0,0.0,0.0,0.0,0.0,0.0,0.0,0.0,0.0,0.0,0.0,0.0,0.0,0.0,0.0,0.0,0.0,0.0,0.0,0.0,0.0,0.0,0.0,0.0,0.0,0.0,0.0,0.0,0.0,0.0,0.0,0.0,0.0,0.0,0.0,0.0,0.0,0.0,0.0,0.0,0.0,0.0,0.0,0.0,0.0,0.0,0.0,0.0,0.0,0.0,0.0,0.0,0.0,0.0,0.0,0.0,0.0,0.0,0.0,0.0,0.0,0.0,0.0,0.0,0.0,0.0,0.0,0.0,0.0,0.0,0.0,0.0,-3.8027,-3.718,-3.6348,-3.574,-3.4803,-3.4134,-3.3754,-3.3176,-3.3063,-3.3663,0.0,0.0,0.0,0.0,0.0,0.0,0.0,0.0,0.0,0.0,0.0,0.0,0.0,0.0,0.0,0.0,0.0,0.0,0.0,0.0,0.0,0.0,0.0,0.0,0.0,0.0,0.0,0.0,0.0,0.0,0.0,0.0,0.0,0.0,0.0,0.0,0.0,0.0,0.0,0.0,0.0,0.0,0.0,0.0,0.0,0.0,0.0,0.0,0.0,0.0,0.0,0.0,0.0,0.0,0.0,0.0,0.0,0.0,0.0,0.0,0.0,0.0,0.0,0.0,0.0,0.0,0.0,0.0,0.0,0.0,0.0,0.0,0.0,0.0,0.0,0.0,0.0,0.0,0.0,0.0,0.0,0.0,0.0,0.0,0.0,0.0,0.0,0.0,0.0,0.0,0.0,0.0,0.0,0.0,0.0,0.0,0.0,0.0,0.0,0.0,0.0,0.0,-3.8185,-3.8089,-3.7702,-3.6967,-3.658,-3.6228,-3.5759,-3.4593,-3.4337,-3.5324,0.0,0.0,0.0,0.0,0.0,0.0,0.0,0.0,0.0,0.0,0.0,0.0,0.0,0.0,0.0,0.0,0.0,0.0,0.0,0.0,0.0,0.0,0.0,0.0,0.0,0.0,0.0,0.0,0.0,0.0,0.0,0.0,0.0,0.0,0.0,0.0,0.0,0.0,0.0,0.0,0.0,0.0,0.0,0.0,0.0,0.0,0.0,0.0,0.0,0.0,0.0,0.0,0.0,0.0,0.0,0.0,0.0,0.0,0.0,0.0,0.0,0.0,0.0,0.0,0.0,0.0,0.0,0.0,0.0,0.0,0.0,0.0,0.0,0.0,0.0,0.0,0.0,0.0,0.0,0.0,0.0,0.0,0.0,0.0,0.0,0.0,0.0,0.0,0.0,0.0,0.0,0.0,0.0,0.0,0.0,0.0,0.0,0.0,0.0,0.0,0.0,0.0,-3.8567,-3.9406,-3.9487,-3.8138,-3.8319,-3.8162,-3.7179,-3.5659,-3.5269,-3.6487,0.0,0.0,0.0,0.0,0.0,0.0,0.0,0.0,0.0,0.0,0.0,0.0,0.0,0.0,0.0,0.0,0.0,0.0,0.0,0.0,0.0,0.0,0.0,0.0,0.0,0.0,0.0,0.0,0.0,0.0,0.0,0.0,0.0,0.0,0.0,0.0,0.0,0.0,0.0,0.0,0.0,0.0,0.0,0.0,0.0,0.0,0.0,0.0,0.0,0.0,0.0,0.0,0.0,0.0,0.0,0.0,0.0,0.0,0.0,0.0,-3.0898,0.0,0.0,0.0,0.0,0.0,0.0,0.0,0.0,0.0,0.0,0.0,0.0,0.0,0.0,0.0,0.0,0.0,0.0,0.0,0.0,0.0,0.0,0.0,0.0,0.0,0.0,0.0,0.0,0.0,0.0,0.0,0.0,0.0,0.0,0.0,0.0,0.0,0.0,0.0,0.0,0.0,-3.9715,-3.9437,-3.9101,-3.8603,-3.8026,-3.796,-3.8554,-3.7699,-3.7934,-3.9752,0.0,0.0,0.0,0.0,0.0,0.0,0.0,0.0,0.0,0.0,0.0,0.0,0.0,0.0,0.0,0.0,0.0,0.0,0.0,0.0,0.0,0.0,0.0,0.0,0.0,0.0,0.0,0.0,0.0,0.0,0.0,0.0,0.0,0.0,0.0,0.0,0.0,0.0,0.0,0.0,0.0,0.0,0.0,0.0,0.0,0.0,0.0,0.0,0.0,0.0,0.0,0.0,0.0,0.0,0.0,0.0,0.0,0.0,0.0,0.0,0.0,-3.1504,0.0,0.0,0.0,0.0,0.0,0.0,0.0,0.0,0.0,0.0,0.0,0.0,0.0,0.0,0.0,0.0,0.0,0.0,0.0,0.0,0.0,0.0,0.0,0.0,0.0,0.0,0.0,0.0,0.0,0.0,0.0,0.0,0.0,0.0,0.0,0.0,0.0,0.0,0.0,0.0,-4.0245,-4.0416,-4.0563,-4.0397,-4.0226,-4.0315,-4.0954,-3.9818,-3.9786,-4.1434,-3.9435,0.0,0.0,0.0,0.0,0.0,0.0,0.0,0.0,0.0,0.0,0.0,0.0,0.0,0.0,0.0,0.0,0.0,0.0,0.0,0.0,0.0,0.0,0.0,0.0,0.0,0.0,0.0,0.0,0.0,0.0,0.0,0.0,0.0,0.0,0.0,0.0,0.0,0.0,0.0,0.0,0.0,0.0,0.0,0.0,0.0,0.0,0.0,0.0,0.0,0.0,0.0,0.0,0.0,-3.2229,-3.2268,-3.2285,-3.2285,-3.2324,-3.2383,-3.2383,-3.2305,-3.2229,0.0,0.0,0.0,0.0,0.0,0.0,0.0,0.0,0.0,0.0,0.0,0.0,0.0,0.0,0.0,0.0,0.0,0.0,0.0,0.0,0.0,0.0,0.0,0.0,0.0,-4.1042,-4.1226,0.0,0.0,0.0,0.0,0.0,0.0,0.0,0.0,0.0,0.0,0.0,0.0,-4.0813,-4.1758,-4.2363,-4.2363,-4.2766,-4.2986,-4.2986,-4.1675,-4.1292,-4.2308,-4.0789,-4.0269,0.0,0.0,0.0,0.0,0.0,0.0,0.0,0.0,0.0,0.0,0.0,0.0,0.0,0.0,0.0,0.0,0.0,0.0,0.0,0.0,0.0,0.0,0.0,0.0,0.0,0.0,0.0,0.0,0.0,0.0,0.0,0.0,-3.0059,-3.0098,0.0,0.0,0.0,0.0,0.0,0.0,0.0,0.0,0.0,0.0,0.0,0.0,0.0,0.0,-3.2229,-3.2229,-3.2229,-3.2229,-3.2229,-3.2363,-3.2715,-3.2715,-3.291,-3.3262,-3.3262,0.0,-3.2229,-3.2229,0.0,0.0,0.0,0.0,0.0,0.0,0.0,0.0,0.0,0.0,0.0,0.0,0.0,0.0,0.0,0.0,0.0,0.0,0.0,0.0,0.0,0.0,-4.2003,-4.1978,-4.2354,-4.2705,0.0,-4.1544,-4.0493,-4.0439,-4.0439,0.0,0.0,0.0,0.0,0.0,0.0,0.0,-4.2202,-4.2588,-4.2861,-4.2861,-4.2936,-4.2986,-4.2986,-4.2799,-4.2749,-4.2861,-4.2643,-4.2593,-4.2705,-4.2118,0.0,0.0,0.0,0.0,0.0,0.0,0.0,0.0,0.0,0.0,0.0,0.0,0.0,0.0,0.0,0.0,0.0,0.0,0.0,0.0,0.0,0.0,0.0,0.0,0.0,0.0,0.0,0.0,0.0,-3.0312,-3.0586,-3.0586,-3.0762,-3.0976,0.0,0.0,0.0,0.0,0.0,0.0,0.0,0.0,0.0,-3.2519,-3.2754,-3.2871,-3.2871,-3.2871,-3.2871,-3.2871,-3.2871,-3.2969,-3.3144,-3.3144,-3.3242,-3.3418,-3.3418,-3.3203,-3.2871,-3.2871,-3.2988,-3.3144,0.0,0.0,0.0,0.0,-3.3481,-3.367,-3.3859,-3.3985,0.0,0.0,0.0,0.0,0.0,0.0,0.0,0.0,0.0,0.0,0.0,0.0,0.0,-4.261,-4.2811,-4.2986,-4.2986,-4.2418,-4.1872,0.0,-4.1626,-4.146,-4.0957,0.0,0.0,0.0,0.0,0.0,-4.2457,-4.2818,-4.2986,-4.2986,-4.2986,-4.2986,-4.2986,-4.2986,-4.2986,-4.2986,-4.2986,-4.2986,-4.2986,-4.2735,-4.2665,0.0,0.0,0.0,0.0,0.0,0.0,0.0,0.0,0.0,0.0,0.0,0.0,0.0,0.0,0.0,0.0,0.0,0.0,0.0,0.0,0.0,0.0,0.0,0.0,0.0,0.0,0.0,0.0,-3.0664,-3.0937,-3.1035,-3.1055,-3.1211,0.0,0.0,0.0,0.0,0.0,0.0,-3.248,-3.2793,-3.2949,-3.2949,-3.3262,-3.3418,-3.3418,-3.3418,-3.3418,-3.3418,-3.3418,-3.3418,-3.3418,-3.3418,-3.3418,-3.3418,-3.3418,-3.3418,-3.3418,-3.3418,-3.3418,-3.3418,-3.3418,-3.3418,-3.3418,-3.3418,-3.3418,-3.3544,-3.3796,-3.3985,-3.411,-3.4423,0.0,-3.5211,-3.6258,0.0,0.0,0.0,0.0,-4.0639,-4.2231,-4.2625,-4.2681,-4.293,-4.2986,-4.2986,-4.2986,-4.2986,-4.293,0.0,-4.2625,-4.2457,-4.1948,0.0,0.0,0.0,0.0,-4.2513,-4.265,-4.2874,-4.2986,-4.2986,-4.2986,-4.2986,-4.2986,-4.2986,-4.2986,-4.2986,-4.2986,-4.2986,-4.2986,-4.2986,-4.2986,-4.2986,0.0,0.0,0.0,0.0,0.0,0.0,0.0,0.0,0.0,0.0,0.0,0.0,0.0,0.0,0.0,0.0,0.0,0.0,0.0,0.0,0.0,0.0,0.0,0.0,0.0,0.0,0.0,0.0,0.0,-3.1445,-3.1484,0.0,0.0,0.0,0.0,-3.2734,-3.2754,-3.293,-3.334,-3.3379,-3.3379,-3.3379,-3.3418,-3.3418,-3.3418,-3.3418,-3.3418,-3.3418,-3.3418,-3.3418,-3.3418,-3.3418,-3.3418,-3.3418,-3.3418,-3.3418,-3.3418,-3.3418,-3.3418,-3.3418,-3.3418,-3.3418,-3.3418,-3.3418,-3.3607,-3.3859,-3.3922,-3.411,-3.4423,-3.4797,-3.5726,-3.6807,-3.6868,-3.7533,0.0,0.0,-4.0582,-4.0928,-4.2569,-4.2986,-4.2986,-4.2986,-4.2986,-4.2986,-4.2986,-4.2986,-4.2986,0.0,-4.2986,-4.2874,-4.2513,0.0,-4.2457,-4.2457,-4.2457,-4.265,-4.2905,-4.2986,-4.2986,-4.2986,-4.2986,-4.2986,-4.2986,-4.2986,-4.2986,-4.2986,-4.2986,-4.2986,-4.2986,-4.2986,-4.2986,-4.2986,-4.2961,0.0,0.0,0.0,0.0,0.0,0.0,0.0,0.0,0.0,0.0,0.0,0.0,0.0,0.0,0.0,0.0,0.0,0.0,0.0,0.0,0.0,0.0,0.0,0.0,0.0,0.0,0.0,0.0,-3.1504,-3.1758,0.0,0.0,-3.2578,-3.2734,-3.3164,-3.3203,-3.3262,-3.3418,-3.3418,-3.3418,-3.3418,-3.3691,-3.3848,-3.3848,-3.4101,-3.4238,-3.4238,-3.4238,-3.4238,-3.4238,-3.4238,-3.4238,-3.4238,-3.4238,-3.4238,-3.4238,-3.4238,-3.4082,-3.3867,-3.4141,-3.4238,-3.4238,-3.4238,-3.4303,-3.4432,-3.4432,-3.4497,-3.465,-3.4946,-3.5997,-3.7149,-3.7149,-3.797,-3.9157,-4.0524,-4.0928,-4.1215,-4.2625,-4.2986,-4.2986,-4.2986,-4.2986,-4.2986,-4.2986,-4.2986,-4.2986,-4.2986,-4.2986,-4.2874,-4.2569,-4.2706,-4.2737,-4.2513,-4.2681,-4.2874,-4.2986,-4.2986,-4.2986,-4.2986,-4.2986,-4.2986,-4.2986,-4.2986,-4.2986,-4.2986,-4.2986,-4.2986,-4.2986,-4.2986,-4.2986,-4.2986,-4.2986,-4.2986,0.0,0.0,0.0,0.0,0.0,0.0,0.0,0.0,0.0,0.0,0.0,0.0,0.0,0.0,0.0,0.0,0.0,0.0,0.0,0.0,0.0,0.0,0.0,0.0,0.0,0.0,-3.1621,-3.1914,-3.2207,-3.2539,-3.2969,-3.3008,-3.3125,-3.3398,-3.3555,-3.3633,-3.3633,-3.3769,-3.3848,-3.3848,-3.4141,-3.4277,-3.4277,-3.457,-3.4707,-3.4707,-3.4707,-3.4707,-3.4707,-3.4707,-3.4707,-3.4707,-3.4707,-3.4707,-3.4707,-3.4863,-3.4766,-3.4531,-3.4648,-3.4707,-3.4707,-3.4707,-3.4707,-3.4707,-3.4707,-3.4773,-3.4975,-3.5753,-3.6749,-3.7684,-3.8077,-3.8814,-3.9682,-4.0803,-4.11,-4.1386,-4.2681,-4.2986,-4.2986,-4.2986,-4.2986,-4.2986,-4.2986,-4.2986,-4.2986,-4.2986,-4.2986,-4.293,-4.2681,-4.2874,-4.293,-4.2681,-4.2874,-4.2986,-4.2986,-4.2986,-4.2986,-4.2986,-4.2986,-4.2986,-4.2986,-4.2986,-4.2986,-4.2986,-4.2986,-4.2986,-4.2986,-4.2986,-4.2986,-4.2986,-4.2986,-4.3042,-4.3129,0.0,0.0,0.0,0.0,0.0,0.0,0.0,0.0,0.0,0.0,0.0,0.0,0.0,0.0,0.0,0.0,0.0,0.0,0.0,0.0,0.0,0.0,0.0,-3.1523,-3.1543,-3.1855,-3.2695,-3.2812,-3.2969,-3.3379,-3.3437,-3.3501,-3.3501,-3.3912,-3.4146,-3.4146,-3.4473,-3.4707,-3.4726,-3.4726,-3.4746,-3.4766,-3.4766,-3.4785,-3.4785,-3.4785,-3.4785,-3.4785,-3.4785,-3.4785,-3.4785,-3.4785,-3.4785,-3.4824,-3.5273,-3.5449,-3.541,-3.4922,-3.4746,-3.4746,-3.4746,-3.4746,-3.4746,-3.4746,-3.4923,-3.5491,-3.7233,-3.7974,-3.8516,-3.9651,-3.9997,-4.0204,-4.1004,-4.1206,-4.1435,-4.2731,-4.3037,-4.3037,-4.3037,-4.3037,-4.3037,-4.3037,-4.3037,-4.3037,-4.3037,-4.3037,-4.3011,-4.2986,-4.2986,-4.2986,-4.2986,-4.2986,0.0,-4.2986,-4.2986,-4.2986,-4.3011,-4.2986,-4.2986,-4.3011,-4.2986,-4.2986,-4.2986,-4.2986,-4.2986,-4.2986,-4.2986,-4.2986,-4.2986,-4.2986,-4.3129,-4.3381,0.0,0.0,0.0,0.0,0.0,0.0,0.0,0.0,0.0,0.0,0.0,0.0,0.0,0.0,0.0,0.0,0.0,0.0,0.0,0.0,0.0,0.0,-3.1523,-3.1523,-3.2051,-3.2539,-3.2773,-3.3066,-3.3301,-3.3418,-3.4622,-3.5434,-3.5434,-3.5842,-3.6024,-3.6024,-3.5196,-3.4863,-3.5195,-3.5508,-3.5801,-3.6133,-3.6426,-3.6582,-3.6582,-3.6582,-3.6582,-3.6582,-3.6582,-3.6582,-3.6582,-3.6582,-3.6582,-3.6601,-3.6719,-3.6777,-3.6699,-3.5957,-3.5664,-3.5664,-3.5664,-3.5664,-3.5664,-3.5664,-3.565,-3.5858,-3.6542,-3.7442,-3.8519,-4.0021,-4.0464,-4.0866,-4.3008,-4.2959,-4.249,-4.3821,-4.4166,-4.4166,-4.4166,-4.4166,-4.4166,-4.4166,-4.4166,-4.4166,-4.4166,-4.4166,-4.3915,-4.3112,-4.2986,-4.2986,-4.2986,-4.2986,0.0,-4.2986,-4.2986,-4.3137,-4.3539,-4.3212,-4.3137,-4.3539,-4.3212,-4.2986,-4.2986,-4.2986,-4.2986,-4.2986,-4.2986,-4.2986,-4.2986,-4.2986,-4.3042,0.0,0.0,0.0,0.0,0.0,0.0,0.0,0.0,0.0,0.0,0.0,0.0,0.0,0.0,0.0,0.0,0.0,0.0,0.0,0.0,0.0,0.0,-3.1934,-3.2051,-3.2051,-3.248,-3.2851,-3.3027,-3.3437,-3.3946,-3.4495,-3.5701,-3.6455,-3.6455,-3.6993,-3.7106,-3.6471,-3.6055,-3.5918,-3.6191,-3.6426,-3.668,-3.6934,-3.7168,-3.7305,-3.7305,-3.7305,-3.7305,-3.7305,-3.7305,-3.7305,0.0,-3.7305,-3.7305,-3.7305,-3.7305,-3.7305,0.0,0.0,0.0,0.0,0.0,-3.6084,-3.62,-3.62,-3.6313,-3.663,-3.8154,-3.9109,-4.0033,-4.2103,-4.2663,-4.2916,-4.4202,-4.4011,-4.36,-4.4386,-4.4618,-4.4618,-4.4618,-4.4618,-4.4618,-4.4618,-4.4618,-4.4618,-4.4618,-4.4618,0.0,-4.379,-4.3664,-4.3664,-4.3664,-4.3664,-4.3664,-4.3664,-4.3664,-4.379,-4.4116,-4.3865,-4.3714,-4.379,-4.3514,0.0,0.0,0.0,-4.2986,-4.2986,-4.2986,0.0,0.0,0.0,-4.3073,-4.3184,0.0,0.0,0.0,-4.3939,-4.3913,0.0,0.0,0.0,0.0,0.0,0.0,0.0,0.0,0.0,0.0,0.0,0.0,0.0,0.0,0.0,0.0,-3.2559,-3.2832,-3.293,-3.2949,-3.3086,-3.3457,-3.3956,-3.4832,-3.6121,-3.6959,-3.738,-3.7188,-3.7999,-3.7872,-3.6493,0.0,0.0,0.0,0.0,-3.7383,-3.7441,-3.7441,-3.7441,-3.7441,-3.748,-3.748,-3.7441,-3.748,-3.748,-3.7441,-3.7441,-3.7441,-3.7441,-3.7441,-3.7422,-3.7324,-3.6894,-3.6738,-3.6699,-3.6309,-3.6357,-3.659,-3.6618,0.0,0.0,-4.0365,-4.1223,-4.1729,-4.4329,-4.5012,-4.4913,-4.4828,-4.4678,-4.4619,-4.4761,-4.4819,-4.4819,-4.4819,-4.4819,-4.4819,-4.4819,-4.4819,-4.4819,-4.4819,-4.4819,-4.4819,-4.4819,-4.4719,-4.4618,-4.4618,-4.4618,-4.4618,-4.4618,-4.4618,-4.4644,-4.4719,0.0,0.0,-4.4041,-4.394,-4.3689,-4.3187,-4.3112,-4.3037,-4.2986,-4.2986,-4.2986,-4.2986,-4.2986,-4.3129,-4.3351,-4.3653,-4.401,-4.4258,-4.4064,-4.4094,0.0,0.0,0.0,0.0,0.0,0.0,0.0,0.0,0.0,0.0,0.0,0.0,0.0,0.0,0.0,-3.2598,-3.2734,-3.3047,-3.373,-3.3828,-3.3867,-3.3945,-3.507,-3.6014,-3.662,-3.9511,-4.0807,-3.9649,-4.0407,-4.0273,-3.8794,-3.7818,0.0,-3.7793,-3.7812,-3.7969,-3.832,-3.832,-3.832,-3.834,0.0,0.0,-3.834,-3.8672,-3.8652,-3.832,-3.832,-3.832,-3.832,-3.832,-3.8125,-3.7754,-3.7344,-3.7168,-3.7168,-3.709,-3.7121,-3.7132,-3.7055,-3.7094,-3.7288,-3.812,-3.8374,-3.8948,-4.1896,-4.2086,0.0,-4.5072,-4.5204,-4.4573,-4.5675,-4.5974,-4.5974,-4.5974,-4.5974,-4.5974,-4.5974,-4.5974,-4.5974,-4.5974,-4.5974,-4.5974,-4.5974,-4.5221,-4.4618,-4.4618,-4.4618,-4.4618,-4.4618,-4.4618,-4.4794,-4.5271,-4.4895,-4.4769,-4.5121,-4.4744,-4.4418,-4.4317,-4.389,-4.3438,-4.2986,-4.2986,-4.2986,-4.2986,-4.2986,-4.3042,-4.3073,-4.3351,-4.3628,-4.401,-4.4367,-4.4559,0.0,0.0,0.0,0.0,0.0,0.0,0.0,0.0,0.0,0.0,0.0,-3.1973,0.0,0.0,-3.2617,-3.3047,-3.3301,-3.3594,-3.4023,-3.4883,-3.5453,-3.5453,-3.6298,-3.7315,-3.8401,-4.0386,-4.1436,-4.0957,-4.0826,-4.0477,-3.9875,-3.8646,-3.8125,-3.8555,-3.8555,-3.8789,-3.9238,-3.9238,-3.9238,-3.9238,-3.9453,-3.9434,-3.9238,-3.9453,-3.9434,-3.9238,-3.9238,-3.9238,-3.9219,-3.8984,-3.8633,-3.8223,-3.8008,-3.7676,-3.7305,-3.7305,-3.7445,-3.7547,-3.754,-3.7738,-3.8251,-3.901,-3.9915,-4.1089,-4.3304,-4.4008,-4.4452,-4.6526,-4.6649,-4.6254,-4.692,-4.7104,-4.7029,-4.6778,-4.6728,-4.6652,-4.6376,-4.6301,-4.6301,-4.6301,-4.6301,-4.6301,-4.6301,-4.5849,-4.5472,-4.5472,-4.5472,-4.5472,-4.5472,-4.5472,-4.5573,-4.5874,-4.5648,-4.5472,-4.5497,-4.497,-4.4618,-4.4618,-4.4367,-4.4091,-4.3815,-4.3539,-4.3388,-4.3388,-4.3112,-4.2986,-4.2986,-4.3295,-4.3517,-4.3653,-4.4232,-4.4559,0.0,0.0,0.0,0.0,0.0,0.0,0.0,0.0,-3.166,-3.1758,-3.2051,-3.2422,-3.2832,-3.291,-3.3066,-3.3476,-3.3848,-3.4141,-3.4297,-3.563,-3.68,-3.7546,-3.8099,-3.8849,-3.9822,-4.1177,-4.1728,-4.1315,-4.1103,-4.0724,-4.0053,-3.949,-3.9253,-3.9316,-3.9613,-3.979,-3.9883,-4.0184,-4.0184,-3.9902,-3.998,-3.998,-3.9902,-3.998,-3.998,-3.9902,-3.9902,-3.9902,-3.9863,-3.9492,-3.9141,-3.8828,-3.873,-3.8281,-3.7656,-3.7578,-3.7752,-3.7944,-3.8006,-3.8477,-3.9224,-4.0319,-4.1679,-4.3212,-4.4848,-4.6157,-4.7194,-4.7783,-4.7908,-4.7908,-4.7908,-4.7908,-4.7807,-4.738,-4.728,-4.7154,-4.6728,-4.6627,-4.6627,-4.6627,-4.6627,-4.6577,-4.6476,-4.6476,-4.6426,-4.6326,-4.6301,-4.6301,-4.6301,-4.6301,-4.6301,-4.6301,-4.6301,-4.6125,-4.5673,-4.5221,-4.4895,-4.4794,-4.4794,-4.4744,-4.4618,-4.4192,-4.3966,-4.3966,-4.3514,-4.3237,-4.3137,-4.3473,-4.3563,-4.3517,-4.4039,-4.4422,-3.1112,-3.0937,0.0,-3.0898,-3.1172,-3.1445,0.0,0.0,-3.2207,-3.2578,-3.2695,-3.2851,-3.3281,-3.3359,-3.3496,-3.3926,-3.4043,-3.4355,-3.5137,-3.5407,-3.6815,-4.0103,-4.1318,-4.108,-3.9051,-4.3258,-4.4426,-4.0452,-4.2958,-4.3141,-3.9538,-4.0529,-4.0772,-3.988,-4.1184,-4.1205,-3.9902,-4.1265,-4.1265,-3.9902,-4.0273,-4.0254,-3.9902,-4.0273,-4.0254,-3.9902,-3.9902,-3.9902,-3.9883,-3.9844,-3.9785,-3.9707,-3.9297,-3.9082,-3.8945,-3.8574,-3.851,-3.8524,-3.8846,-3.899,-3.9141,-3.9522,-3.9792,-4.0456,-4.3146,-4.4044,-4.4695,-4.7194,-4.7908,-4.7908,-4.7908,-4.7908,-4.7883,-4.7832,-4.7832,-4.7807,-4.7732,-4.7732,-4.7732,-4.7732,-4.7732,-4.7581,-4.7129,-4.6993,-4.6878,-4.6376,-4.6301,-4.6301,-4.6301,-4.6301,-4.6301,-4.6301,-4.6301,-4.6276,-4.6225,-4.615,-4.5924,-4.5422,-4.5397,-4.5171,-4.4644,-4.4568,-4.4543,-4.4543,-4.4468,-4.4192,-4.3714,-4.4055,-4.4082,-4.3844,-4.4148,-4.4313,-3.1344,0.0,0.0,0.0,-3.1582,-3.1894,-3.1894,-3.2226,-3.2578,-3.2754,-3.2988,-3.3203,-3.3379,-3.3633,-3.3867,0.0,-3.5187,-3.5927,-3.5465,-3.7171,-3.8558,-3.8479,-4.1551,-4.3188,-4.2192,-4.4068,-4.4769,-4.3208,-4.3115,-4.2707,-4.1895,-4.1041,-4.0887,-4.1629,-4.1349,-4.147,-4.2034,-4.1731,-4.1294,-4.0644,-4.082,-4.0801,-4.0644,-4.082,-4.0801,-4.0644,-4.0644,-4.0488,-4.0254,-4.0254,-4.0117,-3.9883,-3.9687,-3.9609,-3.9531,-3.8828,-3.9261,-4.0208,-4.0309,-4.1285,-4.2358,-4.2507,-4.3262,-4.4344,-4.5478,-4.649,-4.7361,-4.8568,-4.8887,-4.8887,-4.8887,-4.8887,-4.8812,-4.8485,-4.841,-4.8309,-4.7983,-4.7908,-4.7908,-4.7908,-4.7908,-4.7832,-4.7631,-4.7581,-4.7506,-4.728,-4.6702,-4.6301,-4.6301,-4.6301,-4.6301,-4.6301,-4.6301,-4.6301,-4.6301,-4.6301,-4.62,-4.5974,-4.5974,-4.5849,-4.5623,-4.5296,-4.5121,-4.5121,-4.4794,-4.4518,-4.4292,-4.4579,-4.4681,-4.4591,-4.5072,-4.5296,-3.1503,0.0,0.0,-3.1699,-3.2031,-3.2344,-3.2344,-3.2656,-3.2969,-3.2969,-3.3203,-3.3457,-3.3574,-3.3867,-3.416,-3.4394,-3.5861,-3.6648,-3.5838,-3.8042,-3.9146,-3.7808,-4.1374,-4.4096,-4.4659,-4.5085,-4.4866,-4.3694,-4.3485,-4.3385,-4.3501,-4.2554,-4.2303,-4.3035,-4.2398,-4.2256,-4.2866,-4.2216,-4.1618,-4.1172,-4.1172,-4.1172,-4.1172,-4.1172,-4.1172,-4.1172,-4.1172,-4.0996,-4.0703,-4.0703,-4.0527,-4.0234,-4.0117,-4.0078,-3.998,-3.9367,-4.0121,-4.1515,-4.146,-4.287,-4.4732,-4.4823,-4.5706,-4.687,-4.7293,-4.8174,-4.9047,-4.9461,-4.959,-4.959,-4.959,-4.959,-4.949,-4.9088,-4.9012,-4.8887,-4.846,-4.8385,-4.8385,-4.8385,-4.8385,-4.8335,-4.8184,-4.8159,-4.8083,-4.7933,-4.7255,-4.6702,-4.6552,-4.6401,-4.6301,-4.6301,-4.6301,-4.6301,-4.6301,-4.6301,-4.6301,-4.6301,-4.6301,-4.6301,-4.6301,-4.5924,-4.5723,-4.5723,-4.5296,-4.502,-4.4869,-4.5276,-4.5374,-4.5279,-4.585,-4.6134,0.0,0.0,-3.2148,-3.2148,-3.2461,-3.2773,-3.2773,-3.3105,-3.3398,-3.3398,-3.3418,-3.3555,-3.3965,-3.4062,-3.4355,-3.5215,-3.5438,-3.5751,-3.6523,-3.6799,-3.7649,-3.9853,-4.1486,-4.3192,0.0,-4.6583,-4.5165,-3.9784,-4.4808,-4.6611,-4.3085,-4.5704,-4.6071,-4.3587,-4.4945,-4.4289,-4.1327,-4.2734,-4.2657,-4.1172,-4.1172,-4.1172,-4.1172,-4.1172,-4.1172,-4.1172,-4.1172,-4.1172,-4.1152,-4.1152,-4.1152,-4.1094,-4.0664,-4.0508,-4.0449,-4.0452,-4.1069,-4.1955,-4.1869,-4.3101,-4.4732,-4.5096,-4.5232,-4.5503,-4.6936,-4.7425,-4.7755,-4.9177,-4.959,-4.959,-4.959,-4.959,-4.959,-4.9565,-4.9565,-4.9565,-4.954,-4.954,-4.954,-4.954,-4.954,-4.9364,-4.8837,-4.8736,-4.856,-4.7983,-4.7883,-4.7682,-4.7179,-4.6652,-4.6301,-4.6301,-4.6301,-4.6301,-4.6301,-4.6301,-4.6301,-4.6301,-4.6301,-4.6301,-4.6301,-4.6301,-4.6276,-4.6276,-4.6276,-4.5999,-4.5472,-4.6094,-4.6103,-4.5565,-4.6191,-4.6473,-3.1875,0.0,-3.2578,-3.2578,-3.2891,-3.3203,-3.3203,-3.332,-3.3418,-3.3418,-3.3652,-3.3906,-3.4043,-3.4551,-3.5059,-3.5351,-3.641,-3.7059,-3.672,-3.7708,-3.8922,-4.0075,-4.1695,0.0,0.0,0.0,0.0,-4.3872,-4.6211,-4.6757,-4.446,-4.4709,-4.4945,-4.5095,-4.3629,-4.2734,-4.2734,-4.2216,-4.1695,-4.1172,-4.1172,-4.1172,-4.1172,-4.1172,-4.1172,-4.1172,-4.1172,-4.1172,-4.1172,-4.1172,-4.1172,-4.1152,-4.1016,-4.1112,-4.1341,-4.0983,-4.2112,-4.3735,-4.4057,-4.6056,-4.8415,-4.8206,-4.8109,-4.824,-4.8698,-4.8853,-4.8983,-4.9461,-4.959,-4.959,-4.959,-4.959,-4.959,-4.959,-4.959,-4.959,-4.959,-4.959,-4.959,-4.959,-4.959,-4.954,-4.9339,-4.9314,-4.9138,-4.856,-4.8159,-4.7732,-4.7143,-4.6979,-4.6702,-4.6351,-4.6301,-4.6301,-4.6301,-4.6301,-4.6301,-4.6301,-4.6301,-4.6301,-4.6301,-4.6301,-4.6301,-4.6301,-4.6301,-4.6225,-4.6024,-4.6442,-4.6637,-4.6642,-4.7134,-4.7424,-3.2305,-3.2695,-3.3008,-3.3008,-3.3223,-3.3418,-3.3418,-3.3418,-3.3418,-3.3418,-3.3769,-3.4121,-3.4258,-3.4902,-3.563,-3.6236,-3.7467,-3.8253,-3.7697,-3.8812,-3.9868,-4.0394,-4.193,0.0,0.0,0.0,0.0,-4.4724,-4.6359,-4.6902,-4.5456,-4.5317,-4.5415,-4.5915,-4.34,-4.2216,-4.2657,-4.1695,-4.1172,-4.1172,-4.1172,-4.1172,-4.1172,-4.1172,-4.1172,-4.1172,-4.1172,-4.1172,-4.1172,-4.1172,-4.125,-4.1405,-4.1405,-4.2005,-4.2769,-4.2048,-4.3772,-4.6374,-4.5907,-4.7388,-4.9595,-4.9796,-4.9766,-4.959,-4.959,-4.959,-4.959,-4.959,-4.959,-4.959,-4.959,-4.959,-4.959,-4.959,-4.959,-4.959,-4.959,-4.959,-4.959,-4.959,-4.959,-4.959,-4.959,-4.959,-4.9464,-4.9113,-4.8761,-4.8234,-4.7506,-4.7405,-4.7205,-4.6652,-4.6602,-4.6527,-4.6326,-4.6301,-4.6301,-4.6301,-4.6301,-4.6301,-4.6301,-4.6301,-4.6301,-4.6301,-4.6301,-4.6301,-4.6301,-4.6626,-4.6959,-4.7205,-4.756,-4.788,-3.2812,-3.3125,-3.3418,-3.3418,-3.3418,-3.3418,-3.3418,-3.3418,-3.3418,-3.3418,-3.3789,-3.4219,0.0,0.0,-3.6016,-3.7714,-3.8414,-3.8848,-3.9254,-3.9708,-4.0282,0.0,0.0,0.0,0.0,0.0,0.0,-4.2554,0.0,-4.706,-4.5967,-4.7338,-4.7485,-4.5915,-4.4289,-4.2657,-4.1172,-4.1172,-4.1172,-4.1172,-4.1172,-4.1172,-4.1172,-4.1172,-4.1172,-4.1172,-4.1172,-4.1172,-4.1172,-4.125,-4.1483,-4.185,-4.1927,-4.3116,-4.4591,-4.3594,-4.6063,-4.9606,-4.7208,-4.7259,-4.8493,-4.9851,-5.0027,-4.964,-4.964,-4.9615,-4.959,-4.959,-4.959,-4.959,-4.959,-4.959,-4.959,-4.959,-4.959,-4.959,-4.959,-4.959,-4.959,-4.959,-4.959,-4.959,-4.959,-4.959,-4.959,-4.959,-4.959,-4.9188,-4.8083,-4.7958,-4.7757,-4.723,-4.7118,-4.6892,-4.6401,-4.6351,-4.6351,-4.6301,-4.6301,-4.6301,-4.6301,-4.6301,-4.6301,-4.6301,-4.6301,-4.6301,-4.6301,-4.6626,-4.6959,-4.7265,-4.756,-4.788,-3.3086,-3.334,-3.3418,-3.3418,-3.3418,-3.3418,-3.3418,-3.3418,-3.3418,-3.3418,-3.4023,-3.457,0.0,0.0,0.0,-3.6451,-3.6638,0.0,-3.7728,-3.7927,0.0,-4.2086,0.0,-4.407,-4.6674,-4.5733,0.0,0.0,-4.7095,-4.7422,-4.5989,-4.6285,-4.6285,-4.5915,-4.3248,-4.1618,-4.1172,-4.1172,-4.1172,-4.1172,-4.1172,-4.1172,-4.1172,-4.1172,-4.1172,-4.1172,-4.1172,-4.1172,-4.125,-4.154,-4.1695,-4.1927,-4.34,-4.444,-4.5244,-4.6115,-4.7439,-4.8794,-4.9322,-5.0201,-5.09,-4.9713,-4.9692,-5.0218,-5.0218,-4.9916,-4.959,-4.959,-4.959,-4.959,-4.959,-4.959,-4.959,-4.959,-4.959,-4.959,-4.959,-4.959,-4.959,-4.959,-4.959,-4.959,-4.959,-4.959,-4.959,-4.959,-4.959,-4.9339,-4.8636,-4.856,-4.8335,-4.7782,-4.7707,-4.7506,-4.6979,-4.6928,-4.6753,-4.6326,-4.6301,-4.6301,-4.6301,-4.6301,-4.6301,-4.6301,-4.6301,-4.6421,-4.6686,-4.6746,-4.7078,-4.756,-4.7619,-4.788,-3.3242,-3.3418,-3.3418,-3.3418,-3.3418,-3.3418,-3.3418,-3.3418,-3.3418,-3.3418,-3.3965,0.0,0.0,0.0,0.0,0.0,0.0,0.0,-3.8147,-3.8946,-4.0431,0.0,-4.3587,0.0,-4.6382,-4.5175,-4.4379,0.0,-4.6268,-4.7192,-4.6971,-4.6285,-4.5915,-4.5915,-4.281,-4.154,-4.2216,-4.154,-4.154,-4.2216,-4.154,-4.1172,-4.1172,-4.1172,-4.1172,-4.1172,0.0,-4.1463,-4.1463,-4.1927,-4.26,-4.34,-4.378,-4.5468,-4.7585,-4.7073,-4.8312,-5.0222,-4.9771,-5.0828,-5.2216,-5.0733,-5.0553,-5.0745,-5.0494,-5.0193,-4.9916,-4.9665,-4.959,-4.959,-4.959,-4.959,-4.959,-4.959,-4.959,-4.959,-4.959,-4.959,-4.959,-4.959,-4.959,-4.959,-4.959,-4.959,-4.959,-4.959,-4.959,-4.949,-4.9163,-4.9138,-4.8912,-4.836,-4.8284,-4.8058,-4.7531,-4.7481,-4.723,-4.6702,-4.6677,-4.6577,-4.6326,-4.6301,-4.6301,-4.6301,-4.6301,-4.6386,-4.6566,-4.6746,-4.7019,-4.7501,-4.7619,-4.788,-3.3301,-3.3418,-3.3418,-3.3418,-3.3418,-3.3418,-3.3418,-3.3418,-3.3418,-3.3418,0.0,-3.418,-3.4551,0.0,-3.589,-3.7499,0.0,-3.8691,-3.9048,-4.0822,-4.2283,-4.2896,-4.4367,-4.5278,-4.5278,-4.4683,-4.3896,-4.2847,-4.4728,-4.6507,-4.7945,-4.6677,-4.5692,-4.5266,-4.2657,-4.183,-4.3172,-4.185,-4.183,-4.3172,-4.185,-4.1172,-4.1172,-4.125,-4.125,-4.1327,0.0,0.0,-4.1927,-4.2293,-4.3553,-4.5191,-4.4105,-4.6507,-5.0269,-4.7731,-4.9415,-5.2491,-4.9866,-5.067,-5.2785,-5.2147,-5.169,-5.1297,-5.0795,-5.0544,-5.0318,-4.9841,-4.964,-4.959,-4.959,-4.959,-4.9525,-4.9332,-4.9461,-4.9525,-4.9332,-4.9461,-4.959,-4.959,-4.959,-4.959,-4.959,-4.959,-4.959,-4.959,-4.959,-4.959,-4.959,-4.959,-4.9414,-4.8937,-4.8887,-4.8661,-4.8083,-4.8033,-4.7807,-4.728,-4.7179,-4.6928,-4.6451,-4.6351,-4.6301,-4.6301,-4.6301,-4.6361,-4.6421,-4.6721,-4.7019,-4.7324,-4.7645,-4.7938,-3.3203,-3.3418,-3.3418,-3.3418,-3.3418,-3.3418,-3.3418,-3.3418,0.0,0.0,-3.3769,-3.4101,-3.416,-3.4844,0.0,-3.5803,0.0,0.0,0.0,0.0,-4.0769,0.0,0.0,0.0,0.0,0.0,0.0,0.0,0.0,0.0,-4.6285,-4.6063,-4.4741,-4.2062,-4.1483,-4.1327,-4.1618,-4.1327,-4.1327,-4.1618,-4.1327,-4.1172,-4.1172,-4.154,-4.1695,-4.1695,0.0,0.0,-4.2293,-4.2697,-4.3877,-4.5468,-4.6876,-4.8696,-5.0717,-5.1397,-5.2189,-5.2861,-5.2283,-5.2421,-5.2698,-5.1275,-5.1393,-5.195,-5.185,-5.1172,-5.0393,-5.0293,-4.9941,-4.959,-4.959,-4.959,-4.9307,-4.8084,-4.8698,-4.9242,-4.8019,-4.8722,-4.959,-4.959,-4.959,-4.959,-4.959,-4.959,-4.959,-4.959,-4.959,-4.959,-4.959,-4.959,-4.9565,-4.9464,-4.9464,-4.9238,-4.8661,-4.8611,-4.8385,-4.7807,-4.738,-4.7043,-4.7004,-4.6552,-4.6301,-4.6301,-4.6301,-4.6541,-4.7027,-4.7087,-4.7468,-4.7997,-4.8055,-4.8114,-3.3184,-3.3418,-3.3418,-3.3418,-3.3418,-3.3418,-3.3418,0.0,0.0,0.0,-3.3594,-3.3809,-3.4023,0.0,0.0,0.0,0.0,0.0,0.0,0.0,0.0,0.0,0.0,0.0,0.0,0.0,0.0,0.0,0.0,0.0,-4.8308,-4.6824,-4.444,-4.1327,-4.1172,-4.1618,-4.235,-4.1618,-4.1618,-4.235,-4.1773,-4.1463,-4.154,-4.1927,-4.2139,-4.2139,-4.2544,0.0,-4.2774,-4.3157,-4.4256,-4.5617,-4.5788,-4.7316,-4.9415,-4.9271,-5.0293,-5.1677,-5.1677,-5.2258,-5.2792,-5.205,-5.2084,-5.2477,-5.2201,-5.1523,-5.0795,-5.0494,-5.0017,-4.9396,-4.8632,-4.8436,-4.8084,-4.6603,-4.7401,-4.8502,-4.8502,-4.9112,-4.959,-4.959,-4.959,-4.959,-4.959,-4.959,-4.959,-4.959,-4.959,-4.959,-4.959,-4.959,-4.959,-4.959,-4.959,-4.949,-4.9213,-4.9213,-4.8962,-4.8385,-4.8134,-4.7732,-4.7093,-4.6878,-4.6602,-4.6326,-4.6301,-4.6421,-4.6755,-4.7027,-4.7383,-4.7703,-4.8055,-4.8172,-3.3184,-3.3418,-3.3418,-3.3418,-3.3418,-3.3418,-3.3418,-3.3418,0.0,0.0,-3.3418,-3.3535,-3.3867,0.0,0.0,0.0,0.0,0.0,0.0,0.0,0.0,0.0,0.0,0.0,0.0,0.0,0.0,0.0,0.0,0.0,0.0,-4.7777,-4.4966,-4.1773,-4.1695,-4.2139,-4.3019,-4.185,-4.185,-4.3096,-4.2216,-4.185,-4.1927,-4.237,-4.2524,-4.2524,-4.2927,0.0,0.0,-4.3462,-4.4482,-4.5788,-4.4558,-4.5788,-4.8118,-4.6876,-4.8167,-5.0576,-5.0576,-5.1607,-5.2929,-5.2929,-5.2929,-5.2854,-5.2402,-5.1825,-5.1197,-5.072,-5.0117,-4.9267,-4.7755,-4.7425,-4.7136,-4.5932,-4.6335,-4.7425,-4.9177,-4.959,-4.959,-4.959,-4.959,-4.959,-4.959,-4.959,-4.959,-4.959,-4.959,-4.959,-4.959,-4.959,-4.959,-4.959,-4.959,-4.959,-4.959,-4.959,-4.9414,-4.8987,-4.8837,-4.8385,-4.7531,-4.7255,-4.6928,-4.6502,-4.6436,-4.6421,-4.6481,-4.7027,-4.7324,-4.7442,-4.7938,-4.8172,-3.3184,-3.3418,-3.3418,-3.3418,-3.3418,-3.3418,-3.3418,0.0,0.0,-3.3418,-3.3418,-3.3437,-3.3476,-3.3809,-3.467,0.0,0.0,-3.6603,0.0,0.0,0.0,0.0,0.0,0.0,0.0,0.0,0.0,0.0,0.0,0.0,0.0,-4.8236,-4.6603,-4.34,-4.3324,-4.2657,-4.1385,-4.125,-4.1483,-4.1927,-4.185,-4.2005,-4.237,-4.2774,-4.2927,-4.2927,0.0,0.0,0.0,-4.3615,-4.4482,-4.5915,-4.5714,-4.6728,-4.8263,-4.8118,-4.9128,-5.0576,-5.0576,-5.1607,-5.2929,-5.2929,-5.2929,-5.2929,-5.2879,-5.2126,-5.1272,-5.1222,-5.0419,-4.9267,-4.7755,-4.7425,-4.7359,-4.7202,-4.6268,-4.6201,-4.8983,-4.959,-4.959,-4.959,-4.959,-4.959,-4.959,-4.959,-4.959,-4.959,-4.959,-4.959,-4.959,-4.959,-4.959,-4.959,-4.959,-4.959,-4.959,-4.959,-4.9565,-4.9515,-4.9063,-4.8736,-4.8636,-4.7657,-4.7043,-4.7054,-4.6879,-4.69,-4.7146,-4.7501,-4.7821,-4.8114,-4.8172,-4.8172,-3.2891,-3.3223,-3.3418,-3.3418,-3.3418,-3.3418,-3.3418,0.0,0.0,-3.3418,-3.4027,-3.434,-3.3544,-3.4836,-3.5936,-3.559,0.0,0.0,0.0,0.0,0.0,0.0,0.0,0.0,0.0,0.0,0.0,0.0,0.0,0.0,0.0,-4.6898,-4.5841,-4.3532,-4.258,-4.1907,-4.154,-4.154,-4.1773,-4.2139,-4.239,-4.2621,-4.2774,-4.3157,-4.3386,-4.3386,0.0,0.0,0.0,-4.3615,-4.3974,-4.4558,-4.4558,-4.4913,-4.5512,-4.5512,-4.7023,-4.92,-4.92,-5.0811,-5.2929,-5.2929,-5.2929,-5.2929,-5.2929,-5.2151,-5.1272,-5.1272,-4.9851,-4.7953,-4.6469,-4.4755,-4.3954,-4.5638,-4.5661,-4.5999,-4.8983,-4.959,-4.959,-4.959,-4.959,-4.959,-4.959,-4.959,-4.959,-4.959,-4.959,-4.959,-4.959,-4.959,-4.959,-4.959,-4.959,-4.959,-4.959,-4.959,-4.959,-4.959,-4.9389,-4.9113,-4.8786,-4.8033,-4.7456,-4.7093,-4.6904,-4.684,-4.6959,-4.7468,-4.7762,-4.788,-4.8114,-4.8172,-3.2676,-3.3105,-3.3418,-3.3418,-3.3418,-3.3418,0.0,0.0,0.0,-3.3418,-3.4465,-3.5129,-3.4153,-3.5786,-3.7004,-3.6065,0.0,-3.8866,0.0,0.0,0.0,0.0,0.0,0.0,0.0,0.0,0.0,0.0,0.0,0.0,0.0,0.0,-4.5116,-4.4419,-4.3911,-4.3532,-4.3304,-4.2887,-4.2887,-4.3269,-4.3081,-4.3081,-4.3157,-4.3462,-4.3615,0.0,0.0,0.0,0.0,-4.3615,-4.3615,-4.3615,-4.4125,-4.4256,-4.4331,-4.4762,-4.6655,-4.8984,-4.8984,-5.0741,-5.2929,-5.2929,-5.256,-5.2164,-5.2084,-5.1389,-5.0645,-5.0645,-4.8469,-4.5864,-4.4846,-4.2726,-4.1622,-4.4482,-4.5164,-4.5999,-4.8983,-4.959,-4.9461,-4.9047,-4.9332,-4.9461,-4.9047,-4.9332,-4.959,-4.959,-4.959,-4.959,-4.959,-4.959,-4.959,-4.959,-4.959,-4.959,-4.959,-4.959,-4.959,-4.959,-4.959,-4.9339,-4.8786,-4.8209,-4.7657,-4.7093,-4.6904,-4.6866,-4.69,-4.7468,-4.7762,-4.788,-4.8055,-4.8172,-3.2676,-3.3105,-3.3418,-3.3418,-3.3418,-3.3418,0.0,0.0,0.0,-3.3418,-3.4465,-3.5376,-3.5376,-3.646,-3.7614,-3.8491,-3.8707,0.0,0.0,0.0,0.0,0.0,0.0,0.0,0.0,0.0,0.0,0.0,0.0,0.0,0.0,0.0,-4.4891,-4.6411,-4.8312,-4.8529,-4.6955,-4.5447,-4.4891,-4.5244,-4.3746,-4.3233,-4.3615,-4.3615,0.0,0.0,0.0,0.0,0.0,-4.3615,-4.3615,-4.3746,-4.5266,-4.5862,-4.6063,-4.7681,-4.9271,-5.0576,-5.0576,-5.1607,-5.2929,-5.2929,-5.1886,-5.055,-5.0044,-4.9514,-4.9105,-4.9105,-4.6266,-4.3167,-4.3097,-4.1997,-4.1622,-4.4482,-4.5164,-4.5999,-4.8983,-4.959,-4.9177,-4.7689,-4.8567,-4.9112,-4.7689,-4.8632,-4.959,-4.959,-4.959,-4.959,-4.959,-4.959,-4.959,-4.959,-4.959,-4.959,-4.959,-4.959,-4.959,-4.959,-4.959,-4.9339,-4.8786,-4.8209,-4.7657,-4.7093,-4.6904,-4.6959,-4.7205,-4.756,-4.788,-4.8172,-4.8172,-4.8172,-3.2246,-3.2676,-3.3066,-3.334,-3.3418,-3.3418,-3.3418,0.0,0.0,-3.3418,-3.5191,-3.646,-3.5561,-3.791,-3.9564,-3.8363,-4.0075,0.0,0.0,0.0,0.0,0.0,0.0,0.0,0.0,0.0,0.0,0.0,0.0,0.0,0.0,0.0,-4.5041,-4.5341,-4.4891,-4.4515,-4.4235,-4.3801,-4.3725,-4.4105,-4.367,-4.3462,-4.3615,-4.3615,0.0,0.0,0.0,0.0,0.0,-4.3615,-4.3615,-4.3691,-4.4125,-4.4988,-4.5915,-4.6507,-4.7681,-4.9056,-4.9056,-4.9343,-4.9795,-4.9795,-4.9179,-4.8496,-4.8333,-4.7959,-4.7191,-4.5459,-4.4083,-4.2888,-4.1855,-4.1218,-4.1622,-4.4482,-4.4436,-4.4573,-4.7491,-4.7269,-4.6469,-4.5999,-4.7069,-4.7953,-4.7491,-4.8632,-4.959,-4.959,-4.959,-4.959,-4.959,-4.959,-4.959,-4.959,-4.959,-4.959,-4.959,-4.959,-4.959,-4.959,-4.9238,-4.8962,-4.8786,-4.7883,-4.7244,-4.7068,-4.7094,-4.7112,-4.7205,-4.7762,-4.8114,-4.8172,-4.8172,-4.8172,0.0,-3.2344,-3.2851,-3.3125,-3.3301,0.0,0.0,0.0,0.0,0.0,0.0,0.0,-3.6885,-3.9239,-4.0621,-3.8918,0.0,0.0,0.0,0.0,0.0,0.0,0.0,0.0,0.0,0.0,0.0,0.0,0.0,0.0,0.0,0.0,-4.4133,-4.4058,-4.4431,-4.4741,-4.4988,-4.4407,-4.4256,-4.4482,-4.3898,-4.3615,-4.3615,0.0,0.0,0.0,0.0,0.0,0.0,-4.3615,-4.3615,-4.3691,-4.4256,-4.5063,-4.5989,-4.6581,-4.7462,-4.8335,-4.8335,-4.8197,-4.8036,-4.8036,-4.7219,-4.6081,-4.5511,-4.5524,-4.5355,-4.3595,-4.3097,-4.2888,-4.1997,-4.1714,-4.2187,-4.3954,-4.3769,-4.37,-4.6066,-4.5864,-4.5164,-4.5164,-4.6402,-4.7425,-4.7425,-4.8632,-4.959,-4.959,-4.959,-4.959,-4.959,-4.959,-4.959,-4.959,-4.959,-4.959,-4.959,-4.959,-4.9515,-4.9289,-4.8962,-4.8586,-4.8159,-4.7506,-4.7029,-4.701,-4.6993,-4.7172,-4.7383,-4.7938,-4.8172,-4.8172,-4.8172,-4.8172,0.0,-3.2191,0.0,0.0,0.0,0.0,0.0,0.0,0.0,0.0,0.0,0.0,0.0,0.0,0.0,0.0,0.0,0.0,0.0,0.0,0.0,0.0,0.0,0.0,0.0,0.0,0.0,0.0,0.0,0.0,0.0,0.0,0.0,-4.287,-4.6102,-4.7904,-4.7972,-4.6507,-4.5714,-4.5714,-4.4256,-4.3615,-4.3615,0.0,0.0,0.0,0.0,0.0,0.0,-4.3615,-4.3615,-4.3746,-4.5191,-4.5766,-4.6019,-4.7563,-4.8049,-4.8003,-4.8003,-4.7705,-4.7222,-4.7176,-4.5617,-4.3491,-4.2153,-4.2614,-4.3573,-4.3066,-4.2958,-4.2958,-4.2958,-4.2958,-4.2958,-4.3097,-4.3027,-4.3353,-4.4778,-4.5028,-4.5028,-4.5028,-4.6335,-4.7425,-4.7425,-4.8632,-4.9525,-4.9461,-4.9461,-4.9396,-4.9332,-4.9396,-4.9461,-4.9461,-4.95,-4.954,-4.954,-4.954,-4.9314,-4.8812,-4.8686,-4.8184,-4.7118,-4.7104,-4.701,-4.6806,-4.6866,-4.7138,-4.7762,-4.8055,-4.8172,-4.8172,-4.8172,-4.8172,-3.3188,0.0,-3.2214,-3.3761,-3.3532,-3.3381,0.0,0.0,0.0,0.0,0.0,0.0,0.0,0.0,0.0,0.0,0.0,0.0,0.0,0.0,0.0,0.0,0.0,0.0,0.0,0.0,0.0,0.0,0.0,0.0,0.0,0.0,0.0,-4.2414,-4.331,-4.406,-4.4687,-4.4331,-4.4125,-4.4125,-4.3746,-4.3615,-4.3615,0.0,0.0,0.0,0.0,0.0,-4.3615,-4.3615,-4.3615,-4.3615,-4.3974,-4.4699,-4.5464,-4.5903,-4.5805,-4.5473,-4.5473,-4.4634,-4.3486,-4.3124,-4.2653,-4.2204,-4.2606,-4.2216,-4.1557,-4.1452,-4.1431,-4.1431,-4.1431,-4.1431,-4.1714,-4.2818,-4.2278,-4.1855,-4.3284,-4.3562,-4.3562,-4.3562,-4.5661,-4.7425,-4.7425,-4.8632,-4.9177,-4.8084,-4.7887,-4.7491,-4.6402,-4.7202,-4.7887,-4.7887,-4.8546,-4.8962,-4.8962,-4.8962,-4.8912,-4.8786,-4.7983,-4.7405,-4.7093,-4.697,-4.6873,-4.6806,-4.7257,-4.7703,-4.8055,-4.8172,-4.8172,-4.8172,-4.8172,-4.8172,-3.5333,-3.3834,-3.2078,-3.4575,-3.4024,-3.3572,-3.6474,0.0,0.0,0.0,0.0,0.0,0.0,0.0,0.0,0.0,0.0,0.0,0.0,0.0,0.0,0.0,0.0,0.0,0.0,0.0,0.0,0.0,0.0,0.0,0.0,0.0,0.0,0.0,-4.2219,-4.2497,-4.2994,-4.2994,-4.2994,-4.2994,-4.2994,-4.2994,-4.2994,-4.2994,0.0,0.0,0.0,0.0,-4.2994,-4.2994,-4.2994,-4.2994,-4.2994,-4.3425,-4.3909,-4.3909,-4.3739,-4.3525,-4.3525,-4.2888,-4.1928,-4.14,-4.1255,-4.1408,-4.1919,-4.1502,-4.1147,-4.2516,-4.2398,-4.1926,-4.1926,-4.1926,-4.1926,-4.2067,-4.1502,-4.1147,-4.1926,-4.2067,-4.2257,-4.2958,-4.4389,-4.5661,-4.6268,-4.7069,-4.7293,-4.6536,-4.6402,-4.611,-4.53,-4.5932,-4.6308,-4.6139,-4.7126,-4.772,-4.7474,-4.782,-4.8033,-4.8033,-4.7456,-4.7029,-4.6753,-4.6657,-4.6721,-4.7019,-4.7586,-4.7997,-4.8172,-4.8172,-4.8172,-4.8172,-4.8172,-4.8172,-3.7203,-3.5011,-3.249,-3.536,-3.4715,-3.4349,-3.8317,0.0,0.0,0.0,0.0,0.0,0.0,0.0,0.0,0.0,0.0,0.0,0.0,0.0,0.0,0.0,0.0,0.0,0.0,0.0,0.0,0.0,0.0,0.0,0.0,0.0,0.0,0.0,-4.1908,-4.2115,-4.2115,-4.226,-4.2322,-4.2322,-4.2322,-4.2322,-4.2322,-4.2322,0.0,0.0,0.0,0.0,-4.2322,-4.2322,-4.2322,-4.2322,-4.2322,-4.2281,-4.2219,-4.2219,-4.2177,-4.2115,-4.2115,-4.1866,-4.14,-4.1007,-4.0882,-4.0954,-4.1147,-4.1096,-4.1502,-4.4161,-4.3838,-4.2748,-4.2748,-4.2748,-4.2468,-4.1218,-4.0882,-4.0882,-4.0882,-4.1096,-4.1643,-4.2818,-4.3306,-4.3769,-4.4983,-4.5164,-4.5119,-4.4914,-4.4914,-4.4732,-4.446,-4.4642,-4.4663,-4.4518,-4.5568,-4.6263,-4.6084,-4.66,-4.7004,-4.7004,-4.7004,-4.6803,-4.6386,-4.6386,-4.6661,-4.7265,-4.7821,-4.8114,-4.8172,-4.8172,-4.8172,-4.8172,-4.8172,-4.8172,-3.7737,-3.6013,-3.3855,-3.642,-3.6407,-3.6355,-3.8724,0.0,0.0,0.0,0.0,0.0,0.0,0.0,0.0,0.0,0.0,0.0,0.0,0.0,0.0,0.0,0.0,0.0,0.0,0.0,0.0,0.0,0.0,0.0,0.0,0.0,0.0,0.0,0.0,-4.1089,-4.1089,-4.1876,-4.2322,-4.2322,-4.2322,-4.2322,-4.2322,-4.2322,-4.2322,0.0,0.0,-4.2322,-4.2322,-4.2322,-4.2322,-4.2322,-4.2322,-4.2094,-4.1669,-4.1669,-4.1421,-4.1089,-4.1089,-4.1048,-4.0965,-4.0903,-4.0882,-4.1147,-4.2398,-4.1926,-4.1218,-4.2958,-4.2398,-4.1218,-4.1218,-4.1218,-4.1147,-4.0933,-4.0882,-4.0882,-4.0882,-4.1855,-4.2818,-4.3027,-4.4045,-4.4983,-4.5164,-4.5164,-4.4778,-4.3562,-4.3423,-4.2805,-4.1144,-4.2072,-4.3084,-4.3768,-4.4694,-4.5764,-4.6823,-4.6631,-4.6426,-4.6426,-4.6426,-4.6522,-4.6686,-4.6746,-4.7019,-4.7619,-4.7703,-4.7938,-4.8172,-4.8172,-4.8172,-4.8172,-4.8172,-4.8172,-3.8238,-3.7607,-3.6572,-3.7543,-3.6692,-3.6158,0.0,0.0,0.0,0.0,0.0,0.0,0.0,0.0,0.0,0.0,0.0,0.0,0.0,0.0,0.0,0.0,0.0,0.0,0.0,0.0,0.0,0.0,0.0,0.0,0.0,0.0,0.0,0.0,0.0,0.0,-4.0882,-4.1296,-4.1503,-4.1503,-4.1503,-4.1503,-4.1503,-4.1503,-4.1503,-4.1503,0.0,-4.1503,-4.1503,-4.1503,-4.1503,-4.1503,-4.1503,-4.1379,-4.1193,-4.1193,-4.1069,-4.0882,-4.0882,-4.0882,-4.0882,-4.0882,-4.0882,-4.1004,-4.1714,-4.1431,-4.1004,-4.1714,-4.1431,-4.0882,-4.0882,-4.0882,-4.0882,-4.0882,-4.0882,-4.0882,-4.0882,-4.1431,-4.1926,-4.1926,-4.2446,-4.2866,-4.2866,-4.2866,-4.2656,-4.1997,-4.1714,-4.12,-4.029,-4.0598,-4.1198,-4.2082,-4.3249,-4.4357,-4.549,-4.6002,-4.6301,-4.6301,-4.6301,-4.6446,-4.6806,-4.6959,-4.7231,-4.7703,-4.788,-4.8055,-4.8172,-4.8172,-4.8172,-4.8172,-4.8172,-4.8172,-3.8736,-3.8788,-3.8567,-3.8496,0.0,0.0,0.0,0.0,0.0,0.0,0.0,0.0,0.0,0.0,0.0,0.0,0.0,0.0,0.0,0.0,0.0,0.0,0.0,0.0,0.0,0.0,0.0,0.0,0.0,0.0,0.0,0.0,0.0,0.0,0.0,0.0,-4.0882,-4.0882,-4.0882,-4.0882,-4.0882,-4.0882,-4.0882,-4.0882,-4.0882,-4.0882,-4.0882,-4.0882,-4.0882,-4.0882,-4.0882,-4.0882,-4.0882,-4.0882,-4.0882,-4.0882,-4.0882,-4.0882,-4.0882,-4.0882,-4.0882,-4.0882,-4.0882,-4.0882,-4.0882,-4.0882,-4.0882,-4.0882,-4.0882,-4.0882,-4.0882,-4.0882,-4.0882,-4.0882,-4.0882,-4.0882,-4.0882,-4.0882,-4.0882,-4.0882,-4.0882,-4.0882,-4.0882,-4.0882,-4.0841,-4.0737,-4.0448,-4.0137,-3.9909,-3.9578,-3.9778,-4.1067,-4.2088,-4.3275,-4.4669,-4.5732,-4.6301,-4.6301,-4.6361,-4.6541,-4.6806,-4.7053,-4.7383,-4.7703,-4.7938,-4.8114,-4.8172,-4.8172,-4.8172,-4.8172,-4.8172,-4.8172,-3.931,-3.8816,-3.819,-3.9067,-3.9874,0.0,-3.87,-4.0682,0.0,-4.1272,0.0,0.0,0.0,0.0,0.0,0.0,0.0,0.0,0.0,0.0,0.0,0.0,0.0,0.0,0.0,0.0,0.0,0.0,0.0,0.0,0.0,0.0,0.0,0.0,0.0,0.0,-4.0882,-4.0882,-4.0882,-4.0882,-4.0882,-4.0882,-4.0882,-4.0882,-4.0882,-4.0882,-4.0882,-4.0882,-4.0882,-4.0882,-4.0882,-4.0882,-4.0882,-4.0882,-4.0882,-4.0882,-4.0882,-4.0882,-4.0882,-4.0882,-4.0882,-4.0882,-4.0882,-4.0882,-4.0882,-4.0882,-4.0882,-4.0882,-4.0882,-4.0882,-4.0882,-4.0882,-4.0882,-4.0882,-4.0882,-4.0882,-4.0882,-4.0882,-4.0882,-4.0882,-4.0882,-4.0882,-4.0882,-4.0882,-4.0737,-4.0344,-4.0241,-3.9909,-3.8993,-3.8848,-3.9675,-4.187,-4.2206,-4.3341,-4.5914,-4.624,-4.6301,-4.6301,-4.6626,-4.6806,-4.6806,-4.7053,-4.7383,-4.7703,-4.7703,-4.788,-4.8172,-4.8172,-4.8172,-4.8172,-4.8172,-4.8172,-3.9594,-3.8816,-3.8137,-3.9169,-3.9733,0.0,0.0,-4.0439,-4.1672,-4.1215,-4.1501,0.0,0.0,0.0,0.0,0.0,0.0,0.0,0.0,0.0,0.0,0.0,0.0,0.0,0.0,0.0,0.0,0.0,0.0,0.0,0.0,0.0,0.0,0.0,0.0,0.0,0.0,-4.0882,-4.0882,-4.0882,-4.0882,-4.0882,-4.0882,-4.0882,-4.0882,-4.0882,-4.0882,-4.0882,-4.0882,-4.0882,-4.0882,-4.0882,-4.0882,-4.0882,-4.0882,-4.0882,-4.0882,-4.0882,-4.0882,-4.0882,-4.0882,-4.0882,-4.0882,-4.0882,-4.0882,-4.0882,-4.0882,-4.0882,-4.0882,-4.0882,-4.0882,-4.0882,-4.0882,-4.0882,-4.0882,-4.0882,-4.0882,-4.0882,-4.0882,-4.0882,-4.0882,-4.0882,-4.0882,-4.0655,-4.0406,-4.0261,-3.9674,-3.9179,-3.8827,-3.8605,-3.907,-4.0797,-4.2477,-4.3941,-4.4951,-4.5793,-4.6301,-4.6301,-4.6421,-4.6566,-4.6806,-4.7053,-4.7383,-4.7703,-4.788,-4.8055,-4.8172,-4.8172,-4.8172,-4.8172,-4.8172,-4.8172,-3.9594,-3.8939,-3.846,-3.9679,0.0,0.0,-4.0425,-4.0755,-4.11,-4.11,-4.1444,0.0,0.0,0.0,0.0,0.0,0.0,0.0,0.0,0.0,0.0,0.0,0.0,0.0,0.0,0.0,0.0,0.0,0.0,0.0,0.0,0.0,0.0,0.0,0.0,0.0,0.0,-4.0675,-4.0737,-4.0882,-4.0882,-4.0882,-4.0882,-4.0882,-4.0882,-4.0882,-4.0882,-4.0882,-4.0882,-4.0882,-4.0882,-4.0882,-4.0882,-4.0882,-4.0882,-4.0882,-4.0882,-4.0882,-4.0882,-4.0882,-4.0882,-4.0882,-4.0882,-4.0882,-4.0882,-4.0882,-4.0882,-4.0882,-4.0882,-4.0882,-4.0882,-4.0882,-4.0882,-4.0882,-4.0882,-4.0882,-4.0882,-4.0882,-4.0882,-4.0882,-4.0758,-4.0675,-4.0675,-4.0303,-3.9951,-3.9736,-3.9179,-3.8724,-3.8647,-3.8378,-3.888,-4.0646,-4.2918,-4.4436,-4.489,-4.5793,-4.6301,-4.6301,-4.6301,-4.6481,-4.69,-4.7231,-4.7501,-4.788,-4.8055,-4.8172,-4.8172,-4.8172,-4.8172,-4.8172,-4.8172,-4.8172,-3.9362,-3.9262,-3.9188,0.0,0.0,0.0,-4.2861,-4.2037,-4.11,-4.11,0.0,-4.2986,0.0,0.0,0.0,0.0,0.0,0.0,0.0,0.0,0.0,0.0,0.0,0.0,0.0,0.0,0.0,0.0,0.0,0.0,0.0,0.0,0.0,0.0,0.0,0.0,0.0,-4.022,-4.0448,-4.0862,-4.0862,-4.0862,-4.0882,-4.0882,-4.0882,-4.0882,-4.0882,-4.0882,-4.0882,-4.0882,-4.0882,-4.0882,-4.0882,-4.0882,-4.0882,-4.0882,-4.0882,-4.0882,-4.0882,-4.0882,-4.0882,-4.0882,-4.0882,-4.0882,-4.0882,-4.0882,-4.0882,-4.0882,-4.0882,-4.0882,-4.0882,-4.0882,-4.0882,-4.0882,-4.0882,-4.0882,-4.0882,-4.0862,-4.0862,-4.0862,-4.051,-4.022,-4.022,-3.9778,-3.9302,-3.8848,-3.8786,-3.8621,-3.8233,-3.8191,-3.9254,-4.1906,-4.3419,-4.4829,-4.618,-4.6301,-4.6301,-4.6301,-4.6301,-4.6601,-4.7146,-4.7501,-4.788,-4.8172,-4.8172,-4.8172,-4.8172,-4.8172,-4.8172,-4.8172,-4.8172,-4.8172,-3.9594,-3.8602,0.0,0.0,0.0,0.0,0.0,-4.2037,0.0,0.0,0.0,0.0,0.0,0.0,0.0,0.0,0.0,0.0,0.0,0.0,0.0,0.0,0.0,0.0,0.0,0.0,0.0,0.0,0.0,0.0,0.0,0.0,0.0,0.0,0.0,0.0,0.0,0.0,-3.9806,-3.993,-3.993,-4.0261,-4.0882,-4.0882,-4.0882,-4.0882,-4.0882,-4.0882,-4.0882,-4.0882,-4.0882,-4.0882,-4.0882,-4.0882,-4.0882,-4.0882,-4.0882,-4.0882,-4.0882,-4.0882,-4.0882,-4.0882,-4.0882,-4.0882,-4.0882,-4.0882,-4.0882,-4.0882,-4.0882,-4.0882,-4.0882,-4.0882,-4.0882,-4.0882,-4.0882,-4.0882,-4.0882,-4.0634,-4.0406,-4.0406,-4.0034,-3.9674,-3.9674,-3.9282,-3.8931,-3.8807,-3.8585,-3.8336,-3.8212,-3.9012,-3.9888,-4.071,-4.2918,-4.4436,-4.4829,-4.5732,-4.6301,-4.6301,-4.6481,-4.6601,-4.6601,-4.7053,-4.7383,-4.7501,-4.7938,-4.8172,-4.8172,-4.8172,-4.8172,-4.8172,-4.8172,-4.8172,-3.8319,0.0,0.0,0.0,0.0,0.0,0.0,0.0,0.0,0.0,0.0,0.0,0.0,0.0,0.0,0.0,0.0,0.0,0.0,0.0,0.0,0.0,0.0,0.0,0.0,0.0,0.0,0.0,0.0,0.0,0.0,0.0,0.0,0.0,0.0,0.0,0.0,-3.9199,-3.9282,-3.9468,-3.9468,-3.9827,-4.0344,-4.0344,-4.0344,-4.0344,-4.0344,-4.0344,-4.0344,-4.0344,-4.0448,-4.0613,-4.0613,-4.0717,-4.0882,-4.0882,-4.0882,-4.0882,-4.0882,-4.0882,-4.0882,-4.0882,-4.0882,-4.0882,-4.0882,-4.0882,-4.0882,-4.0882,-4.0882,-4.0841,-4.0655,-4.0613,-4.0655,-4.0841,-4.0737,-4.0593,-4.0593,-4.0261,-3.9951,-3.993,-3.9578,-3.9199,-3.9199,-3.8807,-3.8585,-3.8585,-3.8357,-3.8191,-3.8191,-3.888,-3.9823,-4.0882,-4.2477,-4.3941,-4.5013,-4.5853,-4.6301,-4.6301,-4.6506,-4.6506,-4.6301,-4.6993,-4.7383,-4.7383,-4.7938,-4.8172,-4.8172,-4.8172,-4.8172,-4.8172,-4.8172,-4.8172,0.0,0.0,0.0,0.0,0.0,0.0,0.0,0.0,0.0,0.0,0.0,0.0,0.0,0.0,0.0,0.0,0.0,0.0,0.0,0.0,0.0,0.0,0.0,0.0,0.0,0.0,0.0,0.0,0.0,0.0,0.0,0.0,0.0,0.0,0.0,0.0,0.0,-3.8724,-3.8931,0.0,-3.9344,-3.9344,-3.9344,-3.9426,-3.9468,-3.9468,-3.9468,-3.9468,-3.9468,-3.9468,-3.9716,-4.0158,-4.0137,-4.0386,-4.0758,-4.0758,-4.0758,-4.0758,-4.0758,-4.0758,-4.0758,-4.0758,-4.0758,-4.0758,-4.0758,-4.0758,-4.0758,-4.0758,-4.0758,-4.0655,-4.0261,-4.0158,-4.0261,-4.0655,-4.0427,-4.0137,-4.0137,-3.9785,-3.9406,-3.9406,-3.9034,-3.8724,-3.8724,-3.846,-3.8191,-3.8191,-3.8191,-3.8191,-3.8191,-3.8304,-3.932,-4.1779,-4.2264,-4.3419,-4.5939,-4.624,-4.6301,-4.6301,-4.6301,-4.6301,-4.6301,-4.7112,-4.7645,-4.7645,-4.7938,-4.8114,-4.8114,-4.8172,-4.8172,-4.8172,-4.8172,-4.8172,0.0,0.0,0.0,0.0,0.0,0.0,0.0,0.0,0.0,0.0,0.0,0.0,0.0,0.0,0.0,0.0,0.0,0.0,0.0,0.0,0.0,0.0,0.0,0.0,0.0,0.0,0.0,0.0,0.0,0.0,0.0,0.0,0.0,0.0,0.0,0.0,-3.8336,-3.8336,-3.8378,0.0,-3.8481,-3.8481,-3.8502,-3.9206,-3.9468,-3.9468,-3.9468,-3.9468,-3.9468,-3.9468,-3.953,-3.9612,-3.9682,-3.9744,-3.9827,-3.9827,-3.9827,-3.9827,-3.9827,-3.9827,-3.9827,-3.9827,-3.9827,-3.9827,-3.9827,-3.9827,-3.9827,-3.9827,-3.9827,-3.9806,-3.9702,-3.9612,-3.9702,-3.9806,-3.9744,-3.9682,-3.9682,-3.9261,-3.8931,-3.8931,-3.8626,-3.8336,-3.8336,-3.8253,-3.8191,-3.8191,-3.8191,-3.8191,-3.8191,-3.9123,-4.0018,-4.0581,-4.254,-4.4127,-4.4706,-4.5671,-4.6301,-4.6301,-4.6566,-4.6566,-4.6301,-4.6721,-4.6959,-4.6959,-4.7527,-4.7821,-4.7821,-4.8055,-4.8172,-4.8172,-4.8172,-4.8172,0.0,0.0,0.0,0.0,0.0,0.0,0.0,0.0,0.0,0.0,0.0,0.0,0.0,0.0,0.0,0.0,0.0,0.0,0.0,0.0,0.0,0.0,0.0,0.0,0.0,0.0,0.0,0.0,0.0,0.0,0.0,0.0,0.0,0.0,0.0,-3.8191,-3.8191,-3.8191,-3.8191,-3.8191,-3.8191,-3.8191,-3.8212,-3.8667,-3.8895,-3.8895,-3.8895,-3.8895,-3.8895,-3.8895,-3.9019,-3.9137,-3.9137,-3.9282,-3.9468,-3.9468,-3.9468,-3.9468,-3.9468,-3.9468,-3.9468,-3.9468,-3.9468,-3.9468,-3.9468,-3.9468,-3.9468,-3.9468,-3.9468,-3.9426,-3.9199,-3.9137,-3.9144,-3.8937,-3.9061,-3.9137,-3.9137,-3.8854,-3.8523,-3.8523,-3.8336,-3.8191,-3.8191,-3.8191,-3.8191,-3.8191,-3.8191,-3.8437,-3.9057,-3.9757,-4.071,-4.2034,-4.3419,-4.4559,-4.522,-4.5914,-4.6301,-4.6301,-4.6421,-4.6566,-4.6566,-4.6746,-4.684,-4.6993,-4.7645,-4.7938,-4.7938,-4.8114,-4.8172,-4.8172,-4.8172,-4.8172,0.0,0.0,0.0,0.0,0.0,0.0,0.0,0.0,0.0,0.0,0.0,0.0,0.0,0.0,0.0,0.0,0.0,0.0,0.0,0.0,0.0,0.0,0.0,0.0,0.0,0.0,0.0,0.0,0.0,0.0,0.0,0.0,0.0,0.0,0.0,-3.8191,-3.8191,-3.8191,-3.8191,-3.8191,-3.8191,-3.8191,-3.8191,-3.8191,-3.8191,-3.8191,-3.8191,-3.8191,-3.8191,-3.8191,-3.8398,-3.8662,-3.8662,-3.8889,-3.9309,-3.9309,-3.9309,-3.9309,-3.9309,-3.9309,-3.9309,-3.9309,-3.9309,-3.9309,-3.9309,-3.9309,-3.9309,-3.9309,-3.9309,-3.9226,-3.8765,-3.8662,-3.8647,-3.8274,-3.846,-3.8662,-3.8662,-3.844,-3.8191,-3.8191,-3.8191,-3.8191,-3.8191,-3.8191,-3.8191,-3.8191,-3.837,-3.8946,-4.0084,-4.0387,-4.1396,-4.3669,-4.4189,-4.4767,-4.5853,-4.618,-4.6301,-4.6301,-4.6301,-4.6446,-4.6806,-4.684,-4.7019,-4.7265,-4.7821,-4.8114,-4.8114,-4.8172,-4.8172,-4.8172,-4.8172,-4.8172,0.0,0.0,0.0,0.0,0.0,0.0,0.0,0.0,0.0,0.0,0.0,0.0,0.0,0.0,0.0,0.0,0.0,0.0,0.0,0.0,0.0,0.0,0.0,0.0,0.0,0.0,0.0,0.0,0.0,0.0,0.0,0.0,-3.8191,-3.8191,-3.8191,-3.8191,-3.8191,-3.8191,-3.8191,-3.8191,-3.8191,-3.8191,-3.8191,-3.8191,-3.8191,-3.8191,-3.8191,-3.8191,-3.8191,-3.8191,-3.8212,-3.8274,-3.8274,-3.8316,-3.8357,-3.8357,-3.8357,-3.8357,-3.8357,-3.8357,-3.8357,-3.8357,-3.8357,-3.8357,-3.8357,-3.8357,-3.8357,-3.8357,-3.8357,-3.8357,-3.8295,-3.8274,-3.8253,-3.8191,-3.8233,-3.8274,-3.8274,-3.8233,-3.8191,-3.8191,-3.8191,-3.8191,-3.8191,-3.8191,-3.8191,-3.8191,-3.9188,-4.0018,-4.0214,-4.1203,-4.2074,-4.2454,-4.3544,-4.4374,-4.4559,-4.5611,-4.6301,-4.6301,-4.6301,-4.6446,-4.6806,-4.6993,-4.7265,-4.7645,-4.7703,-4.7762,-4.7762,-4.8055,-4.8172,-4.8172,-4.8172,-4.8172,0.0,0.0,0.0,0.0,0.0,0.0,0.0,0.0,0.0,0.0,0.0,0.0,0.0,0.0,0.0,0.0,0.0,0.0,0.0,0.0,0.0,0.0,0.0,0.0,0.0,0.0,0.0,0.0,0.0,0.0,0.0,-3.8046,-3.8191,-3.8191,-3.8191,0.0,-3.8191,-3.8191,-3.8191,-3.8191,-3.8191,-3.8191,-3.8191,-3.8191,-3.8191,-3.8191,-3.8191,-3.8191,-3.8191,-3.8191,-3.8191,-3.8191,-3.8191,-3.8191,-3.8191,-3.8191,-3.8191,-3.8191,-3.8191,-3.8191,-3.8191,-3.8191,-3.8191,-3.8191,-3.8191,-3.8191,-3.8191,-3.8191,-3.8191,-3.8191,-3.8191,-3.8191,-3.8191,-3.8191,-3.8191,-3.8191,-3.8191,-3.8191,-3.8191,-3.8191,-3.8191,-3.8191,-3.8191,-3.8191,-3.8191,-3.8191,-3.8681,-3.9626,-4.1139,-4.1843,-4.2517,-4.3294,-4.4583,-4.5159,-4.4374,-4.5525,-4.6301,-4.6301,-4.6301,-4.6446,-4.6806,-4.7053,-4.7383,-4.7703,-4.788,-4.7997,-4.7997,-4.8114,-4.8172,-4.8172,-4.8172,-4.8172,0.0,0.0,0.0,0.0,0.0,0.0,0.0,0.0,0.0,0.0,0.0,0.0,0.0,0.0,0.0,0.0,0.0,0.0,0.0,0.0,0.0,0.0,0.0,0.0,0.0,0.0,0.0,0.0,0.0,0.0,-3.7322,-3.7653,-3.7839,-3.7839,-3.7839,-3.7881,-3.8005,-3.8129,-3.8191,-3.8191,-3.8191,-3.8191,-3.8191,-3.8191,-3.8191,-3.8191,-3.8191,-3.8191,-3.8191,-3.8191,-3.8191,-3.8191,-3.8191,-3.8191,-3.8191,-3.8191,-3.8191,-3.8191,-3.8191,-3.8191,-3.8191,-3.8191,-3.8191,-3.8191,-3.8191,-3.8191,-3.8191,-3.8191,-3.8191,-3.8191,-3.8191,-3.8191,-3.8191,-3.8191,-3.8191,-3.8191,-3.8191,-3.8191,-3.8191,-3.8191,-3.8191,-3.8191,-3.8191,-3.8191,-3.8191,-3.8191,-3.8503,-3.9451,-4.146,-4.2011,-4.258,-4.3669,-4.4645,-4.4829,-4.3855,-4.4706,-4.5281,-4.5281,-4.5281,-4.5586,-4.6215,-4.6491,-4.6883,-4.756,-4.788,-4.8114,-4.8172,-4.8172,-4.8172,-4.8172,-4.8172,-4.8172,0.0,0.0,0.0,0.0,0.0,0.0,0.0,0.0,0.0,0.0,0.0,0.0,0.0,0.0,0.0,0.0,0.0,0.0,0.0,0.0,0.0,0.0,0.0,0.0,0.0,0.0,0.0,0.0,0.0,0.0,-3.6846,-3.6867,-3.6867,-3.6867,-3.6867,-3.7094,-3.7529,-3.7964,-3.8191,-3.8191,-3.8191,-3.8191,-3.8191,-3.8191,-3.8191,-3.8191,-3.8191,-3.8191,-3.8191,-3.8191,-3.8191,-3.8191,-3.8191,-3.8191,-3.8191,-3.8191,-3.8191,-3.8191,-3.8191,-3.8191,-3.8191,-3.8191,-3.8191,-3.8191,-3.8191,-3.8191,-3.8191,-3.8191,-3.8191,-3.8191,-3.8191,-3.8191,-3.8191,-3.8191,-3.8191,-3.8191,-3.8191,-3.8191,-3.8191,-3.8191,-3.8191,-3.8191,-3.8191,-3.8191,-3.8191,-3.8191,-3.9254,-4.0149,-4.0257,-4.1396,-4.2201,-4.2264,-4.2391,-4.2391,-4.2328,-4.2391,-4.2391,-4.2391,-4.2391,-4.3146,-4.478,-4.4817,-4.5572,-4.7205,-4.7586,-4.788,-4.8172,-4.8172,-4.8172,-4.8172,-4.8172,-4.8172,0.0,0.0,0.0,0.0,0.0,0.0,0.0,0.0,0.0,0.0,0.0,0.0,0.0,0.0,0.0,0.0,0.0,0.0,0.0,0.0,0.0,0.0,0.0,0.0,0.0,0.0,0.0,0.0,0.0,0.0,-3.6349,-3.6639,-3.6804,-3.6804,-3.6804,-3.6887,-3.7053,-3.7218,-3.7301,-3.7301,-3.7301,-3.7301,-3.7301,-3.7612,-3.7736,-3.7757,-3.8046,-3.8191,-3.8191,-3.8191,-3.8191,-3.8191,-3.8191,-3.8191,-3.8191,-3.8191,-3.8191,-3.8191,-3.8191,-3.8191,-3.8191,-3.8191,-3.8191,-3.8191,-3.8191,-3.8191,-3.8191,-3.8191,-3.8191,-3.8191,-3.8191,-3.8191,-3.8191,-3.8191,-3.8191,-3.8191,-3.8191,-3.8191,-3.8191,-3.8191,-3.8191,-3.8191,-3.8191,-3.8191,-3.8191,-3.8191,-3.8636,-3.9254,-4.0084,-4.0646,-4.0882,-4.0882,-4.1715,-4.182,-4.1011,-4.1715,-4.258,-4.3482,-4.3544,-4.4312,-4.5949,-4.6225,-4.6704,-4.7501,-4.788,-4.7997,-4.788,-4.8114,-4.8172,-4.8172,-4.8172,-4.8172,-4.1455,0.0,0.0,0.0,0.0,0.0,0.0,0.0,0.0,0.0,0.0,0.0,0.0,0.0,0.0,0.0,0.0,0.0,0.0,0.0,0.0,0.0,0.0,0.0,0.0,0.0,0.0,0.0,0.0,0.0,-3.5873,-3.6183,-3.6349,-3.6349,-3.6494,-3.6577,-3.6577,-3.6722,-3.6804,-3.6804,-3.6804,-3.6804,-3.6825,-3.7115,-3.726,-3.7281,-3.7591,-3.7902,-3.8191,-3.8191,-3.8191,-3.8191,-3.8191,-3.8191,-3.8191,-3.8191,-3.8191,-3.8191,-3.8191,-3.8191,-3.8191,-3.8191,-3.8191,-3.8191,-3.8191,-3.8191,-3.8191,-3.8191,-3.8191,-3.8191,-3.8191,-3.8191,-3.8191,-3.8191,-3.8191,-3.8191,-3.8191,-3.8191,-3.8191,-3.8191,-3.8191,-3.8191,-3.8191,-3.8191,-3.8191,-3.8191,-3.8191,-3.8503,-3.9386,-3.9517,-3.9517,-3.9517,-4.0322,-4.0516,-3.9561,-4.0775,-4.1906,-4.2855,-4.3419,-4.4497,-4.601,-4.6345,-4.6824,-4.7501,-4.788,-4.7938,-4.7703,-4.8055,-4.8172,-4.8172,-4.8172,-4.8068,0.0,0.0,0.0,0.0,0.0,0.0,0.0,0.0,0.0,0.0,0.0,0.0,0.0,0.0,0.0,0.0,0.0,0.0,0.0,0.0,0.0,0.0,0.0,0.0,0.0,0.0,0.0,0.0,0.0,-3.5418,-3.5418,-3.5418,-3.5418,-3.5418,-3.5852,-3.6101,-3.6101,-3.6535,-3.6763,-3.6763,-3.6763,-3.6763,-3.6763,-3.6784,-3.6784,-3.6784,-3.6804,-3.7322,-3.815,-3.815,-3.815,-3.8171,-3.8171,-3.8171,-3.8191,-3.8191,-3.8191,-3.8191,-3.8191,-3.8191,-3.8191,-3.8191,-3.8191,-3.8191,-3.8191,-3.8191,-3.8191,-3.8191,-3.8191,-3.8191,-3.8191,-3.8191,-3.8191,-3.8191,-3.8191,-3.8191,-3.8191,-3.8191,-3.8191,-3.8191,-3.8191,-3.8191,-3.8191,-3.8191,-3.8191,-3.8191,-3.8191,-3.8191,-3.8191,-3.8191,-3.8191,-3.8191,-3.8258,-3.8258,-3.8191,-3.9451,-4.0192,-4.0257,-4.1756,-4.3333,-4.4695,-4.5061,-4.5874,-4.7205,-4.7501,-4.7677,-4.7677,-4.8055,-4.8172,-4.8172,-4.8172,-4.7858,-4.2162,0.0,0.0,0.0,0.0,0.0,0.0,0.0,0.0,0.0,0.0,0.0,0.0,0.0,0.0,0.0,0.0,0.0,0.0,0.0,0.0,0.0,0.0,0.0,0.0,0.0,0.0,0.0,0.0,-3.5418,-3.5418,-3.5418,-3.5418,-3.5418,-3.5542,-3.5604,-3.5604,-3.5749,-3.5811,-3.5811,-3.5811,-3.5811,-3.5811,-3.6142,-3.6308,-3.6328,-3.666,-3.6949,-3.7177,-3.7177,-3.7384,-3.7674,-3.7674,-3.7881,-3.8191,-3.8191,-3.8191,-3.8191,-3.8191,-3.8191,-3.8191,-3.8191,-3.8191,-3.8191,-3.8191,-3.8191,-3.8191,-3.8191,-3.8191,-3.8191,-3.8191,-3.8191,-3.8191,-3.8191,-3.8191,-3.8191,-3.8191,-3.8191,-3.8191,-3.8191,-3.8191,-3.8191,-3.8191,-3.8191,-3.8191,-3.8191,-3.8191,-3.8191,-3.8191,-3.8191,-3.8191,-3.8191,-3.9078,-3.9254,-3.8237,-3.9451,-4.0646,-4.1588,-4.2074,-4.3544,-4.6095,-4.6336,-4.6755,-4.756,-4.7619,-4.7613,-4.7398,-4.7931,-4.8172,-4.8172,-4.7754,-4.7257,-4.2564,-4.2791,-4.2986,0.0,0.0,0.0,0.0,0.0,0.0,0.0,0.0,0.0,0.0,0.0,0.0,0.0,0.0,0.0,0.0,0.0,0.0,0.0,0.0,0.0,0.0,0.0,0.0,0.0,-3.5418,-3.5418,-3.5418,-3.5418,-3.5418,-3.5418,-3.5418,-3.5418,-3.5418,-3.5418,-3.5418,-3.5418,-3.5418,-3.5418,-3.5438,-3.5707,-3.5832,-3.5832,-3.6121,-3.6225,-3.6225,-3.6225,-3.6618,-3.7198,-3.7198,-3.7363,-3.7612,-3.7612,-3.7736,-3.7902,-3.7902,-3.8026,-3.8191,-3.8191,-3.8191,-3.8191,-3.8191,-3.8191,-3.8191,-3.8191,-3.8191,-3.8191,-3.8191,-3.8191,-3.8191,-3.8191,-3.8191,-3.8191,-3.8191,-3.8191,-3.8191,-3.8191,-3.8191,-3.8191,-3.8191,-3.8191,-3.8191,-3.8191,-3.8191,-3.8191,-3.8191,-3.8191,-3.8191,-3.8191,-3.888,-3.9078,-3.8258,-3.9451,-4.0775,-4.2138,-4.2832,-4.4288,-4.6686,-4.69,-4.701,-4.7191,-4.7283,-4.7256,-4.697,-4.7545,-4.7702,-4.7466,-4.7127,-4.6682,-4.2986,-4.2986,-4.2986,-4.2986,0.0,0.0,-4.1558,-4.1329,0.0,0.0,0.0,0.0,0.0,0.0,0.0,0.0,0.0,0.0,0.0,0.0,0.0,0.0,0.0,0.0,0.0,0.0,0.0,-3.5418,-3.5418,-3.5418,-3.5418,-3.5418,-3.5418,-3.5418,-3.5418,-3.5418,-3.5418,-3.5418,-3.5418,-3.5418,-3.5418,-3.5418,-3.5418,-3.5418,-3.5418,-3.5418,-3.5418,-3.5418,-3.5418,-3.5418,-3.5935,-3.6722,-3.6722,-3.6763,-3.6804,-3.6804,-3.7053,-3.7425,-3.7425,-3.7695,-3.8026,-3.8026,-3.8067,-3.8109,-3.8109,-3.815,-3.8191,-3.8191,-3.8191,-3.8191,-3.8191,-3.8191,-3.8191,-3.8191,-3.8191,-3.8191,-3.8191,-3.8191,-3.8191,-3.8191,-3.8191,-3.8191,-3.8191,-3.8191,-3.8191,-3.8191,-3.8191,-3.8191,-3.8191,-3.8191,-3.8191,-3.8191,-3.8304,-3.837,-3.8191,-3.9583,-4.0924,-4.2069,-4.3612,-4.5195,-4.6484,-4.6815,-4.6678,-4.6276,-4.6547,-4.6633,-4.6395,-4.697,-4.6944,-4.6395,-4.6395,-4.6081,-4.2986,-4.2986,-4.2986,0.0,0.0,0.0,-4.2681,-4.2625,0.0,0.0,0.0,0.0,0.0,0.0,0.0,0.0,0.0,0.0,0.0,0.0,0.0,0.0,0.0,0.0,0.0,0.0,-3.5418,-3.5418,-3.5418,-3.5418,-3.5418,-3.5418,-3.5418,-3.5418,-3.5418,-3.5418,-3.5418,-3.5418,-3.5418,-3.5418,-3.5418,-3.5418,-3.5418,-3.5418,-3.5418,-3.5418,-3.5418,-3.5418,-3.5418,-3.5418,-3.5749,-3.6246,-3.6246,-3.6473,-3.6804,-3.6804,-3.6867,-3.6929,-3.6929,-3.6991,-3.7074,-3.7074,-3.7322,-3.7632,-3.7632,-3.7881,-3.8191,-3.8191,-3.8191,-3.8191,-3.8191,-3.8191,-3.8191,-3.8191,-3.8191,-3.8191,-3.8191,-3.8191,-3.8191,-3.8191,-3.8191,-3.8191,-3.8191,-3.8191,-3.8191,-3.8191,-3.8191,-3.8191,-3.8191,-3.8191,-3.8191,-3.8191,-3.9188,-3.9386,-3.8304,-4.0387,-4.1724,-4.1565,-4.2867,-4.4037,-4.497,-4.5062,-4.5186,-4.5374,-4.5454,-4.5619,-4.5794,-4.6369,-4.6342,-4.5794,-4.5794,-4.548,0.0,0.0,0.0,-4.2986,0.0,0.0,0.0,-4.2037,0.0,0.0,0.0,0.0,0.0,0.0,0.0,0.0,0.0,0.0,0.0,0.0,0.0,0.0,0.0,0.0,0.0,0.0,-3.5418,-3.5418,-3.5418,-3.5418,-3.5418,-3.5418,-3.5418,-3.5418,-3.5418,-3.5418,-3.5418,-3.5418,-3.5418,-3.5418,-3.5418,-3.5418,-3.5418,-3.5418,-3.5418,-3.5418,-3.5418,-3.5418,-3.5418,-3.5418,-3.5562,-3.5769,-3.5769,-3.5914,-3.6121,-3.6121,-3.6266,-3.6453,-3.6453,-3.6618,-3.6804,-3.6804,-3.697,-3.7156,-3.7156,-3.7322,-3.7488,-3.7488,-3.7488,-3.7488,-3.7488,-3.7674,-3.7839,-3.7839,-3.8026,-3.8191,-3.8191,-3.8191,-3.8191,-3.8191,-3.8005,-3.7922,-3.815,-3.8191,-3.8191,-3.8191,-3.8191,-3.8191,-3.8191,-3.8191,-3.8353,-3.8739,-3.9412,-3.9691,-3.9409,-4.0612,-4.1561,-4.1981,-4.265,-4.3514,-4.4585,-4.4618,-4.4608,-4.4675,-4.4591,-4.4697,-4.4973,-4.5425,-4.5454,-4.5111,-4.5111,-4.5009,0.0,0.0,0.0,0.0,0.0,-4.2737,0.0,0.0,0.0,0.0,0.0,0.0,0.0,0.0,0.0,0.0,0.0,0.0,0.0,0.0,0.0,0.0,0.0,0.0,0.0,0.0,-3.5418,-3.5418,-3.5418,-3.5418,-3.5418,-3.5418,-3.5418,-3.5418,-3.5418,-3.5418,-3.5418,-3.5418,-3.5418,-3.5418,-3.5418,-3.5418,-3.5418,-3.5418,-3.5418,-3.5418,-3.5418,-3.5418,-3.5418,-3.5418,-3.5418,-3.5418,-3.5418,-3.5418,-3.5418,-3.5418,-3.5666,-3.5976,-3.5976,-3.6225,-3.6535,-3.6535,-3.6597,-3.668,-3.6784,-3.6804,-3.6804,-3.6804,-3.6804,-3.6804,-3.6804,-3.7074,-3.7363,-3.7363,-3.7653,-3.7922,-3.7922,-3.7922,-3.7922,-3.7922,-3.7612,-3.7508,-3.7964,-3.7984,-3.7922,-3.7922,-3.8166,-3.8232,-3.7988,-3.8166,-3.8458,-3.8894,-3.9107,-3.9503,-4.0163,-4.0693,-4.1378,-4.2365,-4.2721,-4.3262,-4.4259,-4.4292,-4.4263,-4.4117,-4.3964,-4.4064,-4.4313,-4.4559,-4.4668,-4.4668,-4.4668,-4.4668,0.0,0.0,0.0,0.0,-4.2986,0.0,0.0,0.0,0.0,0.0,0.0,0.0,0.0,0.0,0.0,0.0,0.0,0.0,0.0,0.0,0.0,0.0,0.0,0.0,0.0,0.0,0.0,-3.5418,-3.5418,-3.5418,-3.5418,-3.5418,-3.5418,-3.5418,-3.5418,-3.5418,-3.5418,-3.5418,-3.5418,-3.5418,-3.5418,-3.5418,-3.5418,-3.5418,-3.5418,-3.5418,-3.5418,-3.5418,-3.5418,-3.5418,-3.5418,-3.5418,-3.5418,-3.5418,-3.5418,-3.5418,-3.5459,-3.55,-3.55,-3.5542,-3.5583,-3.5583,-3.5852,-3.6266,-3.668,-3.6804,-3.6804,-3.6804,-3.6804,-3.6804,-3.6804,-3.6846,-3.6887,-3.6887,-3.6929,-3.697,-3.697,-3.697,-3.697,-3.697,-3.6908,-3.7032,-3.7488,-3.7239,-3.697,-3.697,-3.7933,-3.8251,-3.7078,-3.7933,-3.823,-3.7188,-3.8102,-3.8816,-3.8897,-4.1037,-4.2233,-4.1897,-4.3004,-4.3494,-4.3187,-4.3162,-4.3305,-4.3482,-4.3734,-4.4064,-4.4313,-4.4559,-4.4668,-4.4668,-4.4668,-4.4668,0.0,0.0,0.0,0.0,0.0,0.0,-4.2986,0.0,-4.2986,0.0,0.0,0.0,0.0,0.0,0.0,0.0,0.0,0.0,0.0,0.0,0.0,0.0,0.0,0.0,0.0,0.0,0.0,0.0,0.0,-3.5418,-3.5418,-3.5418,-3.5418,-3.5418,-3.5418,-3.5418,-3.5418,-3.5418,-3.5418,-3.5418,-3.5418,-3.5418,-3.5418,-3.5418,-3.5418,-3.5418,-3.5418,-3.5418,-3.5418,-3.5418,-3.5418,-3.5418,-3.5418,-3.5418,-3.5418,-3.5418,-3.5418,-3.5418,-3.5418,-3.5418,-3.5418,-3.5418,-3.5562,-3.5749,-3.5935,-3.5997,-3.5997,-3.5997,-3.5997,-3.5997,-3.5997,-3.6204,-3.639,-3.639,-3.6618,-3.6804,-3.6804,-3.6804,-3.6804,-3.6804,-3.6577,-3.6473,-3.666,-3.6763,-3.6804,-3.6804,-3.7232,-3.7403,-3.6869,-3.7296,-3.7551,-3.7527,-3.8645,-3.9575,-4.0038,-4.1774,-4.2741,-4.2519,-4.3031,-4.3212,-4.2986,-4.2986,-4.3017,-4.3184,-4.3653,-4.3955,-4.4064,-4.4476,-4.4668,-4.4668,-4.4668,-4.4668,-4.2986,0.0,0.0,0.0,0.0,0.0,0.0,0.0,0.0,0.0,0.0,0.0,0.0,0.0,-4.2986,-4.2986,0.0,0.0,0.0,0.0,0.0,0.0,0.0,0.0,0.0,0.0,0.0,0.0,-3.5418,0.0,-3.5418,-3.5418,-3.5418,-3.5418,-3.5418,-3.5418,-3.5418,-3.5418,-3.5418,-3.5418,-3.5418,-3.5418,-3.5418,-3.5418,-3.5418,-3.5418,-3.5418,-3.5418,-3.5418,-3.5418,-3.5418,-3.5418,-3.5418,-3.5418,-3.5418,-3.5418,-3.5418,-3.5418,-3.5418,-3.5418,-3.5418,-3.5418,-3.5418,-3.5418,-3.5418,-3.5418,-3.5418,-3.5418,-3.5418,-3.5418,-3.5418,-3.5666,-3.5914,-3.5914,-3.6183,-3.6432,-3.6432,-3.6432,-3.6432,-3.6432,-3.6142,-3.5914,-3.5914,-3.6204,-3.6432,-3.6432,-3.6728,-3.6792,-3.6475,-3.6728,-3.7023,-3.7262,-3.8442,-3.9428,-4.0001,-4.1558,-4.2625,-4.2986,-4.2986,-4.2986,-4.2986,-4.2986,-4.2986,-4.2986,-4.3598,-4.3844,-4.3764,-4.4396,-4.4668,-4.4559,-4.4668,-4.4668,0.0,0.0,0.0,-4.2986,0.0,0.0,0.0,0.0,-4.2986,0.0,0.0,0.0,0.0,-4.2986,-4.2986,-4.2986,-4.2986,0.0,0.0,0.0,0.0,0.0,0.0,0.0,0.0,0.0,0.0,0.0,-3.5418,0.0,-3.5418,-3.5418,-3.5418,-3.5418,-3.5418,-3.5418,-3.5418,-3.5418,-3.5418,-3.5418,-3.5418,-3.5418,-3.5418,-3.5418,-3.5418,-3.5418,-3.5418,-3.5418,-3.5418,-3.5418,-3.5418,-3.5418,-3.5418,-3.5418,-3.5418,-3.5418,-3.5418,-3.5418,-3.5418,-3.5418,-3.5418,-3.5418,-3.5418,-3.5418,-3.5418,-3.5418,-3.5418,-3.5418,-3.5418,-3.5418,-3.5418,-3.5438,-3.5438,-3.5438,-3.5459,-3.5459,-3.5459,-3.5459,-3.5459,-3.5459,-3.5459,-3.5438,-3.5438,-3.5459,-3.5459,-3.5459,-3.6462,-3.6807,-3.5583,-3.6524,-3.6807,-3.5624,-3.6624,-3.7369,-3.7429,-3.9721,-4.1696,-4.293,-4.2986,-4.2986,-4.2986,-4.2986,-4.2986,-4.2986,-4.3598,-4.3708,-4.3406,-4.4287,-4.4559,-4.4313,-4.4559,-4.4668,0.0,0.0,-4.1923,-4.2793,0.0,0.0,0.0,0.0,0.0,0.0,0.0,0.0,0.0,-4.2986,-4.2986,-4.2986,-4.2986,-4.2986,0.0,0.0,0.0,0.0,0.0,0.0,0.0,0.0,0.0,-3.5418,-3.5418,-3.5418,0.0,-3.5418,-3.5418,-3.5418,-3.5418,-3.5418,-3.5418,-3.5418,-3.5418,-3.5418,-3.5418,-3.5418,-3.5418,-3.5418,-3.5418,-3.5418,-3.5418,-3.5418,-3.5418,-3.5418,-3.5418,-3.5418,-3.5418,-3.5418,-3.5418,-3.5418,-3.5418,-3.5418,-3.5418,-3.5418,-3.5418,-3.5418,-3.5418,-3.5418,-3.5418,-3.5418,-3.5418,-3.5418,-3.5418,-3.5418,-3.5418,-3.5418,-3.5418,-3.5418,-3.5418,-3.5418,-3.5418,-3.5418,-3.5418,-3.5418,-3.5418,-3.5418,-3.5418,-3.5418,-3.5418,-3.5418,-3.5767,-3.589,-3.5479,-3.5767,-3.589,-3.5418,-3.6542,-3.7309,-3.7309,-3.8862,-4.0036,-4.0442,-4.05,-4.087,-4.1696,-4.1753,-4.1753,-4.1753,-4.2961,-4.3103,-4.2157,-4.3517,-4.4094,-4.4064,-4.4094,-4.4367,-4.021,-4.0384,0.0,-4.2037,-4.2319,0.0,-4.293,0.0,0.0,0.0,0.0,0.0,0.0,-4.2986,-4.2986,-4.2986,-4.2986,-4.2986,0.0,-4.2986,0.0,0.0,0.0,0.0,0.0,0.0,-3.5418,-3.5418,-3.5418,-3.5418,0.0,0.0,-3.5418,-3.5418,-3.5418,-3.5418,-3.5418,-3.5418,-3.5418,-3.5418,-3.5418,-3.5418,-3.5418,-3.5418,-3.5418,-3.5418,-3.5418,-3.5418,-3.5418,-3.5418,-3.5418,-3.5418,-3.5418,-3.5418,-3.5418,-3.5418,-3.5418,-3.5418,-3.5418,-3.5418,-3.5418,-3.5418,-3.5418,-3.5418,-3.5418,-3.5418,-3.5459,-3.5625,-3.5542,-3.5459,-3.5625,-3.5542,-3.5418,-3.5418,-3.5418,-3.5418,-3.5418,-3.5418,-3.5418,-3.5418,-3.5418,-3.5418,-3.5418,-3.5418,-3.5418,-3.5418,-3.5418,-3.5418,-3.5418,-3.5418,-3.5418,-3.5418,-3.6135,-3.6824,-3.7248,-3.8029,-3.8744,-3.9157,-3.9627,-4.021,-4.1043,-4.1558,-4.181,-4.181,-4.2824,-4.2936,-4.2069,-4.3295,-4.3844,-4.3708,-4.3955,-4.4203]}]]